[[{"header":{"parameterUnit":"m.s-1","parameterCategory":1,"la1":30.6,"la2":28.766,"lo1":-90.7593,"lo2":-88.6598,"dy":0.0162,"dx":0.0183,"nx":116,"ny":114,"refTime":"2024-04-01T00:00:00:Z","depth":0,"parameterNumber":2,"parameterNumberName":"U-component_of_WINDS"},"data":[0.0,0.0,0.0,0.0,0.0,0.0,0.0,0.0,0.0,0.0,0.0,0.0,0.0,0.0,0.0,0.0,0.0,0.0,0.0,0.0,0.0,0.0,0.0,0.0,0.0,0.0,0.0,0.0,0.0,0.0,0.0,0.0,0.0,0.0,0.0,0.0,0.0,0.0,0.0,0.0,0.0,0.0,0.0,0.0,0.0,0.0,0.0,0.0,0.0,0.0,0.0,0.0,0.0,0.0,0.0,0.0,0.0,0.0,0.0,0.0,0.0,0.0,0.0,0.0,0.0,0.0,0.0,0.0,0.0,0.0,0.0,0.0,0.0,0.0,0.0,0.0,0.0,0.0,0.0,0.0,0.0,0.0,0.0,0.0,0.0,0.0,0.0,0.0,0.0,0.0,0.0,0.0,0.0,0.0,0.0,0.0,0.0,0.0,0.0,0.0,0.0,0.0,0.0,0.0,0.0,0.0,0.0,0.0,0.0,0.0,0.0,0.0,0.0,0.0,0.0,0.0,0.0,0.0,0.0,0.0,0.0,0.0,0.0,0.0,0.0,0.0,0.0,0.0,0.0,0.0,0.0,0.0,0.0,0.0,0.0,0.0,0.0,0.0,0.0,0.0,0.0,0.0,0.0,0.0,0.0,0.0,0.0,0.0,0.0,0.0,0.0,0.0,0.0,0.0,0.0,0.0,0.0,0.0,0.0,0.0,0.0,0.0,0.0,0.0,0.0,0.0,0.0,0.0,0.0,0.0,0.0,0.0,0.0,0.0,0.0,0.0,0.0,0.0,0.0,0.0,0.0,0.0,0.0,0.0,0.0,0.0,0.0,0.0,0.0,0.0,0.0,0.0,0.0,0.0,0.0,0.0,0.0,0.0,0.0,0.0,0.0,0.0,0.0,0.0,0.0,0.0,0.0,0.0,0.0,0.0,0.0,0.0,0.0,0.0,0.0,0.0,0.0,0.0,0.0,0.0,0.0,0.0,0.0,0.0,0.0,0.0,0.0,0.0,0.0,0.0,0.0,0.0,0.0,0.0,0.0,0.0,0.0,0.0,0.0,0.0,0.0,0.0,0.0,0.0,0.0,0.0,0.0,0.0,0.0,0.0,0.0,0.0,0.0,0.0,0.0,0.0,0.0,0.0,0.0,0.0,0.0,0.0,0.0,0.0,0.0,0.0,0.0,0.0,0.0,0.0,0.0,0.0,0.0,0.0,0.0,0.0,0.0,0.0,0.0,0.0,0.0,0.0,0.0,0.0,0.0,0.0,0.0,0.0,0.0,0.0,0.0,0.0,0.0,0.0,0.0,0.0,0.0,0.0,0.0,0.0,0.0,0.0,0.0,0.0,0.0,0.0,0.0,0.0,0.0,0.0,0.0,0.0,0.0,0.0,0.0,0.0,0.0,0.0,0.0,0.0,0.0,0.0,0.0,0.0,0.0,0.0,0.0,0.0,0.0,0.0,0.0,0.0,0.0,0.0,0.0,0.0,0.0,0.0,0.0,0.0,0.0,0.0,0.0,0.0,0.0,0.0,0.0,0.0,0.0,0.0,0.0,0.0,0.0,0.0,0.0,0.0,0.0,0.0,0.0,0.0,0.0,0.0,0.0,0.0,0.0,0.0,0.0,0.0,0.0,0.0,0.0,0.0,0.0,0.0,0.0,0.0,0.0,0.0,0.0,0.0,0.0,0.0,0.0,0.0,0.0,0.0,0.0,0.0,0.0,0.0,0.0,0.0,0.0,0.0,0.0,0.0,0.0,0.0,0.0,0.0,0.0,0.0,0.0,0.0,0.0,0.0,0.0,0.0,0.0,0.0,0.0,0.0,0.0,0.0,0.0,0.0,0.0,0.0,0.0,0.0,0.0,0.0,0.0,0.0,0.0,0.0,0.0,0.0,0.0,0.0,0.0,0.0,0.0,0.0,0.0,0.0,0.0,0.0,0.0,0.0,0.0,0.0,0.0,0.0,0.0,0.0,0.0,0.0,0.0,0.0,0.0,0.0,0.0,0.0,0.0,0.0,0.0,0.0,0.0,0.0,0.0,0.0,0.0,0.0,0.0,0.0,0.0,0.0,0.0,0.0,0.0,0.0,0.0,0.0,0.0,0.0,0.0,0.0,0.0,0.0,0.0,0.0,0.0,0.0,0.0,0.0,0.0,0.0,0.0,0.0,0.0,0.0,0.0,0.0,0.0,0.0,0.0,0.0,0.0,0.0,0.0,0.0,0.0,0.0,0.0,0.0,0.0,0.0,0.0,0.0,0.0,0.0,0.0,0.0,0.0,0.0,0.0,0.0,0.0,0.0,0.0,0.0,0.0,0.0,0.0,0.0,0.0,0.0,0.0,0.0,0.0,0.0,0.0,0.0,0.0,0.0,0.0,0.0,0.0,0.0,0.0,0.0,0.0,0.0,0.0,0.0,0.0,0.0,0.0,0.0,0.0,0.0,0.0,0.0,0.0,0.0,0.0,0.0,0.0,0.0,0.0,0.0,0.0,0.0,0.0,0.0,0.0,0.0,0.0,0.0,0.0,0.0,0.0,0.0,0.0,0.0,0.0,0.0,0.0,0.0,0.0,0.0,0.0,0.0,0.0,0.0,0.0,0.0,0.0,0.0,0.0,0.0,0.0,0.0,0.0,0.0,0.0,0.0,0.0,0.0,0.0,0.0,0.0,0.0,0.0,0.0,0.0,0.0,0.0,0.0,0.0,0.0,0.0,0.0,0.0,0.0,0.0,0.0,0.0,0.0,0.0,0.0,0.0,0.0,0.0,0.0,0.0,0.0,0.0,0.0,0.0,0.0,0.0,0.0,0.0,0.0,0.0,0.0,0.0,0.0,0.0,0.0,0.0,0.0,0.0,0.0,0.0,0.0,0.0,0.0,0.0,0.0,0.0,0.0,0.0,0.0,0.0,0.0,0.0,0.0,0.0,0.0,0.0,0.0,0.0,0.0,0.0,0.0,0.0,0.0,0.0,0.0,0.0,0.0,0.0,0.0,0.0,0.0,0.0,0.0,0.0,0.0,0.0,0.0,0.0,0.0,0.0,0.0,0.0,0.0,0.0,0.0,0.0,0.0,0.0,0.0,0.0,0.0,0.0,0.0,0.0,0.0,0.0,0.0,0.0,0.0,0.0,0.0,0.0,0.0,0.0,0.0,0.0,0.0,0.0,0.0,0.0,0.0,0.0,0.0,0.0,0.0,0.0,0.0,0.0,0.0,0.0,0.0,0.0,0.0,0.0,0.0,0.0,0.0,0.0,0.0,0.0,0.0,0.0,0.0,0.0,0.0,0.0,0.0,0.0,0.0,0.0,0.0,0.0,0.0,0.0,0.0,0.0,0.0,0.0,0.0,0.0,0.0,0.0,0.0,0.0,0.0,0.0,0.0,0.0,0.0,0.0,0.0,0.0,0.0,0.0,0.0,0.0,0.0,0.0,0.0,0.0,0.0,0.0,0.0,0.0,0.0,0.0,0.0,0.0,0.0,0.0,0.0,0.0,0.0,0.0,0.0,0.0,0.0,0.0,0.0,0.0,0.0,0.0,0.0,0.0,0.0,0.0,0.0,0.0,0.0,0.0,0.0,0.0,0.0,0.0,0.0,0.0,0.0,0.0,0.0,0.0,0.0,0.0,0.0,0.0,0.0,0.0,0.0,0.0,0.0,0.0,0.0,0.0,0.0,0.0,0.0,0.0,0.0,0.0,0.0,0.0,0.0,0.0,0.0,0.0,0.0,0.0,0.0,0.0,0.0,0.0,0.0,0.0,0.0,0.0,0.0,0.0,0.0,0.0,0.0,0.0,0.0,0.0,0.0,0.0,0.0,0.0,0.0,0.0,0.0,0.0,0.0,0.0,0.0,0.0,0.0,0.0,0.0,0.0,0.0,0.0,0.0,0.0,0.0,0.0,0.0,0.0,0.0,0.0,0.0,0.0,0.0,0.0,0.0,0.0,0.0,0.0,0.0,0.0,0.0,0.0,0.0,0.0,0.0,0.0,0.0,0.0,0.0,0.0,0.0,0.0,0.0,0.0,0.0,0.0,0.0,0.0,0.0,0.0,0.0,0.0,0.0,0.0,0.0,0.0,0.0,0.0,0.0,0.0,0.0,0.0,0.0,0.0,0.0,0.0,0.0,0.0,0.0,0.0,0.0,0.0,0.0,0.0,0.0,0.0,0.0,0.0,0.0,0.0,0.0,0.0,0.0,0.0,0.0,0.0,0.0,0.0,0.0,0.0,0.0,0.0,0.0,0.0,0.0,0.0,0.0,0.0,0.0,0.0,0.0,0.0,0.0,0.0,0.0,0.0,0.0,0.0,0.0,0.0,0.0,0.0,0.0,0.0,0.0,0.0,0.0,0.0,0.0,0.0,0.0,0.0,0.0,0.0,0.0,0.0,0.0,0.0,0.0,0.0,0.0,0.0,0.0,0.0,0.0,0.0,0.0,0.0,0.0,0.0,0.0,0.0,0.0,0.0,0.0,0.0,0.0,0.0,0.0,0.0,0.0,0.0,0.0,0.0,0.0,0.0,0.0,0.0,0.0,0.0,0.0,0.0,0.0,0.0,0.0,0.0,0.0,0.0,0.0,0.0,0.0,0.0,0.0,0.0,0.0,0.0,0.0,0.0,0.0,0.0,0.0,0.0,0.0,0.0,0.0,0.0,0.0,0.0,0.0,0.0,0.0,0.0,0.0,0.0,0.0,0.0,0.0,0.0,0.0,0.0,0.0,0.0,0.0,0.0,0.0,0.0,0.0,0.0,0.0,0.0,0.0,0.0,0.0,0.0,0.0,0.0,0.0,0.0,0.0,0.0,0.0,0.0,0.0,0.0,0.0,0.0,0.0,0.0,0.0,0.0,0.0,0.0,0.0,0.0,0.0,0.0,0.0,0.0,0.0,0.0,0.0,0.0,0.0,0.0,0.0,0.0,0.0,0.0,0.0,0.0,0.0,0.0,0.0,0.0,0.0,0.0,0.0,0.0,0.0,0.0,0.0,0.0,0.0,0.0,0.0,0.0,0.0,0.0,0.0,0.0,0.0,0.0,0.0,0.0,0.0,0.0,0.0,0.0,0.0,0.0,0.0,0.0,0.0,0.0,0.0,0.0,0.0,0.0,0.0,0.0,0.0,0.0,0.0,0.0,0.0,0.0,0.0,0.0,0.0,0.0,0.0,0.0,0.0,0.0,0.0,0.0,0.0,0.0,0.0,0.0,0.0,0.0,0.0,0.0,0.0,0.0,0.0,0.0,0.0,0.0,0.0,0.0,0.0,0.0,0.0,0.0,0.0,0.0,0.0,0.0,0.0,0.0,0.0,0.0,0.0,0.0,0.0,0.0,0.0,0.0,0.0,0.0,0.0,0.0,0.0,0.0,0.0,0.0,0.0,0.0,0.0,0.0,0.0,0.0,0.0,0.0,0.0,0.0,0.0,0.0,0.0,0.0,0.0,0.0,0.0,0.0,0.0,0.0,0.0,0.0,0.0,0.0,0.0,0.0,0.0,0.0,0.0,0.0,0.0,0.0,0.0,0.0,0.0,0.0,0.0,0.0,0.0,0.0,0.0,0.0,0.0,0.0,0.0,0.0,0.0,0.0,0.0,0.0,0.0,0.0,0.0,0.0,0.0,0.0,0.0,0.0,0.0,0.0,0.0,0.0,0.0,0.0,0.0,0.0,0.0,0.0,0.0,0.0,0.0,0.0,0.0,0.0,0.0,0.0,0.0,0.0,0.0,0.0,0.0,0.0,0.0,0.0,0.0,0.0,0.0,0.0,0.0,0.0,0.0,0.0,0.0,0.0,0.0,0.0,0.0,0.0,0.0,0.0,0.0,0.0,0.0,0.0,0.0,0.0,0.0,0.0,0.0,0.0,0.0,0.0,0.0,0.0,0.0,0.0,0.0,0.0,0.0,0.0,0.0,0.0,0.0,0.0,0.0,0.0,0.0,0.0,0.0,0.0,0.0,0.0,0.0,0.0,0.0,0.0,0.0,0.0,0.0,0.0,0.0,0.0,0.0,0.0,0.0,0.0,0.0,0.0,0.0,0.0,0.0,0.0,0.0,0.0,0.0,0.0,0.0,0.0,0.0,0.0,0.0,0.0,0.0,0.0,0.0,0.0,0.0,4.3049,0.0,0.0,0.0,0.0,0.0,0.0,0.0,0.0,0.0,0.0,0.0,0.0,0.0,0.0,0.0,0.0,0.0,0.0,0.0,0.0,0.0,0.0,0.0,0.0,4.0941,4.0929,4.0898,4.0896,4.0849,4.0688,0.0,0.0,0.0,0.0,0.0,3.9693,3.9427,3.921,3.9045,3.895,3.8773,3.8609,3.8252,3.7954,3.7651,0.0,0.0,0.0,0.0,0.0,0.0,0.0,0.0,0.0,0.0,0.0,0.0,0.0,0.0,0.0,0.0,0.0,0.0,0.0,0.0,0.0,0.0,0.0,0.0,0.0,0.0,0.0,0.0,0.0,0.0,0.0,0.0,0.0,0.0,0.0,0.0,0.0,0.0,0.0,0.0,0.0,0.0,0.0,0.0,0.0,0.0,0.0,0.0,0.0,0.0,0.0,0.0,0.0,0.0,0.0,0.0,0.0,0.0,0.0,0.0,0.0,0.0,0.0,0.0,0.0,0.0,0.0,0.0,0.0,0.0,0.0,4.2765,0.0,0.0,0.0,0.0,0.0,0.0,0.0,0.0,0.0,0.0,0.0,0.0,0.0,0.0,0.0,0.0,0.0,0.0,0.0,0.0,0.0,4.1031,4.1013,4.1021,4.1013,4.1007,4.1003,4.0954,4.083,4.0818,4.0713,4.045,4.0319,4.012,3.9851,3.9604,3.9383,3.9264,3.9183,3.8942,3.8523,3.8132,3.7667,3.7132,3.6678,0.0,0.0,0.0,0.0,0.0,0.0,0.0,0.0,0.0,0.0,0.0,0.0,0.0,0.0,0.0,0.0,0.0,0.0,0.0,0.0,0.0,0.0,0.0,0.0,0.0,0.0,0.0,0.0,0.0,0.0,0.0,0.0,0.0,0.0,0.0,0.0,0.0,0.0,0.0,0.0,0.0,0.0,0.0,0.0,0.0,0.0,0.0,0.0,0.0,0.0,0.0,0.0,0.0,0.0,0.0,0.0,0.0,0.0,0.0,0.0,0.0,0.0,0.0,4.051,4.042,4.0456,4.031,4.0161,4.0081,4.1407,4.194,4.1777,0.0,0.0,0.0,0.0,0.0,0.0,0.0,0.0,0.0,0.0,0.0,0.0,0.0,0.0,0.0,0.0,0.0,0.0,0.0,0.0,4.1091,4.1093,4.1094,4.1055,4.1015,4.1004,4.0976,4.0883,4.0887,4.0811,4.0668,4.054,4.0334,4.0061,3.9859,3.9683,3.9551,3.9376,3.9064,3.867,3.8281,3.7685,3.69,3.6392,3.5766,3.4994,0.0,0.0,0.0,0.0,0.0,0.0,0.0,0.0,0.0,0.0,0.0,0.0,0.0,0.0,0.0,0.0,0.0,0.0,0.0,0.0,0.0,0.0,0.0,0.0,0.0,0.0,0.0,0.0,0.0,0.0,0.0,0.0,0.0,0.0,0.0,0.0,0.0,0.0,0.0,0.0,0.0,4.2678,4.2564,0.0,0.0,0.0,0.0,0.0,0.0,0.0,0.0,0.0,0.0,0.0,0.0,0.0,4.0823,4.0792,4.0688,4.0599,4.0527,4.0492,4.0438,4.0328,4.0181,3.9973,3.966,3.957,0.0,3.9921,3.9575,0.0,0.0,0.0,0.0,0.0,0.0,0.0,0.0,0.0,0.0,0.0,0.0,0.0,0.0,0.0,0.0,0.0,0.0,0.0,0.0,0.0,4.0948,4.089,4.0842,4.0836,4.0828,4.0839,4.0413,4.0126,4.0032,3.9469,3.9052,3.8857,3.9216,3.9567,3.9882,3.9728,3.9402,3.8906,3.8436,3.7667,3.6649,3.6045,3.5357,3.4706,3.4152,0.0,0.0,0.0,0.0,0.0,0.0,0.0,0.0,0.0,0.0,0.0,0.0,0.0,0.0,0.0,0.0,0.0,0.0,0.0,0.0,0.0,0.0,0.0,0.0,0.0,0.0,0.0,0.0,0.0,0.0,0.0,0.0,0.0,0.0,0.0,0.0,0.0,0.0,0.0,4.2865,4.2677,4.2639,4.26,4.2368,0.0,0.0,0.0,0.0,0.0,0.0,0.0,0.0,0.0,4.0034,3.9711,3.952,3.944,3.924,3.9102,3.9048,3.8924,3.8815,3.8668,3.85,3.8231,3.7912,3.7666,3.7582,3.7753,3.833,3.8577,3.8476,0.0,0.0,0.0,0.0,3.9071,3.9485,0.0,0.0,0.0,0.0,0.0,0.0,0.0,0.0,0.0,0.0,0.0,0.0,4.0798,4.073,4.0641,4.0602,4.0597,4.0544,4.0393,3.9855,3.9433,3.9197,3.8526,3.81,3.7978,3.855,3.908,3.9572,3.9433,3.9091,3.8551,3.8,3.7232,3.6237,3.5505,3.4864,3.4268,3.3614,3.2772,0.0,0.0,0.0,0.0,0.0,0.0,0.0,0.0,0.0,0.0,0.0,0.0,0.0,0.0,0.0,0.0,0.0,0.0,0.0,0.0,0.0,0.0,0.0,0.0,0.0,0.0,0.0,0.0,0.0,0.0,0.0,0.0,0.0,0.0,0.0,0.0,0.0,0.0,4.2405,4.2305,4.2321,4.2305,4.2036,0.0,0.0,0.0,0.0,0.0,0.0,3.9759,3.95,3.9313,3.9253,3.8865,3.8615,3.846,3.8138,3.7916,3.7864,3.7649,3.7449,3.7281,3.7108,3.6834,3.6492,3.6301,3.6191,3.6182,3.7188,3.7575,3.75,3.736,3.7449,3.7618,3.7742,3.7908,3.8125,0.0,0.0,0.0,0.0,0.0,0.0,0.0,0.0,0.0,0.0,0.0,4.0587,4.0539,4.0405,4.0312,4.0327,4.0318,4.003,3.9331,3.9362,3.909,3.8394,3.8317,3.8268,3.8182,3.8166,3.813,3.8124,3.7973,3.7622,3.7077,3.6552,3.6059,3.5591,3.4746,3.4041,3.3443,3.2895,3.1962,3.0822,0.0,0.0,0.0,0.0,0.0,0.0,0.0,0.0,0.0,0.0,0.0,0.0,0.0,0.0,0.0,0.0,0.0,0.0,0.0,0.0,0.0,0.0,0.0,0.0,0.0,0.0,0.0,0.0,0.0,0.0,0.0,0.0,0.0,0.0,0.0,0.0,0.0,0.0,0.0,4.0822,4.0868,0.0,0.0,0.0,0.0,4.049,4.0346,4.025,4.0173,3.9907,3.974,3.9664,3.9338,3.9027,3.87,3.8328,3.8034,3.7703,3.7503,3.7279,3.7027,3.6869,3.665,3.6301,3.6105,3.5932,3.5834,3.5902,3.5936,3.5892,3.5785,3.618,3.684,3.6886,3.7373,3.8125,0.0,0.0,0.0,0.0,0.0,4.098,4.0867,4.0827,4.0781,4.0668,4.0429,4.0197,4.0023,3.987,3.9745,3.9659,3.9273,3.8956,3.8812,3.7964,3.7417,3.7288,3.681,3.6836,3.7421,3.7443,3.7693,3.8194,3.8093,3.7775,3.7243,3.6649,3.5937,3.5047,3.4123,3.3297,3.2621,3.2369,3.1492,3.0269,2.987,2.931,0.0,0.0,0.0,0.0,0.0,0.0,0.0,0.0,0.0,0.0,0.0,0.0,0.0,0.0,0.0,0.0,0.0,0.0,0.0,0.0,0.0,0.0,0.0,0.0,0.0,0.0,0.0,0.0,0.0,0.0,0.0,0.0,0.0,0.0,0.0,0.0,0.0,4.0779,4.0758,0.0,4.0678,4.062,4.0613,4.0632,4.0501,4.0448,4.0454,4.0285,4.0164,4.0082,3.969,3.9333,3.9024,3.8524,3.8099,3.7756,3.7522,3.7279,3.6987,3.6869,3.6568,3.6251,3.6062,3.5888,3.5667,3.5667,3.5667,3.5667,3.5622,3.5791,3.6028,3.6028,3.6197,3.648,0.0,0.0,0.0,0.0,4.0976,4.0889,4.0787,4.0648,4.0491,4.0293,4.0005,3.9745,3.9453,3.9296,3.916,3.9072,3.8406,3.7941,3.7857,3.6727,3.6054,3.6026,3.5684,3.5779,3.644,3.654,3.6825,3.7382,3.734,3.712,3.6713,3.614,3.5477,3.4673,3.3688,3.2837,3.2109,3.1694,3.0944,2.995,2.9498,2.8944,2.8287,0.0,0.0,0.0,0.0,0.0,0.0,0.0,0.0,0.0,0.0,0.0,0.0,0.0,0.0,0.0,0.0,0.0,0.0,0.0,0.0,0.0,0.0,0.0,0.0,0.0,0.0,0.0,0.0,0.0,0.0,0.0,0.0,0.0,0.0,0.0,4.072,4.0672,4.0579,4.048,4.0471,4.0141,3.9956,4.0033,3.9695,3.9529,3.9615,3.9569,3.95,3.949,3.9142,3.8822,3.8561,3.7969,3.7528,3.7151,3.6844,3.6519,3.6253,3.6081,3.5804,3.541,3.5266,3.5231,3.5233,3.5233,3.5402,3.5622,3.5622,3.5622,3.5622,3.5622,3.5622,3.5622,0.0,0.0,0.0,4.1097,4.0922,4.0781,4.0703,4.0457,4.0174,3.9846,3.9491,3.916,3.8924,3.8681,3.8579,3.8579,3.7808,3.7069,3.6407,3.572,3.5128,3.468,3.499,3.522,3.5372,3.5445,3.5523,3.5578,3.5586,3.553,3.5383,3.4936,3.4634,3.4458,3.3452,3.2673,3.2047,3.0869,3.0243,2.9954,2.9129,2.8583,2.8325,0.0,0.0,0.0,0.0,0.0,0.0,0.0,0.0,0.0,0.0,0.0,0.0,0.0,0.0,0.0,0.0,0.0,0.0,0.0,0.0,0.0,0.0,0.0,0.0,0.0,0.0,0.0,0.0,0.0,0.0,0.0,0.0,0.0,4.0767,4.0647,4.0482,4.0358,4.0133,3.9955,3.9876,3.9052,3.8539,3.8614,3.7908,3.7521,3.7662,3.7735,3.7807,3.7882,3.777,3.7585,3.7307,3.6779,3.6337,3.5919,3.5515,3.5153,3.4834,3.4616,3.4314,3.3882,3.3761,3.3989,3.4455,3.4455,3.4895,3.5554,3.5588,3.5622,3.5622,3.5622,3.5622,3.5622,0.0,0.0,4.1073,4.1046,4.0901,4.0729,4.0511,4.0227,3.9901,3.9543,3.909,3.8693,3.8405,3.8047,3.7843,3.7948,3.6582,3.5728,3.5745,3.4517,3.3879,3.4022,3.4381,3.4604,3.4736,3.4907,3.5076,3.5245,3.5383,3.5464,3.5464,3.5088,3.4694,3.4232,3.3237,3.2562,3.2152,3.0822,3.0185,3.0068,2.9154,2.8518,2.8201,0.0,0.0,0.0,0.0,0.0,0.0,0.0,0.0,0.0,0.0,0.0,0.0,0.0,0.0,0.0,0.0,0.0,0.0,0.0,0.0,0.0,0.0,0.0,0.0,0.0,0.0,0.0,0.0,0.0,0.0,0.0,0.0,3.8993,4.0314,3.981,3.9178,3.8898,3.8097,3.7502,3.7324,3.6905,3.6705,3.6889,3.6582,3.6569,3.688,3.706,3.7298,3.7607,3.7668,3.7687,3.7666,3.7322,3.6952,3.6559,3.6233,3.5812,3.5303,3.5047,3.4656,3.4164,3.4007,3.3945,3.3928,3.3928,3.4065,3.4312,3.5243,3.5622,3.5622,3.5622,3.5622,3.5622,0.0,4.1108,4.1087,4.1003,4.0848,4.0636,4.0377,3.9984,3.9543,3.92,3.867,3.8216,3.7879,3.7523,3.7319,3.7319,3.5719,3.4783,3.4977,3.3681,3.3028,3.3284,3.3658,3.3975,3.412,3.4314,3.4564,3.4811,3.5056,3.5279,3.5441,3.5252,3.4932,3.4464,3.3599,3.2911,3.2385,3.1066,3.0338,3.0083,2.9455,2.8884,2.8533,2.9217,2.9444,2.964,3.0424,3.0925,3.1405,3.2446,0.0,0.0,0.0,0.0,0.0,0.0,0.0,0.0,0.0,0.0,0.0,0.0,0.0,0.0,0.0,0.0,0.0,0.0,0.0,0.0,0.0,0.0,0.0,0.0,3.7874,3.7636,3.8423,3.8144,3.7732,3.7336,3.6496,3.5854,3.5556,3.4974,3.465,3.4726,3.4328,3.4273,3.4679,3.5038,3.5452,3.5978,3.6299,3.6579,3.6747,3.6595,3.6367,3.6064,3.5825,3.5403,3.4859,3.4582,3.4178,0.0,3.3455,3.3442,3.352,3.3424,3.3613,0.0,0.0,0.0,0.0,0.0,3.5756,3.5756,4.1105,4.1094,4.1088,4.1003,4.0776,4.0516,4.0298,3.9754,3.9272,3.8847,3.8314,3.7845,3.7449,3.7126,3.6856,3.6671,3.5109,3.4073,3.396,3.2967,3.2417,3.2482,3.2934,3.3296,3.3478,3.3697,3.3969,3.4326,3.4661,3.5023,3.533,3.5372,3.5236,3.4932,3.4244,3.3522,3.2732,3.1528,3.07,3.0143,2.9984,2.955,2.9049,2.9725,3.0004,3.0287,3.1192,3.1864,3.233,3.3129,0.0,0.0,0.0,0.0,0.0,0.0,0.0,0.0,0.0,0.0,0.0,0.0,0.0,0.0,0.0,0.0,0.0,0.0,0.0,0.0,0.0,0.0,0.0,0.0,3.6714,3.623,3.5561,3.5763,3.5891,3.5599,3.504,3.4481,3.4018,3.3035,3.2372,3.2282,3.1627,3.1401,3.1847,0.0,0.0,0.0,0.0,3.4844,3.5221,3.5271,3.5236,3.5113,3.4878,3.4527,3.4076,3.3827,3.346,3.3021,3.2741,3.2873,3.3283,3.3084,3.3447,3.4091,3.3876,3.4172,3.4873,3.5566,3.5857,3.5925,4.1093,4.1094,4.1058,4.0935,4.0703,4.0419,4.0119,3.9687,3.9245,3.8844,3.8234,3.7721,3.7431,3.6913,3.6342,3.5717,3.4472,3.3185,3.1879,3.1771,3.1785,3.1804,3.2248,3.2603,3.2798,3.3093,3.3411,3.3732,3.4255,3.4661,3.5007,3.5275,3.5371,3.5281,3.4653,3.4036,3.335,3.2435,3.1721,3.1176,3.0814,3.0116,2.9399,3.0036,3.0348,3.04,3.1041,3.1492,3.1917,3.3096,3.3813,3.437,3.544,0.0,0.0,0.0,0.0,0.0,0.0,0.0,0.0,0.0,0.0,0.0,0.0,0.0,0.0,0.0,0.0,0.0,0.0,0.0,0.0,3.5624,3.4529,3.352,3.2834,3.2406,3.2492,3.3459,3.2518,3.1572,3.0916,3.0323,2.9941,2.9805,2.9648,2.9783,3.0301,3.1028,0.0,3.2655,3.3499,3.4187,3.4735,3.5072,3.523,3.5257,0.0,0.0,3.4642,3.4467,3.4153,3.3677,3.3486,3.331,3.3188,3.3113,3.308,3.3153,3.3905,3.4167,3.4203,3.4518,3.4973,3.5451,4.1094,4.1072,4.1011,4.0869,4.0604,4.031,3.9985,3.9543,3.9129,3.8695,3.8135,3.7577,3.7167,3.6673,3.6067,3.5143,3.37,3.2334,0.0,3.1312,3.1449,3.1449,3.193,3.2266,3.2404,3.277,3.3099,3.339,3.3943,3.4414,3.4821,3.5212,3.544,3.5472,3.5078,3.4609,3.4102,3.3286,3.2652,3.2161,3.1627,3.1072,3.0598,3.0962,3.116,3.1302,3.1952,3.2311,3.2646,3.3487,3.3948,3.4333,3.5054,3.5609,3.5988,0.0,0.0,0.0,0.0,0.0,0.0,0.0,0.0,0.0,0.0,0.0,0.0,0.0,0.0,3.6674,3.6273,0.0,3.4631,3.3816,3.2787,3.1812,3.1023,3.0368,3.0352,3.1381,3.0651,2.9745,2.8992,2.8482,2.815,2.799,2.8084,2.8466,2.9173,2.9959,3.0864,3.1882,3.2775,3.3592,3.428,3.4741,3.5027,3.5207,3.53,3.5237,3.5053,3.4974,3.4764,3.4434,3.4231,3.4018,3.3808,3.3623,3.3403,3.325,3.384,3.3984,3.3907,3.4421,3.4806,3.5154,4.1089,4.1013,4.0913,4.0791,4.0505,4.021,3.9922,3.9439,3.8989,3.8554,3.8068,3.7541,3.6974,3.6615,3.5897,3.4627,3.3093,3.1847,0.0,3.1196,3.1334,3.1372,3.1875,3.2179,3.2249,3.2641,3.2948,3.319,3.3716,3.4213,3.4659,3.5147,3.5465,3.5595,3.5435,3.514,3.4748,3.4078,3.3524,3.3051,3.2479,3.2161,3.2074,3.2094,3.2038,3.1996,3.2703,3.3046,3.3242,3.3749,3.4053,3.4261,3.4729,3.5168,3.5515,3.5538,3.5813,0.0,0.0,0.0,0.0,0.0,0.0,0.0,0.0,0.0,3.5695,3.5673,3.5488,3.5149,3.4603,3.3943,3.3184,3.2188,3.1382,3.0513,2.9539,2.8884,2.8716,2.9141,2.89,2.8356,2.7495,2.707,2.6724,2.6448,2.6791,2.7333,2.8176,2.9025,2.995,3.107,3.2056,3.2907,3.3666,3.4214,3.4658,3.4944,3.5185,3.5299,3.5292,3.5342,3.5263,3.5093,3.4898,3.4715,3.4546,3.4289,3.4048,3.3843,3.3938,3.3908,3.3906,3.4456,3.4744,3.4958,0.0,4.0904,4.08,4.0726,4.0487,4.0175,3.9873,3.9452,3.9027,3.8646,3.8234,3.7792,3.7394,3.6974,3.596,3.4001,3.2968,0.0,3.1308,3.1389,3.1524,3.164,3.2002,3.2266,3.2456,3.2755,3.2993,3.319,3.368,3.4111,3.4532,3.5066,3.5396,3.5602,3.5574,3.541,3.5097,3.4604,3.419,3.3836,3.3533,3.3364,3.3296,3.3309,3.2586,3.1614,3.1938,3.2173,3.2458,3.3336,3.3828,3.4273,3.5154,3.5643,3.5853,3.5468,0.0,3.56,3.5183,3.5245,3.5488,3.5608,3.5659,3.5717,0.0,0.0,3.5681,3.5624,3.5295,3.4866,3.4267,3.3369,3.2353,3.1233,3.0253,2.9214,2.815,2.7625,2.7034,2.6328,2.685,2.6902,2.609,2.5755,2.5508,2.5203,2.5577,2.6147,2.7041,2.8064,2.9087,3.0058,3.1065,3.1952,3.2585,3.3359,3.3942,3.4392,3.4778,3.5072,3.5313,3.548,3.5525,3.5431,3.5291,3.5194,3.509,3.4947,3.481,3.4661,3.454,3.4427,3.4298,3.3945,3.4222,3.4733,0.0,4.0869,4.0761,4.0662,4.0419,4.0139,3.9807,3.9427,3.9027,3.8585,3.8267,3.7862,3.7339,3.6492,3.563,3.4766,3.3928,0.0,3.2414,3.2478,3.2418,3.2073,3.2351,3.2586,3.2669,3.2943,3.3178,3.3357,3.3762,3.4136,3.451,3.5018,3.5369,3.5599,3.5683,3.5616,3.5417,3.5025,3.4679,3.4379,3.408,3.388,3.3795,3.3742,3.3395,3.2888,3.2805,3.284,0.0,0.0,3.3713,3.4004,3.4483,3.4843,3.5101,3.4941,3.5055,0.0,3.5242,3.5355,0.0,0.0,3.5652,3.5717,3.5749,3.5735,3.5657,3.5516,3.5064,3.4467,3.3707,3.2701,3.1581,0.0,2.9262,2.8196,2.7202,2.6438,2.5755,2.4993,2.5092,2.5148,2.4937,2.4781,2.4624,2.4593,2.4978,2.5687,2.6745,2.7635,2.8607,2.9569,3.0517,3.1312,3.2057,3.2715,3.334,3.3889,3.4379,3.4753,3.5019,3.5306,3.5515,3.5664,3.5573,3.5499,3.5424,3.5328,3.5229,3.5147,3.5085,3.4966,3.4791,3.4209,3.4164,3.4473,0.0,4.0818,4.0726,4.0569,4.0358,4.01,3.9807,3.9452,3.9073,3.8664,3.8364,3.8,3.7468,3.652,3.5846,3.5636,3.4979,0.0,0.0,3.372,3.3495,3.2857,3.3152,3.3203,3.3019,3.3202,3.3415,3.3577,3.3895,3.4227,3.4551,3.5021,3.536,3.5616,3.5767,3.5757,3.5631,3.5353,3.5105,3.487,3.4576,3.4386,3.4315,3.4228,3.4204,3.4181,3.3697,3.3579,0.0,0.0,3.3828,3.4031,3.4165,3.4416,3.4674,3.4736,3.4956,3.5225,3.5477,0.0,0.0,3.5719,3.5753,3.5777,3.5762,3.5671,3.5532,3.5331,3.4756,3.4055,3.3182,3.2071,0.0,2.9664,2.8481,2.7399,2.6404,2.5632,2.4921,2.4247,2.3982,2.3865,2.3943,2.3943,2.4015,2.4189,2.4708,2.5481,2.6534,2.7348,2.824,2.9196,3.0038,3.0788,3.1528,3.2213,3.2876,3.3481,3.3998,3.4398,3.4698,3.5124,3.5485,3.5773,3.5761,3.5728,3.5677,3.5632,3.5582,3.553,3.5499,3.5427,3.5271,3.4755,3.4494,3.4487,0.0,0.0,4.064,4.0438,4.0286,4.0139,3.9935,3.9502,3.9129,3.8939,3.8603,3.8271,3.7934,3.7503,3.6905,3.6164,3.5872,0.0,3.496,3.5013,3.4811,3.4267,3.4424,3.4202,3.3481,3.3549,3.3643,3.3807,3.4074,3.4344,3.4593,3.5076,3.5419,3.5611,3.5814,3.5859,3.5775,3.5646,3.5512,3.5364,3.5162,3.5083,3.5051,3.498,3.5016,3.4962,3.4157,0.0,0.0,0.0,3.4357,3.4593,3.4658,3.4868,0.0,3.517,3.5365,0.0,0.0,0.0,3.5799,3.5801,3.575,3.5704,3.5706,3.5491,3.5273,3.5066,3.4373,3.3576,3.2786,3.1562,3.0286,2.9055,2.8,2.6938,2.5879,2.5286,2.4721,2.4008,2.376,2.3497,0.0,2.345,2.3688,2.3891,2.462,2.5384,2.6297,2.7108,2.7864,2.8685,2.9563,3.032,3.0908,3.1774,3.2529,3.3128,3.3651,3.4094,3.4423,3.5092,3.551,3.5709,3.5846,3.5882,3.5898,3.5893,3.5895,3.5858,3.5743,3.5684,3.5659,3.551,3.5244,3.4944,0.0,0.0,0.0,0.0,0.0,4.0139,3.9935,3.9551,3.9156,3.8862,3.8478,0.0,0.0,0.0,0.0,0.0,0.0,0.0,3.6096,3.6163,3.5954,3.5322,3.5502,3.5239,3.4465,3.4503,3.4339,3.3921,3.4124,3.4367,3.4674,3.5064,3.5366,3.5601,3.5758,3.5855,3.5864,3.5774,3.5659,3.5516,3.5406,3.5331,3.5292,3.5273,3.5292,3.5258,0.0,0.0,0.0,0.0,3.4923,3.5059,3.5085,0.0,0.0,3.5495,3.5639,3.575,0.0,0.0,3.5732,3.5729,3.5648,3.5562,3.5504,3.5292,3.5028,3.4794,3.4125,3.335,3.2406,3.1373,3.0269,2.9088,2.7981,2.7041,2.6229,2.5439,2.4778,2.4261,2.3923,0.0,0.0,0.0,0.0,2.4125,2.4762,2.5547,2.6529,2.7296,2.8021,2.8673,2.9454,3.0226,3.0876,3.1686,3.2387,3.306,3.3712,3.421,3.4558,3.5013,3.5328,3.5582,3.5767,3.586,3.5903,3.5898,3.5893,3.5901,3.59,3.5864,3.5827,3.5743,3.5609,3.543,0.0,0.0,0.0,0.0,0.0,0.0,0.0,0.0,0.0,0.0,0.0,0.0,0.0,0.0,0.0,0.0,0.0,0.0,0.0,0.0,3.7047,3.6394,3.6492,3.6227,3.542,3.5183,3.4889,3.4448,3.4649,3.4907,3.5206,3.5864,3.6276,3.6499,3.6658,3.6771,3.6836,3.6781,3.6722,3.6634,3.6571,3.6508,3.6443,3.6439,3.6439,0.0,0.0,0.0,0.0,3.5364,0.0,0.0,0.0,3.5514,3.5626,3.5708,3.5776,3.5797,0.0,3.5738,3.5671,3.5629,3.5516,3.5364,3.5273,3.5032,3.4734,3.4483,3.3773,3.2961,3.2091,3.1048,3.0031,2.8966,2.8012,2.7159,2.6549,2.5825,2.5104,2.4593,2.4313,0.0,0.0,0.0,0.0,2.4465,2.5195,2.6063,2.6892,2.7659,2.8363,2.8889,2.9609,3.0321,3.0994,3.1715,3.2459,3.3212,3.3799,3.4228,3.457,3.4889,3.5178,3.5444,3.5631,3.5767,3.5836,3.5884,3.5906,3.5916,3.5976,3.5972,3.5925,3.5884,3.5841,3.5733,0.0,0.0,0.0,0.0,0.0,0.0,0.0,0.0,0.0,0.0,0.0,0.0,0.0,0.0,0.0,0.0,0.0,0.0,0.0,0.0,0.0,3.7381,3.7503,3.7165,3.6376,3.5662,3.5348,3.5369,3.5632,3.5904,3.6193,3.7345,3.7945,3.8105,3.8303,3.8439,3.8492,3.8494,3.8502,3.8488,3.8429,3.8358,3.8313,3.8307,0.0,0.0,0.0,0.0,0.0,0.0,0.0,0.0,0.0,0.0,3.5801,3.5797,3.5789,3.5797,3.5788,3.5678,3.5574,3.5495,3.534,3.5141,3.5016,3.4733,3.4404,3.4124,3.3346,3.2462,0.0,0.0,2.9641,2.8873,2.8125,2.7444,2.6826,2.6312,2.5729,0.0,0.0,0.0,0.0,0.0,0.0,2.4904,0.0,2.6749,2.7321,2.8216,2.8901,2.9309,2.9957,3.0593,3.1216,3.1884,3.2688,3.3597,3.3862,3.4175,3.4487,3.4766,3.5016,3.5307,3.5507,3.562,3.5706,3.5845,3.5889,3.5892,3.5965,3.5982,3.5995,3.6007,3.5968,3.5875,0.0,0.0,0.0,0.0,0.0,0.0,0.0,0.0,0.0,0.0,0.0,0.0,0.0,0.0,0.0,0.0,0.0,0.0,0.0,0.0,0.0,0.0,0.0,0.0,0.0,0.0,0.0,0.0,0.0,3.6723,3.7007,3.7507,3.7871,3.8105,3.8258,3.8384,3.8498,3.8493,3.8492,3.8502,0.0,3.8449,3.8459,0.0,0.0,0.0,0.0,0.0,0.0,0.0,0.0,0.0,0.0,0.0,3.5789,3.5738,3.5682,3.563,3.553,3.5425,3.5345,3.5216,3.5051,3.487,3.4732,3.4476,3.4173,3.3788,3.3087,3.2347,0.0,0.0,0.0,2.912,2.8356,0.0,2.7395,2.6776,0.0,0.0,0.0,2.5331,2.5141,2.5608,0.0,0.0,2.6668,2.7293,2.8021,2.8779,2.9406,2.98,3.0364,3.0874,3.1348,3.2348,3.3128,3.3597,3.3825,3.4039,3.4296,3.4487,3.4772,3.5098,3.5302,3.547,3.5637,3.5718,3.5788,3.5833,3.5889,3.5927,3.5929,3.5986,3.5996,3.5971,0.0,0.0,0.0,0.0,0.0,0.0,0.0,0.0,0.0,0.0,0.0,0.0,0.0,0.0,0.0,0.0,0.0,0.0,0.0,0.0,0.0,0.0,0.0,0.0,0.0,0.0,0.0,0.0,0.0,0.0,0.0,3.8574,3.9004,3.92,3.9363,3.9497,3.9604,3.963,0.0,0.0,0.0,0.0,0.0,0.0,0.0,0.0,0.0,0.0,0.0,0.0,0.0,3.6359,3.5929,3.5774,3.5748,3.5676,0.0,3.55,3.5386,3.53,3.5196,3.5072,3.4889,3.4711,3.4539,3.426,3.3913,3.3543,3.2829,0.0,0.0,0.0,0.0,0.0,0.0,0.0,2.7671,2.7134,2.6686,0.0,2.6155,0.0,2.598,2.6399,2.6846,0.0,2.7549,2.8002,2.8679,2.9415,2.9936,3.0285,3.0781,3.132,3.1914,3.2773,3.3346,3.3597,3.3807,3.4005,3.416,3.4375,3.4636,3.4927,0.0,3.534,3.5522,3.5574,3.5649,3.5727,3.5788,3.584,3.5858,3.5938,3.5952,3.601,0.0,0.0,0.0,0.0,0.0,0.0,0.0,0.0,0.0,0.0,3.8738,0.0,0.0,0.0,0.0,0.0,0.0,0.0,0.0,0.0,0.0,0.0,0.0,0.0,0.0,0.0,0.0,0.0,0.0,0.0,0.0,0.0,0.0,0.0,0.0,0.0,0.0,0.0,0.0,0.0,0.0,0.0,0.0,0.0,0.0,0.0,0.0,0.0,0.0,0.0,3.7914,3.709,3.6218,3.5892,3.58,3.5608,3.5483,3.5336,3.5266,3.5141,3.5039,3.4964,3.479,3.4602,3.4409,3.4043,3.3681,3.3351,0.0,0.0,3.1198,0.0,2.942,2.8793,0.0,2.7923,2.7674,2.739,2.7092,2.6811,2.6715,2.6649,2.6826,2.7099,2.7497,2.8146,2.851,2.8857,2.9291,2.9995,3.0475,3.0785,3.1179,3.1757,3.2596,3.3109,3.3447,3.3597,3.3788,3.3962,3.4099,3.4266,3.4507,3.4771,0.0,0.0,3.5392,3.5457,3.5526,3.5585,3.5667,3.5728,3.5791,3.5846,3.5958,3.6165,0.0,0.0,0.0,0.0,0.0,0.0,0.0,0.0,0.0,0.0,3.881,3.8707,0.0,0.0,0.0,0.0,0.0,0.0,0.0,0.0,0.0,0.0,0.0,0.0,0.0,0.0,0.0,0.0,0.0,0.0,0.0,0.0,0.0,0.0,0.0,0.0,0.0,0.0,0.0,0.0,0.0,0.0,0.0,0.0,0.0,0.0,0.0,0.0,0.0,0.0,3.8681,3.7859,3.6919,3.6582,3.6381,3.5575,3.5254,3.5102,3.4926,3.487,3.4809,3.4626,3.4495,3.4321,3.4189,3.3894,0.0,0.0,0.0,3.1688,3.1202,3.0212,0.0,2.8936,0.0,0.0,0.0,0.0,2.7339,0.0,0.0,0.0,0.0,0.0,0.0,0.0,0.0,2.9669,2.9871,3.0342,3.0886,3.1348,3.1589,3.1985,3.2577,3.2985,3.3291,3.3597,3.3752,3.3844,3.3944,3.4092,3.432,3.4559,3.4772,0.0,3.5242,3.5373,3.546,3.5528,3.5604,3.5623,3.5639,3.5708,3.6231,3.691,0.0,0.0,0.0,0.0,0.0,0.0,0.0,3.9551,3.9298,3.9183,3.895,3.881,3.875,3.8719,3.8707,0.0,0.0,0.0,0.0,0.0,0.0,0.0,0.0,0.0,0.0,0.0,0.0,0.0,0.0,0.0,0.0,0.0,0.0,0.0,0.0,0.0,0.0,0.0,0.0,0.0,0.0,0.0,0.0,0.0,0.0,0.0,0.0,0.0,0.0,0.0,3.9651,3.9012,3.7685,3.6922,3.6441,3.5923,3.5394,3.4923,3.4832,3.4714,3.4628,3.4524,3.4375,3.4223,3.4128,0.0,0.0,0.0,0.0,3.1689,3.1196,0.0,0.0,0.0,0.0,0.0,0.0,0.0,0.0,0.0,0.0,0.0,0.0,0.0,0.0,0.0,0.0,3.01,3.0261,3.0727,3.114,3.1489,3.1771,3.2125,3.2623,3.3032,3.3375,3.3597,3.3752,3.3844,3.3907,3.4002,3.4185,3.4468,3.4661,0.0,3.5152,3.5277,3.5388,3.5449,3.5528,3.5836,3.6221,3.6292,3.69,3.7741,0.0,0.0,0.0,0.0,0.0,0.0,4.0099,3.9788,3.9551,3.9383,3.9129,3.8921,3.8851,3.875,3.8707,0.0,0.0,0.0,0.0,0.0,0.0,0.0,0.0,0.0,0.0,0.0,0.0,0.0,0.0,0.0,0.0,0.0,0.0,0.0,0.0,0.0,0.0,0.0,0.0,0.0,0.0,0.0,0.0,0.0,0.0,0.0,0.0,0.0,0.0,0.0,4.0314,3.9909,3.8513,3.7508,3.6768,3.6445,3.5704,3.4964,3.4926,3.4691,3.4408,3.4405,3.4259,3.4111,3.4048,3.3716,0.0,0.0,0.0,0.0,0.0,0.0,0.0,0.0,0.0,0.0,0.0,0.0,0.0,0.0,0.0,0.0,0.0,0.0,0.0,0.0,0.0,0.0,3.0601,3.0975,3.1314,3.1506,3.184,3.2193,3.2613,3.3122,3.3447,3.3597,3.3752,3.3825,3.3862,3.3962,3.412,3.4351,3.4589,0.0,0.0,3.5224,3.5446,3.568,3.5738,3.629,3.7049,3.7109,3.7694,3.8559,0.0,0.0,0.0,0.0,0.0,0.0,4.0306,4.0002,3.9826,3.9693,3.9324,3.9045,3.8979,3.881,3.8707,0.0,0.0,0.0,0.0,0.0,0.0,0.0,0.0,0.0,0.0,0.0,0.0,0.0,0.0,0.0,0.0,0.0,0.0,0.0,0.0,0.0,0.0,0.0,0.0,0.0,0.0,0.0,0.0,0.0,0.0,0.0,0.0,0.0,0.0,0.0,0.0,3.9948,3.9483,3.8828,3.805,3.7185,0.0,0.0,3.5348,3.4745,3.412,3.4059,3.3937,3.3839,3.3839,0.0,0.0,0.0,3.2254,3.1584,0.0,0.0,0.0,0.0,0.0,0.0,0.0,0.0,0.0,0.0,0.0,0.0,0.0,0.0,0.0,0.0,0.0,0.0,3.0937,3.119,3.1365,3.1596,3.1929,3.2284,3.2695,3.3021,3.3346,3.3597,3.3752,3.3807,3.3807,3.3944,3.4039,3.4141,3.4532,0.0,0.0,3.5198,3.5814,3.6573,3.6593,3.7126,3.7891,3.7896,3.8477,3.9307,0.0,0.0,0.0,0.0,0.0,0.0,4.0509,4.0177,3.9975,3.9848,3.9427,3.9101,3.9007,3.881,3.8707,3.8707,0.0,0.0,0.0,0.0,0.0,0.0,0.0,0.0,0.0,0.0,0.0,0.0,0.0,0.0,0.0,0.0,0.0,0.0,0.0,0.0,0.0,0.0,0.0,0.0,0.0,0.0,0.0,0.0,0.0,0.0,0.0,0.0,0.0,0.0,0.0,0.0,3.9427,3.9029,0.0,0.0,3.69,3.6052,3.5496,3.5096,3.4692,3.4146,3.3891,3.3784,3.3734,0.0,0.0,3.2776,3.2266,3.1699,3.1291,0.0,0.0,0.0,0.0,0.0,0.0,0.0,0.0,0.0,0.0,0.0,0.0,0.0,0.0,0.0,0.0,0.0,3.1173,3.128,3.1431,3.1734,3.2052,3.2422,3.2866,3.3226,3.3465,3.3652,3.377,3.3807,3.3807,3.388,3.3983,3.4067,3.4372,0.0,0.0,3.5827,3.652,3.7376,3.7435,3.8012,3.8777,3.8785,3.9342,4.0119,0.0,0.0,0.0,0.0,0.0,4.1767,4.0672,4.029,4.0078,3.9956,3.9526,3.9183,3.9036,3.8822,3.8707,3.8707,3.8707,0.0,0.0,0.0,0.0,0.0,0.0,0.0,0.0,0.0,3.8822,3.9101,3.9219,0.0,0.0,0.0,0.0,0.0,0.0,0.0,0.0,0.0,0.0,0.0,0.0,0.0,0.0,0.0,0.0,0.0,0.0,0.0,0.0,0.0,0.0,0.0,0.0,0.0,0.0,0.0,3.7541,3.6726,3.6117,3.5788,3.5393,3.4512,3.4191,3.3991,0.0,0.0,3.2898,3.2595,3.216,3.1688,3.1286,3.069,0.0,0.0,0.0,0.0,0.0,0.0,0.0,0.0,0.0,0.0,0.0,0.0,0.0,0.0,0.0,0.0,0.0,3.2047,3.2008,3.194,3.2232,3.2636,3.3042,3.3375,3.3587,3.3715,3.377,3.3807,3.3807,3.3862,3.4068,3.4383,0.0,0.0,0.0,3.6577,3.7283,3.8152,3.8285,3.8885,3.9646,3.9646,4.0065,4.0596,0.0,0.0,0.0,0.0,0.0,0.0,4.0773,4.0341,4.0158,4.0019,3.958,3.9245,3.9129,3.8851,3.8707,3.8707,3.8707,0.0,0.0,0.0,0.0,0.0,0.0,0.0,0.0,0.0,3.8822,3.9101,3.9219,3.9537,3.9983,0.0,0.0,0.0,0.0,0.0,0.0,0.0,0.0,0.0,0.0,0.0,0.0,0.0,0.0,0.0,0.0,0.0,0.0,0.0,0.0,0.0,0.0,0.0,0.0,0.0,3.8169,3.7503,3.7473,3.6922,3.6075,3.5219,3.4897,3.455,0.0,0.0,3.2595,3.2264,3.1862,3.1497,3.1077,3.0623,3.0342,3.0479,2.994,0.0,0.0,0.0,0.0,0.0,0.0,0.0,0.0,0.0,0.0,0.0,0.0,0.0,0.0,3.3758,3.3363,3.2239,3.2523,3.2849,3.3201,3.3478,3.3633,3.3715,3.377,3.3807,3.3807,3.3862,3.4357,0.0,0.0,0.0,0.0,3.7338,3.8023,3.8904,3.9112,3.9723,4.0489,4.0489,4.0543,4.06,0.0,0.0,0.0,0.0,0.0,0.0,4.1566,4.0724,4.0139,4.0021,3.9585,3.9245,3.9129,3.8851,3.8707,3.8707,3.8707,0.0,0.0,0.0,0.0,0.0,0.0,0.0,0.0,0.0,3.8822,3.9101,3.9219,3.9537,3.9983,4.0138,4.0344,0.0,0.0,0.0,0.0,0.0,0.0,0.0,0.0,0.0,0.0,0.0,0.0,0.0,0.0,0.0,0.0,0.0,0.0,0.0,0.0,0.0,0.0,3.8726,3.853,0.0,3.765,3.7241,3.6776,3.5956,3.5569,3.5156,3.424,0.0,3.3193,3.2317,3.2248,3.2244,3.1844,3.1763,3.1665,3.1332,3.0788,0.0,0.0,0.0,0.0,0.0,0.0,0.0,0.0,0.0,0.0,0.0,0.0,0.0,0.0,3.3877,3.3913,3.3829,3.4217,3.4623,3.5046,3.5202,3.5375,3.5486,3.5504,3.5504,3.5504,3.5522,0.0,0.0,0.0,0.0,0.0,3.8003,3.8731,3.96,3.9809,4.0087,4.0373,4.0469,4.0508,4.0543,0.0,0.0,0.0,0.0,0.0,0.0,4.192,4.1092,4.0461,3.9989,3.9545,3.9192,3.9073,3.8851,3.8707,3.8707,3.8707,0.0,0.0,0.0,0.0,0.0,0.0,0.0,3.8707,3.8707,3.8822,3.9101,3.9219,3.9532,4.0,4.0137,4.0326,4.0554,4.0581,0.0,0.0,0.0,0.0,0.0,0.0,0.0,4.0607,0.0,0.0,0.0,0.0,0.0,0.0,0.0,0.0,0.0,0.0,0.0,0.0,0.0,3.8634,3.853,0.0,3.7863,3.7533,3.6744,3.631,0.0,0.0,0.0,0.0,3.2943,3.2921,3.294,3.2536,3.2486,3.2385,3.2112,3.156,0.0,0.0,0.0,0.0,0.0,0.0,0.0,0.0,0.0,0.0,0.0,0.0,0.0,0.0,3.4754,3.5106,3.5579,3.5418,3.5515,3.5928,3.6103,3.6213,3.6315,3.6315,3.6315,3.6315,3.6315,0.0,0.0,0.0,0.0,0.0,3.8659,3.918,3.9787,4.004,4.0177,4.0277,4.043,4.0499,4.0489,0.0,0.0,0.0,0.0,0.0,0.0,0.0,4.1437,4.0921,3.9919,3.9444,3.9156,3.9007,3.884,3.8707,3.8707,3.8707,0.0,0.0,0.0,0.0,0.0,0.0,0.0,3.8707,3.8707,3.8822,3.9101,3.9237,3.9539,3.9987,4.0134,4.0309,4.0489,4.0581,4.06,0.0,0.0,0.0,0.0,0.0,4.0642,0.0,0.0,0.0,0.0,0.0,0.0,0.0,0.0,0.0,0.0,0.0,0.0,0.0,0.0,0.0,0.0,0.0,3.8566,3.8272,3.7434,3.7048,3.6536,0.0,0.0,0.0,0.0,3.3757,3.3577,3.3223,3.2905,3.2692,3.2866,3.2361,0.0,0.0,0.0,0.0,0.0,0.0,0.0,0.0,0.0,0.0,0.0,0.0,0.0,0.0,3.6191,3.6561,3.7185,3.6203,3.5807,3.6188,3.6352,3.6474,3.6474,3.6474,3.6474,3.6474,3.6474,0.0,0.0,0.0,0.0,0.0,3.9166,3.9376,3.9502,3.9857,4.0055,4.0196,4.0406,4.0494,4.0489,0.0,0.0,0.0,0.0,0.0,0.0,0.0,0.0,0.0,0.0,3.9364,3.909,3.8999,3.8833,3.8707,0.0,0.0,0.0,0.0,0.0,0.0,0.0,0.0,0.0,3.8707,3.8707,3.881,3.9026,3.9212,3.9526,3.9928,4.01,4.0311,4.0489,4.0508,4.0508,0.0,0.0,0.0,0.0,4.0549,4.053,0.0,0.0,0.0,0.0,4.0285,4.0101,0.0,0.0,0.0,0.0,0.0,0.0,0.0,0.0,3.8465,3.838,3.8271,0.0,3.8112,3.7809,3.7485,3.6951,0.0,0.0,0.0,0.0,0.0,3.422,3.3964,3.3968,3.3974,3.3836,0.0,0.0,0.0,0.0,0.0,0.0,0.0,0.0,0.0,0.0,0.0,0.0,0.0,0.0,0.0,3.6191,3.6561,3.7185,3.7256,3.7461,3.7814,3.8028,3.8151,3.8151,3.8151,3.8151,3.8151,3.8151,0.0,0.0,0.0,0.0,3.8847,3.908,3.9201,3.9293,3.9633,3.9851,4.0005,4.0253,4.0379,4.0431,0.0,0.0,0.0,0.0,0.0,0.0,0.0,0.0,0.0,0.0,3.9177,3.896,3.8924,3.8785,3.8707,0.0,0.0,0.0,0.0,0.0,0.0,0.0,0.0,3.8854,3.9246,3.9246,3.954,4.0096,4.0317,4.0419,4.0462,4.0662,4.0673,4.0489,4.0489,4.0489,4.0489,0.0,0.0,0.0,4.0489,0.0,0.0,0.0,0.0,0.0,4.0174,3.9941,0.0,3.9383,3.9156,3.8929,0.0,0.0,0.0,0.0,3.8186,3.8038,3.7709,3.7828,3.7941,3.7718,3.7449,3.7075,3.6305,0.0,0.0,0.0,0.0,0.0,3.457,0.0,0.0,0.0,0.0,0.0,0.0,0.0,0.0,0.0,0.0,0.0,0.0,0.0,0.0,0.0,0.0,0.0,0.0,3.6294,3.6707,3.7255,3.7685,3.8053,3.842,3.8585,3.8707,3.8707,3.8707,3.8707,3.8707,3.8707,3.8707,0.0,0.0,0.0,3.8762,3.894,3.9047,3.9147,3.9477,3.9703,3.9831,4.0158,4.0302,4.0373,0.0,0.0,0.0,0.0,0.0,0.0,0.0,0.0,0.0,0.0,0.0,0.0,0.0,0.0,0.0,0.0,0.0,0.0,0.0,0.0,0.0,0.0,3.8707,3.9068,3.9878,3.9884,4.0369,4.136,4.1568,4.1446,4.1042,4.1275,4.1055,4.0489,4.0489,4.0489,4.0489,4.0489,0.0,0.0,4.0489,0.0,0.0,0.0,0.0,0.0,0.0,0.0,0.0,3.9249,3.9039,3.8836,3.8707,0.0,0.0,0.0,0.0,0.0,3.7172,3.737,3.764,3.7339,3.7141,3.687,3.6495,0.0,0.0,0.0,0.0,0.0,0.0,0.0,0.0,0.0,0.0,0.0,0.0,0.0,0.0,0.0,0.0,0.0,0.0,0.0,0.0,0.0,0.0,0.0,0.0,3.644,3.6864,3.7373,3.7792,3.8125,3.842,3.8585,3.8707,3.8707,3.8707,3.8707,3.8707,3.8707,3.8707,0.0,0.0,0.0,3.8707,3.8817,3.8907,3.9008,3.9333,3.9532,3.9716,4.0041,4.0211,4.0323,0.0,0.0,0.0,0.0,0.0,0.0,0.0,0.0,0.0,0.0,0.0,0.0,0.0,0.0,0.0,0.0,0.0,0.0,0.0,0.0,0.0,3.8707,3.8707,3.9068,3.9878,3.9887,4.0354,4.1231,4.1416,4.1271,4.0774,4.1095,4.0957,4.0489,4.0489,4.0489,4.0489,4.0489,4.0489,4.0489,4.0489,0.0,0.0,0.0,0.0,0.0,0.0,0.0,0.0,3.9102,3.8897,3.8707,3.8511,0.0,0.0,0.0,0.0,0.0,3.6973,3.6818,3.6758,3.6676,3.655,3.6362,0.0,0.0,0.0,0.0,0.0,0.0,0.0,0.0,0.0,0.0,0.0,0.0,0.0,0.0,0.0,0.0,0.0,0.0,0.0,0.0,0.0,0.0,0.0,0.0,0.0,3.6452,3.6855,3.7377,3.779,3.8125,3.842,3.8585,3.8707,3.8707,3.8707,3.8707,3.8707,3.8707,3.8707,0.0,0.0,3.8707,3.8707,3.8781,3.8815,3.885,3.9138,3.9354,3.958,3.9905,4.0137,4.0326,0.0,0.0,0.0,0.0,0.0,0.0,0.0,0.0,0.0,0.0,0.0,0.0,0.0,0.0,0.0,0.0,0.0,0.0,0.0,0.0,3.8707,3.8707,3.8707,3.9283,4.0542,4.0559,4.119,4.2492,4.2695,4.229,4.1301,4.0858,4.0572,4.045,4.0469,4.0489,4.0489,4.0489,4.0489,4.0489,0.0,0.0,0.0,0.0,0.0,0.0,0.0,0.0,0.0,0.0,3.8688,3.8518,3.8257,0.0,0.0,0.0,0.0,0.0,3.6481,3.6242,3.6056,3.5892,3.6014,3.6038,0.0,0.0,0.0,0.0,0.0,0.0,0.0,0.0,0.0,0.0,0.0,0.0,0.0,0.0,0.0,0.0,0.0,0.0,0.0,0.0,0.0,0.0,0.0,0.0,0.0,0.0,3.7041,3.7505,3.7843,3.8176,3.842,3.8585,3.8707,3.8707,3.8707,3.8707,3.8707,3.8707,3.8707,3.8707,0.0,3.8707,3.8707,3.8762,3.9056,3.9491,3.973,4.0226,4.0848,4.1309,4.1552,4.1711,0.0,0.0,0.0,0.0,0.0,0.0,0.0,0.0,0.0,0.0,0.0,0.0,0.0,0.0,0.0,0.0,0.0,0.0,0.0,3.8707,3.8707,3.8707,3.8707,3.9357,4.0782,4.0831,4.1517,4.3023,4.3169,4.2673,4.1516,4.0564,4.0213,4.0329,4.0396,4.0431,4.0431,4.0431,4.0431,4.0412,0.0,0.0,0.0,0.0,0.0,0.0,0.0,0.0,0.0,0.0,0.0,0.0,0.0,0.0,0.0,3.696,3.6655,3.6405,3.601,3.5746,3.5513,3.5215,0.0,0.0,0.0,0.0,0.0,0.0,0.0,0.0,0.0,0.0,0.0,0.0,0.0,0.0,0.0,0.0,0.0,0.0,0.0,0.0,0.0,0.0,0.0,0.0,0.0,0.0,0.0,0.0,3.7188,3.7577,3.7931,3.8212,3.842,3.8585,3.8707,3.8707,3.8707,3.8707,3.8707,3.8707,3.8805,3.898,3.8975,3.908,3.9276,3.9313,3.9699,4.0263,4.0506,4.1173,4.2027,4.2503,4.2771,4.2922,0.0,0.0,0.0,0.0,0.0,0.0,0.0,0.0,0.0,0.0,0.0,0.0,0.0,0.0,0.0,0.0,0.0,0.0,0.0,3.8707,3.8707,3.8707,3.8707,3.9087,3.9982,4.0001,4.0396,4.1263,4.1371,4.1138,4.0679,4.0163,3.9981,4.0119,4.0178,4.0219,4.0219,4.0219,4.0219,4.0223,4.0152,0.0,0.0,0.0,0.0,0.0,0.0,0.0,0.0,0.0,0.0,0.0,0.0,0.0,3.6922,3.6628,3.638,3.6157,3.5745,3.5532,3.5304,3.4835,0.0,0.0,0.0,0.0,0.0,0.0,0.0,0.0,0.0,0.0,0.0,0.0,0.0,0.0,0.0,0.0,0.0,0.0,0.0,0.0,0.0,0.0,0.0,0.0,0.0,0.0,0.0,0.0,0.0,3.7595,3.7946,3.8212,3.842,3.8585,3.8707,3.8707,3.8707,3.8707,3.8707,3.8707,3.91,3.9797,3.9801,4.0244,4.0946,4.0946,4.095,4.1042,4.117,4.1603,4.2231,4.2563,4.2774,4.2921,0.0,0.0,0.0,0.0,0.0,0.0,0.0,0.0,0.0,0.0,0.0,0.0,0.0,0.0,0.0,0.0,0.0,0.0,0.0,3.8707,3.8707,3.8707,3.8707,3.8836,3.9173,3.9626,4.0302,4.1103,4.0722,4.051,4.0454,3.987,3.9705,3.9903,3.9985,4.0043,4.0081,4.0081,4.0055,4.0,3.9943,3.9765,0.0,0.0,0.0,0.0,0.0,0.0,0.0,0.0,3.8061,3.7731,3.7321,3.6934,3.6565,3.6182,3.5956,3.5756,3.5412,3.5118,3.4866,3.4448,0.0,0.0,0.0,0.0,0.0,0.0,0.0,0.0,0.0,0.0,0.0,0.0,0.0,0.0,0.0,0.0,0.0,0.0,0.0,0.0,0.0,0.0,0.0,0.0,0.0,0.0,0.0,0.0,0.0,3.7595,3.7938,3.8441,3.915,3.9365,3.9708,4.0194,3.9184,3.897,3.9456,3.9456,3.9882,4.0653,4.0656,4.0839,4.111,4.1086,4.1394,4.1907,4.2746,4.3295,4.3731,4.4011,4.4247,4.4403,0.0,0.0,0.0,0.0,0.0,0.0,0.0,0.0,0.0,0.0,0.0,0.0,0.0,0.0,0.0,0.0,0.0,0.0,3.8707,3.8707,3.8707,3.8707,3.8707,3.8707,3.8707,3.9246,3.9786,4.0345,3.9896,3.9767,3.9898,3.9496,3.9421,3.9604,3.9664,3.9733,3.9771,3.9792,3.9752,3.9695,3.964,3.9482,0.0,0.0,0.0,0.0,0.0,0.0,0.0,0.0,3.7772,3.7418,3.6923,3.6565,3.6191,3.58,3.5532,3.5304,3.493,3.4643,3.4349,0.0,0.0,0.0,0.0,0.0,0.0,0.0,0.0,0.0,0.0,0.0,0.0,0.0,0.0,0.0,0.0,0.0,0.0,0.0,0.0,0.0,0.0,0.0,0.0,0.0,0.0,0.0,0.0,0.0,0.0,0.0,3.8751,3.9276,4.0014,4.0211,4.0555,4.1097,3.9992,3.9758,4.0299,4.0266,4.072,4.1467,4.1492,4.1606,4.186,4.1837,4.2197,4.28,4.3688,4.424,4.4522,4.4827,4.5026,4.5203,0.0,0.0,0.0,0.0,0.0,0.0,0.0,0.0,3.8707,3.8707,3.8707,0.0,0.0,0.0,0.0,0.0,0.0,0.0,3.8707,3.8707,3.8707,3.8707,3.8707,3.8707,3.8707,3.8707,3.8707,3.8707,3.8762,3.8817,3.8903,3.9034,3.912,3.9212,3.9257,3.9301,3.9314,3.9285,3.9314,3.9287,3.9219,3.9161,3.9076,0.0,0.0,0.0,0.0,0.0,0.0,0.0,3.7431,3.7031,3.6609,3.6165,3.5773,3.547,3.5165,3.4804,3.4399,3.4101,0.0,0.0,0.0,0.0,0.0,0.0,0.0,0.0,0.0,0.0,0.0,0.0,0.0,0.0,0.0,0.0,0.0,0.0,0.0,0.0,0.0,0.0,0.0,0.0,0.0,0.0,0.0,0.0,0.0,0.0,0.0,0.0,4.051,4.0792,4.1009,4.1082,4.1119,4.1137,4.1115,4.113,4.113,4.1101,4.1544,4.2297,4.2307,4.2763,4.3497,4.3497,4.3548,4.3615,4.391,4.4079,4.425,4.4648,4.4821,4.4919,0.0,0.0,0.0,0.0,0.0,0.0,0.0,0.0,3.8707,3.8707,3.8707,0.0,0.0,0.0,0.0,0.0,0.0,0.0,3.8707,3.8707,3.8707,3.8707,3.8707,3.8707,3.8707,3.8707,3.8707,3.8707,3.8726,3.8762,3.8817,3.8854,3.8951,3.9043,3.9093,3.9105,3.9173,3.9172,3.9121,3.9087,3.9076,3.898,3.8859,0.0,0.0,0.0,0.0,0.0,0.0,0.0,0.0,0.0,3.6419,3.5993,3.5577,3.5165,3.4835,3.4497,3.3899,3.3507,0.0,0.0,0.0,0.0,0.0,0.0,0.0,0.0,0.0,0.0,0.0,0.0,0.0,0.0,0.0,0.0,0.0,0.0,0.0,0.0,0.0,0.0,0.0,0.0,0.0,0.0,0.0,0.0,0.0,0.0,0.0,0.0,4.0163,4.0782,4.1697,4.1839,4.2166,4.28,4.28,4.2488,4.1937,4.1922,4.2381,4.3133,4.3149,4.3277,4.3497,4.3497,4.3548,4.3615,4.3767,4.3974,4.4151,4.4327,4.4541,4.477,0.0,0.0,0.0,0.0,0.0,0.0,0.0,0.0,3.8707,3.8707,3.8707,3.8707,0.0,0.0,0.0,0.0,0.0,0.0,0.0,3.8707,3.8707,3.8707,3.8707,3.8707,3.8707,3.8707,3.8707,3.8707,3.8707,3.8726,3.8762,3.8762,3.8799,3.8903,3.8903,3.8903,3.894,3.894,3.8915,3.8884,3.8884,3.8817,3.8732,0.0,0.0,0.0,0.0,0.0,0.0,0.0,0.0,0.0,3.6105,3.5711,3.5304,3.4787,3.4399,3.3933,3.3314,0.0,0.0,0.0,0.0,0.0,0.0,0.0,0.0,0.0,0.0,0.0,0.0,0.0,0.0,0.0,0.0,0.0,0.0,0.0,0.0,0.0,0.0,0.0,0.0,0.0,0.0,0.0,0.0,0.0,0.0,0.0,0.0,0.0,4.0999,4.1576,4.2467,4.2627,4.2935,4.3497,4.3497,4.324,4.2782,4.2782,4.3039,4.3497,4.3497,4.3497,4.3497,4.3497,4.3513,4.3548,4.3667,4.3832,4.4005,4.4079,4.4288,4.4551,0.0,0.0,3.8707,3.8707,0.0,0.0,0.0,0.0,3.8707,3.8707,3.8707,3.8707,0.0,0.0,0.0,0.0,0.0,0.0,0.0,3.8689,3.8689,3.867,3.867,3.867,3.867,3.867,3.867,3.8652,3.8689,3.8707,3.8707,3.8707,3.8707,3.8707,3.8707,3.8707,3.8707,3.8707,3.8707,3.8707,3.8707,3.8658,3.8658,3.8528,0.0,0.0,0.0,0.0,0.0,0.0,0.0,0.0,3.5739,3.535,3.4994,3.4448,3.3899,3.333,0.0,0.0,0.0,0.0,0.0,0.0,0.0,0.0,0.0,0.0,0.0,0.0,0.0,0.0,0.0,0.0,0.0,0.0,0.0,0.0,0.0,0.0,0.0,0.0,0.0,0.0,0.0,0.0,0.0,0.0,0.0,0.0,0.0,4.2044,4.2391,4.2747,4.3178,4.3305,4.3411,0.0,4.3497,4.3497,4.3497,4.3497,4.3497,4.3497,4.3497,4.3497,4.3497,4.3497,4.3497,4.3532,4.3548,4.3667,4.3804,4.3929,4.4116,4.4314,0.0,0.0,3.8707,3.8707,0.0,0.0,0.0,0.0,0.0,3.8707,0.0,0.0,0.0,0.0,0.0,0.0,0.0,0.0,0.0,3.853,3.8511,3.8475,3.8456,3.8438,3.8401,3.8401,3.8315,3.8224,3.8548,3.8707,3.8707,3.8707,3.8707,3.8707,3.8707,3.8707,3.8707,3.8707,3.8707,3.8707,3.8609,3.8541,3.8528,3.8368,3.8238,0.0,0.0,0.0,0.0,0.0,0.0,0.0,3.5711,3.5304,3.4851,3.43,3.3662,3.3018,0.0,0.0,0.0,0.0,0.0,0.0,0.0,0.0,0.0,0.0,0.0,0.0,0.0,0.0,0.0,0.0,0.0,0.0,0.0,0.0,0.0,0.0,0.0,0.0,0.0,0.0,0.0,0.0,0.0,0.0,0.0,0.0,0.0,4.177,4.2044,4.2512,4.3141,4.3178,4.3322,0.0,4.3497,4.3497,4.3497,4.3497,4.3497,4.3497,4.3497,4.3497,4.3497,4.3497,4.3497,4.3497,4.3532,4.3652,4.3804,4.3818,4.4042,4.4314,0.0,0.0,0.0,0.0,0.0,0.0,0.0,0.0,0.0,0.0,0.0,0.0,0.0,0.0,0.0,0.0,0.0,0.0,0.0,0.0,3.8291,3.8273,3.8237,3.8186,3.815,3.807,3.8041,3.7952,3.8176,3.8298,3.8422,3.8431,3.8409,3.8409,3.8419,3.8401,3.8401,3.8401,3.8401,3.8401,3.835,3.8267,3.8234,3.807,3.788,3.7685,3.7337,0.0,0.0,0.0,0.0,0.0,0.0,0.0,3.4497,3.3866,3.323,3.2602,0.0,0.0,0.0,0.0,0.0,0.0,0.0,0.0,0.0,0.0,0.0,0.0,0.0,0.0,0.0,0.0,0.0,0.0,0.0,0.0,0.0,0.0,0.0,0.0,0.0,0.0,0.0,0.0,0.0,0.0,0.0,4.0648,4.0995,4.1657,4.1917,4.2391,4.2994,4.3123,4.3304,4.3497,4.3497,4.3497,4.3497,4.3497,4.3497,4.3497,4.3497,4.3497,4.3497,4.3497,4.3497,4.3497,4.3497,4.36,4.3701,4.3701,4.4138,4.4755,0.0,0.0,0.0,0.0,0.0,0.0,0.0,0.0,0.0,0.0,0.0,0.0,0.0,0.0,0.0,0.0,0.0,0.0,0.0,0.0,0.0,3.7946,3.7891,3.7843,3.7828,3.7718,3.7637,3.7589,3.758,3.7678,3.784,3.799,3.8041,3.8041,3.8036,3.8034,3.8034,3.8034,3.8034,3.8034,3.8,3.7966,3.7897,3.765,3.7468,3.7226,3.6856,3.6591,3.6377,3.6062,0.0,0.0,0.0,0.0,3.4134,3.3387,3.2819,3.2302,0.0,0.0,0.0,0.0,0.0,0.0,0.0,0.0,0.0,0.0,0.0,0.0,0.0,0.0,0.0,0.0,0.0,0.0,0.0,0.0,0.0,0.0,0.0,0.0,0.0,0.0,0.0,0.0,0.0,0.0,4.0485,4.0648,4.0982,4.156,4.1934,4.2333,4.2882,4.3087,4.3304,4.3497,4.3497,4.3497,4.3497,4.3497,4.3497,4.3497,4.3497,4.3497,4.3497,4.3497,4.3497,4.3497,4.3497,4.364,4.3802,4.3802,4.4469,4.5435,0.0,0.0,0.0,0.0,0.0,0.0,0.0,0.0,0.0,0.0,3.8198,3.8168,0.0,0.0,0.0,0.0,0.0,0.0,3.7596,0.0,0.0,3.7327,3.7309,3.7238,3.7025,3.7041,3.6939,3.6762,3.6752,3.6776,0.0,0.0,3.7845,3.7845,3.7827,3.7862,3.7862,3.7862,3.7862,3.7809,3.765,3.7578,3.7542,3.717,3.6956,3.6816,0.0,0.0,3.6019,3.5905,3.5701,0.0,0.0,0.0,3.3984,3.3214,3.2656,0.0,0.0,0.0,0.0,0.0,0.0,0.0,0.0,0.0,0.0,0.0,0.0,0.0,0.0,0.0,0.0,0.0,0.0,0.0,0.0,0.0,0.0,0.0,0.0,0.0,0.0,0.0,0.0,0.0,0.0,0.0,4.0485,4.0648,4.0982,4.156,4.1934,4.2333,4.2882,4.3087,4.3304,4.3497,4.3497,4.3497,4.3497,4.3497,4.3497,4.3497,4.3497,4.3497,4.3497,4.3497,4.3497,4.3497,4.3497,4.3989,4.4646,4.4646,4.5284,4.6157,0.0,0.0,0.0,0.0,0.0,0.0,0.0,0.0,0.0,0.0,0.0,3.7882,0.0,0.0,0.0,3.74,3.7329,3.72,3.7001,3.6891,3.6856,3.6856,3.6812,3.6757,3.6689,3.659,3.6517,3.6448,3.6422,0.0,0.0,3.6776,3.7017,0.0,0.0,3.715,3.715,3.715,3.715,3.7111,3.7017,3.6956,3.6917,3.6638,3.6533,0.0,0.0,0.0,0.0,0.0,3.5503,3.5198,3.4899,0.0,0.0,0.0,0.0,0.0,0.0,0.0,0.0,0.0,0.0,0.0,0.0,0.0,0.0,0.0,0.0,0.0,0.0,0.0,0.0,0.0,0.0,0.0,0.0,0.0,0.0,0.0,0.0,0.0,0.0,0.0,0.0,0.0,0.0,4.0171,4.0387,4.06,4.0918,4.1363,4.1849,4.2333,4.2788,4.305,4.3304,4.3497,4.3497,4.3497,4.3497,4.3497,4.3497,4.3497,4.3497,4.3497,4.3497,4.3497,4.3754,4.4176,4.4176,4.4689,4.5441,4.5441,4.6027,4.6888,0.0,0.0,0.0,0.0,0.0,0.0,0.0,0.0,0.0,0.0,0.0,0.0,0.0,0.0,0.0,0.0,3.6493,3.6377,3.6208,3.6346,3.6474,3.6474,3.6393,3.6333,3.6254,3.6178,3.6112,3.6051,0.0,0.0,3.6045,3.6002,3.6071,0.0,3.6468,3.6533,0.0,0.0,0.0,3.6492,3.6509,3.6485,3.6419,0.0,0.0,0.0,0.0,0.0,0.0,0.0,0.0,0.0,0.0,0.0,0.0,0.0,0.0,0.0,0.0,0.0,0.0,0.0,0.0,0.0,0.0,0.0,0.0,0.0,0.0,0.0,0.0,0.0,0.0,0.0,0.0,0.0,0.0,0.0,0.0,0.0,0.0,0.0,0.0,0.0,0.0,0.0,0.0,4.0188,4.0288,4.0551,4.0871,4.1209,4.1788,4.2292,4.2711,4.3069,4.3339,4.3497,4.3497,4.3497,4.3497,4.3497,4.3608,4.3791,4.3589,4.3608,4.3791,4.3791,4.4287,4.5002,4.5002,4.5498,4.6214,4.6214,4.6765,4.7592,0.0,0.0,0.0,0.0,0.0,0.0,0.0,0.0,0.0,0.0,0.0,0.0,3.665,3.6609,3.6238,3.5536,3.5352,3.5215,3.5093,3.5701,3.6044,3.6044,3.6017,0.0,3.5643,3.5626,3.5513,0.0,0.0,0.0,3.5337,3.5228,3.5228,3.5383,3.6045,3.6301,3.6301,0.0,0.0,0.0,3.6251,3.6225,0.0,0.0,0.0,0.0,0.0,0.0,0.0,0.0,0.0,0.0,0.0,0.0,0.0,0.0,0.0,0.0,0.0,0.0,0.0,0.0,0.0,0.0,0.0,0.0,0.0,0.0,0.0,0.0,0.0,0.0,0.0,0.0,0.0,0.0,0.0,0.0,0.0,0.0,0.0,0.0,0.0,0.0,0.0,0.0,0.0,4.0188,4.0288,4.0551,4.0871,4.1209,4.1788,4.2292,4.2711,4.3214,4.3497,4.3497,4.3497,4.3497,4.3497,4.3497,4.392,4.4617,4.3828,4.392,4.4654,4.4654,4.5112,4.5847,4.5847,4.6342,4.7058,4.7058,4.7553,4.8251,0.0,0.0,0.0,0.0,0.0,0.0,0.0,0.0,0.0,0.0,0.0,0.0,0.0,3.5087,3.4738,3.3846,3.366,3.3599,3.3671,3.39,3.4242,3.4839,3.4829,3.5026,3.5392,3.5312,0.0,0.0,0.0,3.4994,3.4899,3.4851,3.4804,3.4787,3.5304,3.5577,3.5667,3.5667,0.0,0.0,3.5745,3.579,3.58,0.0,0.0,0.0,0.0,0.0,0.0,0.0,0.0,0.0,0.0,0.0,0.0,0.0,0.0,0.0,0.0,0.0,0.0,0.0,0.0,0.0,0.0,0.0,0.0,0.0,0.0,0.0,0.0,0.0,0.0,0.0,0.0,0.0,0.0,0.0,0.0,0.0,0.0,0.0,0.0,0.0,0.0,0.0,0.0,0.0,4.0188,4.0436,4.0728,4.1012,4.164,4.2315,4.2995,4.3339,4.3497,4.3497,4.3497,4.3754,4.4268,4.4268,4.4709,4.5461,4.5168,4.5204,4.548,4.548,4.5938,4.6673,4.6673,4.7168,4.7884,4.7884,4.8067,4.8306,0.0,0.0,0.0,0.0,0.0,3.581,3.5722,3.5661,3.5571,3.5453,0.0,0.0,0.0,0.0,3.3301,3.2436,3.2297,3.2264,3.2364,3.2596,3.3001,3.3624,3.3877,3.4222,3.4678,3.4847,0.0,0.0,0.0,0.0,0.0,3.4234,3.4104,3.3893,3.4072,3.436,0.0,0.0,0.0,3.4571,0.0,3.4952,3.4997,0.0,0.0,0.0,0.0,0.0,0.0,0.0,0.0,0.0,0.0,0.0,0.0,0.0,0.0,0.0,0.0,0.0,0.0,0.0,0.0,0.0,0.0,0.0,0.0,0.0,0.0,0.0,0.0,0.0,0.0,0.0,0.0,0.0,0.0,0.0,0.0,0.0,0.0,0.0,0.0,0.0,0.0,0.0,0.0,0.0,4.007,4.037,4.071,4.1163,4.1753,4.2436,4.3142,4.3358,4.3591,4.3901,4.3901,4.4323,4.5112,4.5112,4.5553,4.6305,4.6305,4.6305,4.6305,4.6305,4.6783,4.7517,4.7517,4.7847,4.8306,4.8306,4.8306,4.8306,0.0,0.0,3.5105,3.5088,3.4994,3.4899,3.4899,3.4739,3.4643,3.461,0.0,0.0,0.0,0.0,0.0,3.127,3.1204,3.1204,3.1249,3.1921,3.2377,3.2529,3.3172,3.3458,3.3367,0.0,0.0,0.0,0.0,0.0,0.0,0.0,3.297,3.2654,3.2273,3.2641,3.3442,0.0,3.2607,3.2746,0.0,3.3789,3.3872,0.0,0.0,0.0,3.4756,3.4691,0.0,0.0,0.0,0.0,0.0,0.0,0.0,0.0,0.0,0.0,0.0,0.0,0.0,0.0,0.0,0.0,0.0,0.0,0.0,0.0,0.0,0.0,0.0,0.0,0.0,0.0,0.0,0.0,0.0,0.0,0.0,0.0,0.0,0.0,0.0,0.0,0.0,0.0,0.0,4.0138,4.0138,4.0421,4.0901,4.1701,4.2169,4.2649,4.3104,4.3342,4.3887,4.4745,4.4745,4.5168,4.5938,4.5938,4.6379,4.715,4.715,4.715,4.715,4.715,4.7609,4.8306,4.8306,4.8306,4.8306,4.8306,4.8306,4.8306,0.0,3.4851,3.4804,3.4691,3.4659,3.4546,3.4349,3.4168,3.3774,0.0,0.0,0.0,0.0,0.0,2.9296,2.9281,2.9249,2.9405,2.9681,2.9918,3.0346,3.1029,3.1286,3.1578,3.2063,0.0,0.0,0.0,0.0,0.0,0.0,0.0,0.0,0.0,3.0658,3.0373,3.0749,3.1565,0.0,0.0,3.2979,3.3399,0.0,0.0,0.0,0.0,0.0,3.3984,0.0,0.0,3.3387,3.3124,0.0,0.0,0.0,0.0,0.0,0.0,3.1482,0.0,0.0,0.0,0.0,0.0,3.5653,3.5638,0.0,0.0,0.0,0.0,0.0,0.0,0.0,0.0,0.0,0.0,0.0,0.0,0.0,0.0,0.0,0.0,0.0,0.0,0.0,0.0,4.1677,4.1677,4.1677,4.1528,4.1712,4.2258,4.2713,4.3197,4.3674,4.4562,4.5168,4.5498,4.5535,4.5993,4.6783,4.6783,4.7223,4.7976,4.7976,4.7976,4.7976,4.7976,4.8104,4.8306,4.8306,4.8306,4.8306,4.8306,4.8306,4.8306,3.4448,3.4218,3.3951,3.3901,3.3681,3.3459,3.3319,3.2825,3.2232,0.0,0.0,0.0,0.0,0.0,0.0,2.8012,2.8061,2.8207,2.8511,2.8511,2.8809,2.9533,2.9896,3.0258,3.0782,0.0,0.0,0.0,0.0,0.0,0.0,0.0,0.0,0.0,2.948,2.8976,0.0,0.0,0.0,0.0,3.1406,0.0,0.0,3.3092,3.3441,0.0,0.0,0.0,3.2911,3.2873,3.2749,0.0,0.0,0.0,0.0,0.0,0.0,0.0,0.0,0.0,0.0,0.0,0.0,0.0,3.5879,3.5879,3.607,0.0,0.0,0.0,0.0,0.0,0.0,0.0,0.0,0.0,0.0,0.0,0.0,0.0,0.0,0.0,0.0,0.0,0.0,4.2286,4.2286,4.2339,4.2409,4.2245,4.2358,4.2845,4.3276,4.3746,4.4227,4.5098,4.5767,4.6303,4.6379,4.6838,4.7609,4.7609,4.7865,4.8306,4.8306,4.8306,4.8306,4.8306,4.8306,4.8306,4.8306,4.8306,4.8306,4.8306,4.8306,4.8306,0.0,3.3335,3.2826,3.2826,3.2299,3.1866,3.1866,3.1066,3.0393,0.0,2.8847,0.0,0.0,0.0,0.0,0.0,2.7246,2.7363,2.758,2.758,2.7765,2.8143,2.8805,2.9258,2.9388,3.0072,0.0,0.0,0.0,0.0,0.0,0.0,0.0,0.0,2.8584,2.8158,0.0,0.0,0.0,2.8558,2.9335,3.0083,0.0,0.0,3.2142,0.0,3.2586,3.2547,3.2492,3.2398,3.2342,0.0,0.0,0.0,0.0,0.0,3.1826,0.0,0.0,0.0,0.0,0.0,0.0,0.0,3.6196,3.6321,3.6507,0.0,0.0,0.0,0.0,0.0,0.0,0.0,0.0,0.0,0.0,0.0,0.0,0.0,0.0,0.0,0.0,4.254,4.254,4.254,4.254,4.261,4.2734,4.279,4.2997,4.335,4.385,4.4297,4.4807,4.5373,4.6145,4.7088,4.7184,4.7627,4.8306,4.8306,4.8306,4.8306,4.8306,4.8306,4.8306,4.8306,4.8306,4.8306,4.8306,4.8306,4.8306,4.8306,4.8306,4.8306,3.2226,3.2059,3.189,3.1577,3.1027,3.0571,3.0288,2.9501,2.8621,2.7849,2.6539,0.0,0.0,0.0,0.0,0.0,2.619,2.6351,2.6707,2.6826,2.7034,2.7312,2.773,2.8022,2.8137,2.889,2.924,0.0,0.0,0.0,0.0,0.0,0.0,0.0,2.7676,2.7277,0.0,0.0,0.0,2.7181,2.8366,0.0,3.0422,3.1052,3.1728,3.2287,3.2302,3.215,3.194,0.0,3.1996,3.2094,0.0,0.0,0.0,0.0,0.0,0.0,0.0,0.0,0.0,0.0,0.0,0.0,3.6662,3.686,3.7178,0.0,0.0,0.0,0.0,0.0,0.0,0.0,0.0,0.0,0.0,0.0,0.0,0.0,0.0,0.0,0.0,4.413,4.413,4.413,4.413,4.4185,4.4185,4.3685,4.3558,4.3872,4.4329,4.4847,4.5428,4.6511,4.7324,4.7813,4.7991,4.8159,4.8306,4.8306,4.8306,4.8306,4.8306,4.8306,4.8306,4.8306,4.8306,4.8306,4.8306,4.8306,4.8306,4.8306,4.8306,4.8306,3.0321,3.0054,2.9825,2.9638,2.8958,2.8393,2.8231,2.7346,2.6569,2.5976,2.4972,0.0,0.0,0.0,0.0,0.0,0.0,0.0,0.0,0.0,2.6054,2.6428,2.6759,2.7034,2.7255,2.7647,2.7862,2.7891,0.0,0.0,0.0,0.0,0.0,0.0,0.0,0.0,0.0,0.0,2.6068,2.6286,2.7281,0.0,2.929,2.9961,3.0694,3.1399,3.1732,3.1754,3.167,3.1841,3.1996,0.0,0.0,3.2413,3.2398,0.0,3.2342,3.2287,0.0,0.0,0.0,3.4488,0.0,0.0,0.0,3.7519,3.7812,0.0,0.0,0.0,0.0,0.0,0.0,0.0,0.0,0.0,0.0,0.0,0.0,0.0,0.0,0.0,0.0,4.4587,4.4587,4.4587,4.4587,4.4587,4.4587,4.4253,4.4198,4.4504,4.4923,4.5411,4.597,4.6928,4.756,4.7893,4.813,4.8286,4.8306,4.8306,4.8306,4.8306,4.8306,4.8306,4.8306,4.8306,4.8306,4.8306,4.8306,4.8306,4.8306,4.8306,4.8306,4.8306,2.8182,2.7867,2.7547,2.7474,2.6726,2.6115,2.6054,2.5214,2.4438,2.4231,0.0,0.0,0.0,0.0,0.0,0.0,0.0,0.0,0.0,0.0,2.5007,2.5508,2.596,2.6297,2.6525,2.663,2.6683,2.6884,0.0,0.0,0.0,0.0,0.0,0.0,0.0,0.0,0.0,0.0,0.0,2.5605,0.0,2.706,2.8145,2.8941,2.9759,3.0541,3.1228,3.1482,3.1539,3.1883,0.0,3.2247,3.2468,3.2617,0.0,0.0,0.0,0.0,0.0,0.0,0.0,0.0,0.0,3.7476,0.0,0.0,0.0,0.0,0.0,0.0,0.0,0.0,0.0,0.0,0.0,0.0,0.0,0.0,0.0,0.0,0.0,0.0,0.0,4.4587,4.4587,4.4587,4.4587,4.4587,4.4587,4.4587,4.4737,4.4923,4.5336,4.5786,4.6332,4.6898,4.7371,4.777,4.805,4.8208,4.8267,4.8306,4.8306,4.8306,4.8306,4.8306,4.8306,4.8306,4.8306,4.8306,4.8306,4.8306,4.8306,4.8306,4.8306,4.8306,2.5695,2.5906,2.5782,2.5456,2.4919,2.4338,2.4091,2.3392,2.2751,0.0,0.0,0.0,0.0,0.0,0.0,0.0,0.0,0.0,2.3195,0.0,0.0,2.4624,2.537,2.5839,2.6002,2.6244,2.6351,2.6404,2.6404,0.0,0.0,0.0,0.0,0.0,2.555,0.0,0.0,0.0,2.4948,0.0,2.5272,2.6245,0.0,2.8612,2.9496,3.0458,3.1243,3.1482,3.1539,0.0,3.1996,3.2247,0.0,3.2687,0.0,0.0,0.0,0.0,0.0,0.0,0.0,0.0,3.683,0.0,0.0,0.0,0.0,0.0,0.0,0.0,0.0,0.0,0.0,0.0,0.0,0.0,0.0,0.0,0.0,0.0,0.0,0.0,0.0,0.0,4.4587,4.4587,4.4587,4.4587,4.4587,4.4587,4.4682,4.4831,4.5086,4.5477,4.6038,4.6537,4.7017,4.7554,4.787,4.809,4.8226,4.8286,4.8306,4.8306,4.8306,4.8306,4.8306,4.8306,4.8306,4.8306,4.8306,4.8306,4.8306,4.8306,4.8306,4.8306,2.3727,2.3815,2.3629,2.3493,2.2946,2.2563,2.2375,2.182,0.0,0.0,0.0,0.0,0.0,0.0,0.0,0.0,0.0,2.1353,0.0,0.0,0.0,0.0,2.4266,0.0,2.4978,2.5077,2.5245,2.5536,2.5536,0.0,0.0,0.0,0.0,0.0,2.4878,0.0,2.4536,0.0,0.0,0.0,0.0,0.0,0.0,2.8124,2.9576,3.0906,3.1377,3.1482,3.1539,0.0,3.2038,0.0,0.0,0.0,0.0,0.0,0.0,0.0,0.0,0.0,0.0,0.0,0.0,0.0,0.0,0.0,3.9556,0.0,0.0,0.0,0.0,0.0,0.0,0.0,0.0,0.0,0.0,0.0,0.0,0.0,0.0,0.0,0.0,0.0,0.0,0.0,0.0,4.4587,4.4587,4.4587,4.4682,4.4793,4.4978,4.5283,4.5786,4.62,4.6695,4.7258,4.7639,4.7947,4.8187,4.8286,4.8306,4.8306,4.8306,4.8306,4.8306,4.8306,4.8306,4.8306,4.8306,4.8306,4.8306,4.8306,4.8306,4.8306,2.1631,0.0,0.0,2.1592,2.1175,2.088,2.0805,2.0355,0.0,0.0,0.0,0.0,1.9901,1.9846,0.0,0.0,0.0,2.0183,0.0,0.0,2.2175,0.0,0.0,0.0,0.0,2.4118,2.435,2.4765,2.4765,0.0,0.0,0.0,0.0,0.0,0.0,2.4073,2.3956,0.0,0.0,2.4051,2.4308,2.5215,2.6549,2.8167,2.9783,3.1219,3.1409,3.1467,3.1539,3.1826,3.2038,0.0,3.2413,0.0,0.0,0.0,0.0,0.0,3.3658,0.0,0.0,0.0,0.0,0.0,0.0,0.0,0.0,0.0,0.0,0.0,0.0,0.0,0.0,0.0,0.0,0.0,0.0,0.0,0.0,0.0,0.0,0.0,0.0,0.0,0.0,4.4587,4.4587,4.4587,4.4587,4.4587,4.4626,4.4737,4.4886,4.514,4.5494,4.5887,4.6411,4.7035,4.7468,4.7824,4.8148,4.8229,4.8306,4.8306,4.8306,4.8306,4.8306,4.8306,4.8306,4.8306,4.8306,4.8306,4.8306,4.8306,4.8306,4.8306,1.9023,1.9628,0.0,0.0,0.0,1.9539,1.9198,0.0,0.0,0.0,0.0,0.0,0.0,0.0,0.0,0.0,0.0,1.9726,2.0096,0.0,2.1628,0.0,0.0,2.328,0.0,0.0,2.393,2.4118,2.4118,0.0,0.0,0.0,0.0,0.0,0.0,2.3628,2.3628,2.3628,2.3876,2.4374,2.4606,2.5884,2.7783,0.0,3.0046,3.1029,3.1219,0.0,0.0,3.1727,3.1898,0.0,0.0,0.0,0.0,0.0,0.0,0.0,0.0,0.0,0.0,3.6623,0.0,0.0,0.0,0.0,4.007,0.0,0.0,0.0,0.0,0.0,0.0,0.0,0.0,0.0,0.0,0.0,0.0,0.0,0.0,0.0,0.0,0.0,0.0,4.4587,4.4587,4.4587,4.4587,4.4587,4.4587,4.4643,4.4737,4.494,4.523,4.558,4.6137,4.6842,4.7276,4.7663,4.7992,4.8229,4.8306,4.8306,4.8306,4.8306,4.8306,4.8306,4.8306,4.8306,4.8306,4.8306,4.8306,4.8306,4.8306,4.8306,1.7745,0.0,0.0,0.0,0.0,0.0,0.0,1.8114,0.0,0.0,0.0,0.0,0.0,0.0,1.8539,0.0,0.0,1.8942,1.9396,1.9922,0.0,0.0,0.0,2.2125,0.0,0.0,0.0,2.3628,2.3628,0.0,0.0,0.0,0.0,0.0,0.0,2.3258,0.0,0.0,0.0,0.0,0.0,2.6321,2.7287,0.0,0.0,3.0807,3.1161,3.1409,0.0,3.1727,3.1841,3.1898,3.2053,3.2247,3.2453,3.2578,3.3065,0.0,0.0,0.0,3.6466,3.6571,0.0,0.0,0.0,0.0,0.0,0.0,0.0,0.0,0.0,0.0,0.0,0.0,0.0,0.0,0.0,0.0,0.0,0.0,0.0,0.0,0.0,0.0,0.0,4.4587,4.4587,4.4587,0.0,4.4587,4.4587,4.4587,4.4626,4.4793,4.5086,4.5389,4.5938,4.6684,4.7143,4.7578,4.7992,4.8229,4.8306,4.8306,4.8306,4.8306,4.8306,4.8306,4.8306,4.8306,4.8306,4.8306,4.8306,4.8306,4.8306,4.8306,1.6376,0.0,0.0,0.0,0.0,0.0,0.0,0.0,0.0,0.0,1.7794,0.0,1.8056,0.0,1.8066,0.0,1.8212,1.8472,1.8942,1.933,0.0,2.0775,2.1008,0.0,0.0,0.0,0.0,0.0,2.3271,2.333,0.0,0.0,0.0,0.0,0.0,0.0,0.0,0.0,2.4217,0.0,0.0,2.6659,0.0,0.0,2.9407,3.0387,0.0,3.1234,3.1467,3.1597,3.167,3.1727,3.1769,3.194,3.2094,3.2302,3.2726,3.3171,3.324,3.4787,0.0,3.6413,3.7916,0.0,3.9573,0.0,0.0,0.0,0.0,0.0,0.0,0.0,0.0,0.0,0.0,0.0,0.0,4.4587,0.0,0.0,0.0,0.0,0.0,0.0,4.4587,4.4587,4.4587,4.4587,0.0,0.0,4.4587,4.4587,4.4587,4.4737,4.4978,4.5283,4.5786,4.6525,4.6972,4.7457,4.7933,4.8151,4.8286,4.8306,4.8306,4.8306,4.8306,4.8306,4.8306,4.8306,4.8306,4.8306,4.8306,4.8306,4.8489,4.8728,1.4974,1.4681,0.0,0.0,1.6114,0.0,0.0,0.0,1.6202,0.0,1.676,1.7038,1.7569,1.7706,1.7784,1.794,1.8144,0.0,1.8741,1.9054,0.0,0.0,2.088,2.1451,2.2359,0.0,0.0,0.0,2.3078,2.3078,2.3078,0.0,0.0,0.0,2.3103,0.0,2.4004,2.4054,2.4682,2.5686,2.643,2.693,2.7403,2.8157,2.898,2.9884,3.0568,3.0999,3.1351,3.1467,3.1482,3.1482,3.1482,3.1597,3.1841,3.2094,3.2492,3.2857,3.3187,3.4611,3.6045,3.6254,0.0,0.0,0.0,0.0,4.007,0.0,0.0,0.0,0.0,0.0,0.0,0.0,0.0,0.0,0.0,0.0,0.0,0.0,0.0,0.0,0.0,4.4587,4.4587,4.4587,4.4587,0.0,0.0,0.0,4.4587,4.4587,4.4587,4.4737,4.4978,4.523,4.5735,4.6398,4.6835,4.7327,4.7793,4.805,4.8208,4.8306,4.8306,4.8306,4.8306,4.8306,4.8306,4.8306,4.8306,4.8343,4.8361,4.8361,4.8857,4.9517,1.4114,1.3912,1.384,0.0,1.4553,1.484,0.0,0.0,0.0,0.0,1.6272,1.6621,1.7038,1.7392,1.7588,1.7784,1.793,0.0,0.0,0.0,0.0,1.9802,2.0172,2.0805,2.1851,2.2173,0.0,2.2969,2.3078,2.3078,2.3078,0.0,0.0,0.0,0.0,0.0,2.4054,2.4845,2.5598,2.6319,2.6471,2.6739,0.0,0.0,2.8624,2.9401,3.0447,3.0999,3.1351,3.1467,3.1482,3.1482,3.1482,3.1539,3.1655,3.194,3.2247,3.2563,3.2935,3.4413,3.5937,3.6201,3.7777,3.9276,0.0,0.0,0.0,0.0,0.0,0.0,0.0,0.0,0.0,0.0,0.0,0.0,0.0,0.0,0.0,0.0,0.0,0.0,4.4587,4.4587,4.4587,4.4587,4.4587,4.4587,0.0,0.0,0.0,4.4587,4.4587,4.4682,4.4831,4.514,4.5529,4.6087,4.6584,4.7089,4.7578,4.7811,4.8032,4.8226,4.8226,4.8247,4.8306,4.8306,4.8306,4.8306,4.8306,4.8691,4.926,4.926,4.9389,4.9646,1.3324,0.0,0.0,1.2973,0.0,0.0,1.4049,0.0,0.0,1.5125,1.548,0.0,1.6533,1.6968,1.7382,1.7638,1.7862,0.0,0.0,0.0,0.0,1.9539,1.9987,2.0677,2.1651,2.2111,0.0,2.2909,0.0,0.0,2.3078,0.0,0.0,0.0,0.0,2.4255,0.0,2.5611,2.6163,2.6533,2.6533,0.0,0.0,2.7776,2.8546,2.9449,3.0387,3.094,3.1234,3.1424,3.1482,3.1482,3.1482,3.1482,3.1597,3.1883,3.2191,3.257,3.3224,3.458,3.5947,3.6573,3.8007,3.9259,3.952,3.9884,4.007,0.0,0.0,0.0,0.0,0.0,0.0,0.0,0.0,0.0,0.0,0.0,0.0,0.0,0.0,0.0,4.4587,4.4587,4.4587,4.4587,4.4587,4.4587,0.0,0.0,0.0,4.4587,4.4587,4.4682,4.4776,4.5032,4.5336,4.5837,4.62,4.6678,4.7258,4.7475,4.777,4.8148,4.8187,4.8265,4.8306,4.8306,4.8306,4.8343,4.8728,4.9169,4.9664,5.038,5.0637,5.0692,0.0,0.0,0.0,0.0,0.0,0.0,0.0,1.355,0.0,1.4129,0.0,1.518,1.6026,1.6533,1.7038,1.7569,0.0,1.8076,1.8269,1.8414,1.8808,1.9473,1.9987,2.0688,2.1588,2.2099,0.0,0.0,0.0,0.0,0.0,0.0,0.0,0.0,0.0,0.0,0.0,2.6251,2.6533,0.0,2.6521,2.6863,2.7335,2.7842,2.8675,2.9685,3.0387,3.0821,3.1132,3.1424,3.1482,3.1482,3.1482,3.1482,3.1597,3.1883,3.2252,3.2715,3.3803,3.4967,3.6156,3.7112,3.8286,3.9276,3.9484,3.9849,4.007,4.007,4.007,4.0527,0.0,0.0,0.0,0.0,0.0,0.0,0.0,0.0,0.0,0.0,0.0,0.0,0.0,4.4587,4.4587,4.4587,4.4587,4.4587,0.0,0.0,0.0,4.4587,4.4587,0.0,4.4776,0.0,4.5177,4.5529,4.5786,4.6217,4.6817,4.708,4.7475,4.7951,4.809,4.8208,4.8306,4.8306,4.8379,4.8545,4.9297,4.9719,5.0068,5.1463,5.2068,5.216,0.0,0.0,0.0,0.0,0.0,1.2378,1.2526,1.2966,1.3339,1.3411,1.3985,1.4617,1.5108,1.6035,1.6811,1.7235,1.7725,0.0,0.0,0.0,0.0,1.8942,1.9473,2.0118,2.1031,2.1639,2.2211,0.0,0.0,0.0,0.0,0.0,0.0,0.0,0.0,0.0,2.6382,2.6483,0.0,2.6533,2.6589,2.693,2.7403,2.8091,2.8917,2.9685,3.0507,3.0999,3.1292,3.1482,3.1482,3.1482,3.1482,3.1482,3.1597,3.1883,3.249,3.3203,3.3888,3.5276,3.667,3.7514,3.8463,3.9329,3.9729,3.9986,4.007,4.007,4.007,4.0527,4.2016,0.0,0.0,0.0,0.0,0.0,0.0,0.0,0.0,0.0,0.0,0.0,0.0,0.0,0.0,0.0,0.0,0.0,0.0,0.0,0.0,0.0,4.4587,0.0,0.0,0.0,4.494,4.514,4.5389,4.5786,4.6315,4.6619,4.7098,4.7741,4.7829,4.8014,4.8306,4.8306,4.8728,4.937,4.9517,5.0398,5.161,5.1885,5.2417,5.3004,0.0,0.0,0.0,0.0,0.0,0.0,0.0,1.3376,0.0,1.3089,1.3557,1.4201,1.4982,1.5895,1.6673,1.7314,1.7735,1.8008,1.8008,1.8409,1.8813,1.9165,1.9939,0.0,2.1674,2.2309,2.2967,2.3526,0.0,0.0,0.0,0.0,0.0,0.0,0.0,2.6201,0.0,0.0,0.0,2.6533,2.6658,2.7053,2.7656,2.8287,2.9107,3.0068,3.0568,3.1058,3.1409,3.1467,3.1482,3.1482,3.1482,3.1482,3.1657,3.2291,3.284,3.351,3.4851,3.5868,3.6853,3.8019,3.8743,3.9312,3.9781,3.9986,4.007,4.007,4.007,4.0527,4.2016,4.3538,0.0,0.0,0.0,0.0,0.0,0.0,0.0,0.0,0.0,0.0,0.0,0.0,0.0,0.0,0.0,0.0,0.0,0.0,0.0,0.0,0.0,0.0,0.0,0.0,0.0,4.4886,4.5032,4.5389,4.5988,4.6284,4.6806,4.7597,4.7728,4.7995,4.8343,4.8783,4.9462,5.0251,5.0674,5.1316,5.205,5.2472,5.2876,5.3206,0.0,1.2685,0.0,0.0,1.3267,0.0,1.3581,1.3981,1.3966,1.3234,1.3615,1.4278,1.5283,1.6137,1.6926,1.7656,1.8074,1.8281,1.8281,1.8724,1.9123,1.9565,2.0407,2.1361,2.2332,2.2989,2.367,0.0,0.0,0.0,0.0,0.0,0.0,0.0,0.0,0.0,0.0,0.0,2.6816,2.6886,2.7081,2.7618,2.8212,2.8847,2.975,3.0776,3.117,3.159,3.1958,3.1958,3.1854,3.1764,3.1898,3.1958,3.2107,3.2927,3.3345,3.39,3.5685,3.6443,3.7068,3.8492,3.9007,3.9312,3.9833,4.0037,4.007,4.007,4.0324,4.0899,4.2083,4.3538,0.0,0.0,0.0,0.0,0.0,0.0,0.0,0.0,0.0,0.0,0.0,0.0,0.0,0.0,0.0,0.0,0.0,0.0,0.0,0.0,0.0,4.4587,4.4587,0.0,4.4626,0.0,4.4737,4.5086,4.5735,4.5988,4.6602,4.7468,4.7868,4.8338,4.8893,4.9554,5.0325,5.1114,5.1738,5.2087,5.2325,5.2968,5.3206,5.3206,0.0,0.0,0.0,0.0,0.0,0.0,1.3824,1.4209,1.4343,1.4144,1.4742,1.541,1.5859,1.6931,1.7842,1.8285,1.887,1.917,1.917,1.9209,1.9446,1.9827,2.0267,2.0988,2.2114,2.2865,2.3537,0.0,0.0,0.0,0.0,0.0,0.0,0.0,0.0,0.0,0.0,2.7733,2.7946,2.8019,2.8595,2.9008,2.9472,3.0673,3.148,3.2089,3.2827,3.3136,3.3305,3.3305,3.2916,3.2527,3.3125,3.3305,3.3381,3.3547,3.4045,3.4789,3.5714,3.6495,3.7456,3.8662,3.9115,3.9365,3.9969,4.007,4.007,4.007,4.1153,4.2134,4.2252,4.3538,4.4587,0.0,0.0,0.0,0.0,0.0,0.0,0.0,0.0,0.0,0.0,0.0,0.0,0.0,0.0,0.0,0.0,0.0,0.0,4.4587,0.0,4.4587,4.4587,4.4587,4.4643,4.4626,4.4626,4.4886,4.5441,4.5735,4.6363,4.7356,4.8356,4.9482,5.0582,5.0655,5.1151,5.1885,5.1958,5.2454,5.3115,5.3188,5.3206,5.3206,0.0,0.0,0.0,0.0,0.0,0.0,0.0,1.5893,1.6453,1.6445,1.6084,1.6125,1.6884,1.7561,1.8165,1.8701,1.9214,1.9495,1.9495,1.9972,2.0353,2.0657,2.1408,2.2204,2.3153,2.391,2.4618,0.0,0.0,0.0,0.0,0.0,0.0,0.0,0.0,2.777,2.7795,2.8009,2.817,2.8303,2.8821,2.9447,3.0144,3.1054,3.186,3.2596,3.3143,3.3391,3.3559,3.3948,3.3649,3.3155,3.341,3.3499,3.3636,3.4119,3.4482,3.497,3.606,3.6794,3.7476,3.8567,3.9061,3.9365,3.9969,4.007,4.007,4.007,4.1255,4.2286,4.2286,4.3538,4.4587,0.0,0.0,0.0,0.0,0.0,0.0,0.0,0.0,0.0,0.0,0.0,0.0,0.0,0.0,0.0,0.0,0.0,0.0,4.4587,0.0,4.4587,4.4587,4.4587,4.4587,4.4587,4.4587,4.4831,4.53,4.6083,4.7378,4.8999,4.9671,5.0542,5.1518,5.1518,5.1995,5.2729,5.2729,5.2931,5.3206,5.3206,5.3206,5.3206,1.3541,0.0,1.433,0.0,1.5248,1.5982,1.6304,1.7204,1.8014,1.8247,1.763,1.7372,1.7993,1.8449,1.8826,1.938,1.9742,2.0038,2.0038,2.0785,2.1342,2.1628,2.2456,0.0,2.4105,2.4731,2.5455,2.6202,2.6564,0.0,0.0,0.0,0.0,0.0,2.8097,2.8348,2.836,2.8524,2.8747,2.8944,2.9396,3.0103,3.1019,3.18,3.2614,3.3387,3.3784,3.4035,3.4158,3.4622,3.4472,3.4083,3.4083,3.4083,3.4173,3.4748,3.4946,3.5178,3.6338,3.6892,3.7401,3.8511,3.9007,3.9365,3.9969,4.007,4.0138,4.0358,4.1407,4.2354,4.2574,4.369,4.4587,4.4587,0.0,0.0,0.0,0.0,0.0,0.0,0.0,4.4587,4.4587,0.0,0.0,0.0,0.0,0.0,0.0,0.0,0.0,0.0,0.0,0.0,0.0,4.4587,4.4587,4.4587,4.4807,4.5099,4.5591,4.6934,4.8564,5.0344,5.0721,5.1449,5.2302,5.2344,5.2692,5.3206,5.3206,5.3206,5.3206,5.3206,5.3206,5.3206,1.4384,1.4734,1.5159,1.5394,1.5974,1.6558,1.696,1.7764,1.8425,1.8922,1.9311,1.946,1.9292,1.9608,2.001,2.0255,2.0654,2.0964,2.1195,2.1568,2.2101,0.0,0.0,2.3717,2.4636,2.5087,2.5849,2.6959,0.0,0.0,2.8084,0.0,2.8084,2.8122,2.8674,2.8925,2.895,2.9528,2.9921,3.0139,3.0735,3.1394,3.2173,3.3353,3.4153,3.475,3.5279,3.5474,3.5489,3.5489,3.5489,3.5489,3.5489,3.5489,3.5489,3.5489,3.5489,3.5619,3.6304,3.6693,3.7191,3.8495,3.9007,3.9365,3.9969,4.007,4.029,4.1035,4.1779,4.2523,4.3267,4.4045,4.4587,4.4587,0.0,0.0,0.0,0.0,0.0,0.0,4.4587,4.4587,4.4587,0.0,0.0,0.0,0.0,0.0,0.0,0.0,0.0,4.4587,4.4587,0.0,4.4587,4.4587,4.4587,4.4587,4.5331,4.5881,4.6347,4.8219,4.9727,5.0926,5.1365,5.2126,5.298,5.3146,5.3206,5.3206,5.3206,5.3206,5.3206,5.3206,5.3206,5.3206,1.4915,1.5492,1.5989,1.6057,1.696,1.7772,1.8095,1.8895,1.9539,1.9863,2.0108,2.0255,2.0167,2.0177,2.0264,0.0,2.0896,2.1282,0.0,2.2252,2.2852,2.3519,2.4009,2.4667,2.5612,2.6081,2.6709,2.753,0.0,0.0,0.0,2.8486,2.8662,2.8687,2.9264,2.9515,2.9528,2.9716,3.0011,3.0368,3.0872,3.1676,3.2618,3.3589,3.437,3.4868,3.5359,3.5504,3.5504,3.5504,3.5504,3.5504,3.5504,3.5504,3.5504,3.5504,3.5504,3.5634,3.6304,3.6693,3.7191,3.8495,3.9007,3.9365,3.9969,4.0476,4.0916,4.1153,4.2202,4.3132,4.3369,4.4062,4.4587,4.4587,4.4587,0.0,0.0,0.0,0.0,0.0,0.0,4.4587,0.0,4.4587,0.0,0.0,0.0,0.0,0.0,0.0,0.0,0.0,4.4587,0.0,4.5331,4.5348,4.5585,4.6092,4.6329,4.6975,4.8006,4.8924,5.0128,5.1538,5.1981,5.2462,5.2999,5.3146,5.3206,5.3206,5.3206,5.3206,5.3206,5.3206,5.3206,5.3206,1.5937,1.6691,1.7363,1.7605,1.8434,1.9263,1.9507,2.0074,2.0566,2.0726,2.0975,2.1134,2.1214,2.1134,0.0,2.0761,2.1118,2.1589,2.2035,2.294,2.3862,2.4538,2.514,2.59,2.6749,0.0,0.0,2.8176,2.855,2.8737,2.875,2.9089,2.9252,2.9264,2.9628,2.9792,2.9792,2.9792,3.0011,3.0457,3.1258,3.2159,3.3221,3.4355,3.5165,3.5672,3.6089,3.6222,3.6222,3.6222,3.6222,3.6222,3.6222,3.6222,3.6133,3.5654,3.5504,3.5634,3.6304,3.6693,3.7191,3.8495,3.9007,3.9432,4.0323,4.0865,4.1373,4.1914,4.2777,4.3504,4.3792,4.4248,4.4587,4.4587,4.4587,4.4587,4.4587,0.0,0.0,0.0,0.0,0.0,0.0,4.4587,0.0,0.0,0.0,0.0,0.0,0.0,0.0,4.4993,4.4993,0.0,4.6109,4.6109,4.6346,4.6786,4.7115,4.7919,4.9103,4.9538,5.0418,5.1551,5.209,5.2499,5.285,5.3103,5.3206,5.3206,5.3206,5.3206,5.3206,5.3206,5.3206,5.3206,1.7494,1.837,1.9153,0.0,2.0241,0.0,2.0941,2.1265,2.1505,2.1505,2.1783,2.1967,2.2205,2.2421,2.2161,2.1221,0.0,0.0,0.0,2.3818,2.4906,2.5639,2.6548,2.7273,2.7841,2.7853,2.8188,2.8988,2.9528,2.9792,2.9792,2.9792,2.9817,2.9854,2.9854,2.9867,2.9905,2.9905,3.0112,3.0599,3.1819,3.288,3.3987,3.5424,3.6387,3.6965,3.7282,3.7404,3.7404,3.7404,3.7404,3.7404,3.7404,3.7404,3.718,3.5983,3.5639,3.5754,3.6442,3.6847,3.7333,3.8641,3.9209,3.9751,4.0998,4.1322,4.1745,4.3132,4.3453,4.3724,4.4451,4.4587,4.4587,4.4587,4.4587,4.4587,4.4587,0.0,0.0,0.0,0.0,0.0,0.0,4.4587,4.4587,0.0,0.0,0.0,0.0,0.0,4.4976,4.5686,4.5754,4.6126,4.6853,4.687,4.6887,4.6955,4.7793,4.8609,4.9547,5.0114,5.0602,5.1035,5.1831,5.2343,5.2635,5.306,5.3206,5.3206,5.3206,5.3206,5.3206,5.3206,5.3206,5.3206,0.0,0.0,1.9911,2.0072,2.0745,2.1329,2.1339,2.1607,2.1792,2.1792,2.1885,2.1967,2.2205,2.2666,2.306,2.3181,2.3477,2.3859,2.4459,2.5417,2.6182,2.6781,2.7348,2.7916,2.8637,2.865,2.8938,2.9591,2.9729,2.9792,2.9792,2.9792,3.0018,3.0419,3.0419,3.0645,3.1009,3.1009,3.1331,3.1992,3.2724,3.3764,3.4913,3.5885,3.6585,3.7159,3.7351,3.7404,3.7404,3.7404,3.7404,3.7404,3.7404,3.7404,3.7345,3.7045,3.6956,3.7091,3.7835,3.8273,3.8811,4.0063,4.0973,4.1637,4.1999,4.2489,4.2997,4.3352,4.3893,4.435,4.4536,4.4587,4.4587,4.4587,4.4587,4.4587,4.4587,4.4587,0.0,0.0,4.4587,4.4587,4.4587,4.4587,4.4587,0.0,0.0,0.0,0.0,4.5432,4.5517,4.5703,4.6244,4.6887,4.7648,4.7648,4.7936,4.8477,4.8707,4.9059,4.9488,4.9884,5.0418,5.121,5.1817,5.2315,5.2761,5.306,5.3206,5.3206,5.3206,5.3206,5.3206,5.3206,5.3206,5.3206,1.9755,2.0533,2.1225,2.1407,2.1836,2.2262,2.2262,2.2357,2.2461,2.263,2.263,2.28,2.3378,2.394,2.4587,2.533,2.5001,2.4971,2.5504,2.6506,2.726,2.7726,2.8249,2.8761,2.9315,2.9327,2.9478,2.9792,2.9792,2.993,3.0168,3.0168,3.0457,3.0972,3.0972,3.1122,3.1386,3.1562,3.1898,3.2499,3.3594,3.4621,3.5709,3.6836,3.7621,3.8121,3.8262,3.8332,3.8332,3.8332,3.8332,3.8332,3.8332,3.8332,3.8332,3.8332,3.7898,3.7541,3.831,3.8753,3.9361,4.0743,4.1727,4.2388,4.2726,4.3115,4.3521,4.3876,4.4282,4.4587,4.4587,4.4587,4.4587,4.4587,4.4587,4.4587,4.4587,4.4587,0.0,4.4587,4.4587,4.4587,4.4587,4.4587,4.4587,4.4587,0.0,0.0,4.5669,4.6024,4.6363,4.6701,4.7107,4.7665,4.8409,4.8409,4.8612,4.9001,4.9001,4.9124,4.935,4.9808,5.0345,5.1052,5.1799,5.2361,5.2743,5.306,5.3206,5.3206,5.3206,5.3206,5.3206,5.3206,5.3206,5.3261,2.1445,2.1989,2.253,2.2803,2.2969,2.3135,2.3135,2.3135,2.3232,2.3503,2.3503,2.3927,2.4775,2.5285,2.603,2.7185,2.6472,2.612,2.6506,2.7483,2.8212,2.8507,2.9105,2.9599,2.9792,2.9792,2.9829,2.9917,2.9917,3.0193,3.0733,3.0733,3.1009,3.1512,3.1512,3.1562,3.165,3.1896,3.2316,3.2839,3.4431,3.5562,3.6524,3.7999,3.8738,3.9177,3.9337,3.9424,3.9424,3.9424,3.9424,3.9424,3.9424,3.9424,3.9424,3.9424,3.8601,3.7856,3.8534,3.9113,3.9929,4.1378,4.2189,4.2794,4.3453,4.3589,4.3775,4.4451,4.4587,4.4587,4.4587,4.4587,4.4587,4.4587,4.4587,4.4587,4.4587,0.0,4.4587,4.4587,4.4587,4.4587,4.457,4.457,4.457,4.4514,4.4632,4.5003,4.5764,4.6566,4.731,4.8054,4.8088,4.8376,4.9001,4.9001,4.9001,4.9001,4.9001,4.9063,4.929,4.9832,5.0401,5.091,5.1799,5.2343,5.2654,5.306,5.3206,5.3206,5.3206,5.3206,5.3206,5.3206,5.3298,5.3482,2.2008,2.2353,2.2706,2.2794,2.2969,2.3135,2.3135,2.3135,2.3232,2.3503,2.3667,2.4013,2.4861,2.5611,2.6434,2.7348,2.7921,2.83,2.8391,2.8856,2.9217,2.9217,2.9561,2.9792,2.9792,2.9792,3.0018,3.0482,3.0482,3.0758,3.1273,3.1273,3.1562,3.2089,3.2089,3.2353,3.2817,3.306,3.3637,3.4452,3.5265,3.6406,3.7667,3.8248,3.89,3.9337,3.9424,3.9424,3.9424,3.9424,3.9424,3.9424,3.9424,3.9424,3.9424,3.9424,3.9275,3.9238,3.9771,4.0962,4.2245,4.3053,4.3655,4.4047,4.4367,4.4401,4.4434,4.4553,4.4587,4.4587,4.4587,4.4587,4.4587,4.4587,4.4587,4.4587,4.4587,0.0,4.4587,4.4587,4.4587,4.4514,4.4367,4.4367,4.431,4.4155,4.4841,4.5572,4.6372,4.7267,4.8088,4.8815,4.8832,4.8883,4.9001,4.9001,4.9001,4.9001,4.9001,4.9185,4.9488,4.989,5.0495,5.1158,5.1897,5.2408,5.2806,5.306,5.3206,5.3206,5.3206,5.3206,5.3206,5.3206,5.3628,5.4234,2.2451,2.2715,2.2969,2.2969,2.3057,2.3135,2.3135,2.3232,2.3406,2.3851,2.4186,2.4775,2.5695,2.6434,2.7267,2.8155,2.8791,2.9197,2.93,2.9534,2.9611,2.9611,2.9702,2.993,3.0231,3.0231,3.0495,3.1035,3.1035,3.1311,3.1838,3.1838,3.2139,3.2679,3.2679,3.283,3.3154,3.3569,3.4147,3.4799,3.591,3.6936,3.7962,3.8575,3.9031,3.9424,3.9424,3.9424,3.9424,3.9424,3.9424,3.9424,3.9424,3.9424,3.9424,3.9424,3.961,3.995,4.037,4.1475,4.2569,4.3157,4.3772,4.427,4.4384,4.4514,4.4587,4.4587,4.4587,4.4587,4.4587,4.4587,4.4587,4.4587,4.4587,0.0,0.0,4.4587,4.4587,4.4587,4.4497,4.4384,4.4212,4.4064,4.4131,4.443,4.4866,4.5654,4.6932,4.7457,4.8118,4.8984,4.9001,4.9001,4.9001,4.9001,4.9001,4.9001,4.9001,4.9185,4.953,4.9907,5.0439,5.1158,5.1835,5.2379,5.2698,5.2999,5.3146,5.3206,5.3206,5.3463,5.3849,5.3849,5.4363,5.5097,2.3162,2.326,2.3437,2.3437,2.3526,2.3526,2.3703,2.3889,2.4152,2.4687,2.5186,2.5861,2.6864,2.7624,2.8361,2.9088,2.9566,2.9895,3.0168,3.0168,3.0055,2.9804,2.9917,3.0244,3.0783,3.0796,3.1047,3.1587,3.1587,3.1863,3.2416,3.2416,3.2654,3.3081,3.3081,3.3154,3.324,3.3836,3.4397,3.5032,3.6373,3.7337,3.8127,3.8797,3.9192,3.9424,3.9424,3.9424,3.9424,3.9424,3.9424,3.9424,3.9424,3.9424,3.9424,3.9424,3.9753,4.0161,4.0646,4.1358,4.219,4.2851,4.3476,4.3981,4.4196,4.4384,4.4514,4.457,4.4587,4.4587,4.4587,4.4587,4.4587,4.4587,0.0,0.0,0.0,4.4587,4.457,4.4514,4.4384,4.4196,4.3981,4.3713,4.3833,4.441,4.4776,4.5668,4.7204,4.7687,4.8225,4.8984,4.9001,4.9001,4.9001,4.9001,4.9001,4.9001,4.9001,4.9185,4.9411,4.9832,5.0384,5.0946,5.1687,5.2239,5.259,5.2893,5.3103,5.3225,5.3427,5.3867,5.4418,5.4601,5.5188,5.5959,2.4248,2.4316,2.4418,2.4611,2.4703,2.4886,2.533,2.5421,2.5692,2.6409,2.6931,2.7447,2.8143,2.9098,2.9786,3.0275,3.0713,3.1041,3.1273,3.1273,3.0834,2.9829,3.0281,3.0796,3.1323,3.1336,3.1599,3.2152,3.2152,3.2453,3.3018,3.3018,3.3031,3.3081,3.3081,3.324,3.3398,3.3907,3.4716,3.5669,3.6531,3.7491,3.8516,3.8958,3.9192,3.9424,3.9424,3.9424,3.9424,3.9424,3.9424,3.9424,3.9424,3.9424,3.9424,3.9424,3.9553,3.9824,4.0355,4.0972,4.1573,4.2396,4.3052,4.3552,4.4039,4.4196,4.4367,4.457,4.4587,4.4587,4.4587,4.4587,4.4587,4.4587,0.0,0.0,4.4587,4.4587,4.4514,4.4367,4.4212,4.3923,4.3492,4.3096,4.3144,4.3718,4.4673,4.5777,4.6858,4.8065,4.8781,4.9001,4.9001,4.9001,4.9001,4.9001,4.9001,4.9001,4.9001,4.9063,4.9229,4.9715,5.0176,5.0694,5.15,5.206,5.2454,5.285,5.3103,5.328,5.4014,5.4344,5.4491,5.5225,5.6014,5.673,2.4579,2.4608,2.4792,2.525,2.5442,2.5614,2.5955,2.6404,2.685,2.7304,2.7995,2.8689,2.9215,2.9978,3.0575,3.0823,3.1071,3.1317,3.1386,3.1386,3.121,3.0796,3.0984,3.1348,3.1888,3.1901,3.2177,3.2754,3.2754,3.2867,3.3081,3.3081,3.3081,3.3081,3.3081,3.324,3.3484,3.4147,3.495,3.583,3.7014,3.7886,3.859,3.9119,3.9337,3.9424,3.9424,3.9424,3.9424,3.9424,3.9424,3.9424,3.9424,3.9424,3.9424,3.9424,3.9409,3.9625,3.9879,4.0509,4.1122,4.1835,4.2539,4.3157,4.3654,4.4064,4.4367,4.457,4.4587,4.4587,4.4587,4.4587,4.4587,4.4587,0.0,4.4587,4.4587,4.4497,4.4367,4.4196,4.3848,4.3492,4.2974,4.2927,4.325,4.384,4.4932,4.611,4.7325,4.8349,4.8956,4.9001,4.9001,4.9001,4.9001,4.9001,4.9001,4.9001,4.9001,4.9063,4.9229,4.9513,4.9924,5.0509,5.1035,5.1683,5.2297,5.2635,5.2955,5.3298,5.4087,5.4693,5.5244,5.6051,5.6859,5.7538,2.5365,2.5571,2.5839,2.6391,2.6676,2.704,2.7471,2.792,2.8366,2.882,2.9422,3.004,3.0469,3.0992,3.1425,3.1605,3.1843,3.1913,3.1913,3.1913,3.1838,3.165,3.165,3.1913,3.2466,3.2478,3.2679,3.3081,3.3081,3.3081,3.3081,3.3081,3.3081,3.3081,3.3081,3.3326,3.3654,3.4384,3.5196,3.6136,3.7414,3.8202,3.8738,3.9192,3.9424,3.9424,3.9424,3.9424,3.9424,3.9424,3.9424,3.9424,3.9424,3.9424,3.9424,3.9424,3.9424,3.9424,3.9553,4.0036,4.0593,4.1189,4.19,4.2585,4.3141,4.3638,4.4006,4.427,4.4327,4.4384,4.4514,4.4514,4.4514,4.457,4.457,4.4514,4.4514,4.431,4.408,4.3923,4.3432,4.301,4.2719,4.2796,4.3282,4.4135,4.5194,4.6385,4.7852,4.861,4.9001,4.9001,4.9001,4.9001,4.9001,4.9001,4.9001,4.9001,4.9001,4.9063,4.9168,4.9367,4.9767,5.0285,5.0839,5.15,5.2137,5.2499,5.2868,5.3316,5.4363,5.5097,5.5721,5.6785,5.7538,5.7997,2.6863,2.7315,2.7778,2.8351,2.8538,2.9095,3.0034,3.0216,3.0487,3.1205,3.146,3.1713,3.1989,3.2438,3.2711,3.2711,3.2982,3.3081,3.3081,3.3081,3.2817,3.224,3.2227,3.2491,3.3068,3.3081,3.3081,3.3081,3.3081,3.3081,3.3081,3.3081,3.3081,3.3081,3.3081,3.3496,3.416,3.4564,3.5588,3.6936,3.7644,3.8412,3.9104,3.9337,3.9424,3.9424,3.9424,3.9424,3.9424,3.9424,3.9424,3.9424,3.9424,3.9424,3.9424,3.9424,3.9424,3.9424,3.9424,3.9553,3.9895,4.0593,4.1189,4.1769,4.2459,4.2851,4.3235,4.3713,4.3831,4.3889,4.4236,4.431,4.4367,4.457,4.444,4.431,4.4293,4.4006,4.3713,4.3432,4.2912,4.2686,4.2887,4.2579,4.301,4.4606,4.5261,4.6452,4.837,4.8815,4.9001,4.9001,4.9001,4.9001,4.9001,4.9001,4.9001,4.9001,4.9001,4.9001,4.9001,4.9367,4.9649,4.9924,5.0839,5.15,5.206,5.2563,5.2974,5.3371,5.4968,5.5592,5.5776,5.7409,5.7997,5.7997,2.7861,2.8164,2.862,2.9474,2.984,3.0295,3.0859,3.1282,3.1548,3.1725,3.2176,3.2438,3.245,3.2797,3.2982,3.2982,3.3068,3.3081,3.3081,3.3081,3.3006,3.283,3.2817,3.2905,3.3081,3.3081,3.3081,3.3081,3.3081,3.3081,3.3081,3.3081,3.3081,3.3081,3.324,3.3569,3.416,3.5032,3.599,3.7014,3.7962,3.8649,3.9104,3.9337,3.9424,3.9424,3.9424,3.9424,3.9424,3.9424,3.9424,3.9424,3.9424,3.9424,3.9424,3.9424,3.9424,3.9424,3.9424,3.9409,3.9625,4.0231,4.0752,4.1358,4.2093,4.2539,4.2896,4.3383,4.3562,4.3697,4.3889,4.408,4.4138,4.408,4.4006,4.3889,4.3621,4.3323,4.2958,4.2648,4.259,4.2512,4.2344,4.3239,4.4032,4.4638,4.6228,4.7637,4.869,4.8877,4.9001,4.9001,4.9001,4.9001,4.9001,4.9001,4.9001,4.9001,4.9001,4.9001,4.9001,4.9168,4.9573,5.0062,5.0677,5.1398,5.2155,5.2499,5.285,5.3371,5.4968,5.5592,5.5776,5.7409,5.7997,5.7997,2.9002,2.9463,2.992,3.0656,3.1015,3.1282,3.1749,3.2089,3.2339,3.2438,3.2711,3.2896,3.2896,3.2982,3.3081,3.3081,3.3081,3.3081,3.3081,3.3081,3.3081,3.3081,3.3081,3.3081,3.3081,3.3081,3.3081,3.3081,3.3081,3.3081,3.3081,3.3154,3.324,3.324,3.3569,3.3992,3.4577,3.544,3.6373,3.7414,3.8202,3.8811,3.9265,3.9337,3.9424,3.9454,3.9709,3.9813,3.9843,4.0113,4.0187,4.0187,4.0187,4.0187,4.0187,4.0187,4.0187,4.0142,3.9873,3.9813,3.9811,3.9955,4.0285,4.0768,4.1374,4.1688,4.2013,4.2506,4.2756,4.3003,4.3323,4.3535,4.3611,4.3578,4.3459,4.3262,4.3064,4.2648,4.2318,4.2315,4.2212,4.2287,4.2636,4.3572,4.4582,4.5543,4.7126,4.8227,4.8769,4.8956,4.9001,4.9001,4.9001,4.9001,4.9001,4.9001,4.9001,4.9001,4.9001,4.9001,4.9001,4.9229,4.9615,5.0102,5.0731,5.1449,5.2232,5.2545,5.2893,5.3371,5.4968,5.5592,5.5776,5.7409,5.7997,5.7997,3.0216,3.0847,3.1472,3.1637,3.1901,3.2164,3.2711,3.2723,3.281,3.3068,3.3081,3.3081,3.3081,3.3081,3.3081,3.3081,3.3081,3.3081,3.3081,3.3081,3.3081,3.3081,3.3081,3.3081,3.3081,3.3081,3.3081,3.3081,3.3081,3.3081,3.3081,3.3313,3.3398,3.3484,3.3907,3.4494,3.5154,3.5843,3.678,3.7962,3.8352,3.89,3.9424,3.9484,3.9514,3.9589,4.0247,4.0487,4.0576,4.1175,4.1384,4.1384,4.1384,4.1384,4.1384,4.1384,4.1384,4.125,4.0651,4.0487,4.0396,3.9866,3.993,4.0127,4.0439,4.0631,4.0919,4.1456,4.1688,4.1933,4.2569,4.2805,4.2883,4.3125,4.2805,4.2556,4.254,4.2043,4.1814,4.2291,4.1945,4.213,4.3359,4.384,4.489,4.6984,4.7803,4.8373,4.8786,4.8956,4.9001,4.9001,4.9001,4.9001,4.9001,4.9001,4.9001,4.9001,4.9001,4.9001,4.9001,4.9367,4.975,5.0159,5.0875,5.1551,5.2203,5.2608,5.2955,5.3329,5.4968,5.5592,5.5776,5.7409,5.7997,5.7997,3.0937,3.1472,3.1989,3.2351,3.2537,3.2624,3.2982,3.2982,3.3068,3.3081,3.3081,3.3081,3.3081,3.3081,3.3081,3.3081,3.3081,3.3081,3.3081,3.3081,3.3081,3.3081,3.3081,3.3081,3.3081,3.3081,3.3081,3.3081,3.3081,3.3081,3.3081,3.3313,3.3471,3.3628,3.4301,3.4964,3.5642,3.6429,3.7275,3.8202,3.8575,3.9031,3.9484,3.9993,4.0187,4.0277,4.0935,4.1175,4.119,4.1324,4.1384,4.1384,4.1384,4.1384,4.1384,4.1384,4.1384,4.1354,4.1205,4.1175,4.101,4.0426,4.0261,4.0329,4.0268,4.0285,4.0493,4.1055,4.1323,4.1557,4.1933,4.2158,4.2238,4.2029,4.2264,4.2414,4.204,4.2179,4.237,4.2438,4.2729,4.31,4.3541,4.4757,4.6039,4.7253,4.7886,4.8373,4.8786,4.8956,4.9001,4.9001,4.9001,4.9001,4.9001,4.9001,4.9001,4.9001,4.9001,4.9001,4.9001,4.9367,4.975,5.0159,5.0768,5.1467,5.2162,5.2518,5.2806,5.3207,5.4906,5.5592,5.5776,5.7409,5.7997,5.7997,3.1825,3.2276,3.2624,3.281,3.2896,3.2896,3.3081,3.3081,3.3081,3.3081,3.3081,3.3081,3.3081,3.3081,3.3081,3.3081,3.3081,3.3081,3.3081,3.3081,3.3081,3.3081,3.3081,3.3081,3.3081,3.3081,3.3081,3.3081,3.3081,3.3081,3.3081,3.3398,3.3641,3.3894,3.4729,3.5372,3.6017,3.6822,3.7596,3.8381,3.8987,3.9506,3.9963,4.0621,4.0876,4.095,4.1609,4.2043,4.2312,4.2312,4.2312,4.2312,4.2312,4.2312,4.2312,4.2312,4.2312,4.2237,4.1938,4.1848,4.1698,4.1025,4.0876,4.068,3.9964,3.9809,3.9965,4.037,4.0593,4.0783,4.1142,4.1507,4.181,4.169,4.21,4.2255,4.2017,4.205,4.2239,4.2707,4.2924,4.3259,4.4018,4.5144,4.6198,4.7033,4.7671,4.8292,4.8769,4.8956,4.9001,4.9001,4.9001,4.9001,4.9001,4.9001,4.9001,4.9001,4.9001,4.9001,4.9001,4.9246,4.9573,5.0045,5.055,5.1262,5.2,5.2361,5.2698,5.3145,5.4906,5.5592,5.5776,5.7409,5.7997,5.7997,3.2537,3.2896,3.3081,3.3081,3.3081,3.3081,3.3081,3.3081,3.3081,3.3081,3.3081,3.3081,3.3081,3.3081,3.3081,3.3081,3.3081,3.3081,3.3081,3.3081,3.3081,3.3081,3.3081,3.3081,3.3081,3.3081,3.3081,3.3081,3.3081,3.3081,3.3081,3.3471,3.3894,3.416,3.5072,3.5777,3.648,3.7247,3.7997,3.8824,3.962,4.0188,4.0636,4.1294,4.1549,4.1639,4.2297,4.288,4.3329,4.3329,4.3329,4.3329,4.3329,4.3329,4.3329,4.3329,4.3329,4.321,4.2671,4.2521,4.2372,4.1713,4.1549,4.1235,4.0023,3.9753,3.9826,4.0028,4.0187,4.0401,4.0692,4.1168,4.1638,4.178,4.2061,4.2284,4.221,4.2108,4.2243,4.3092,4.3092,4.3457,4.4526,4.529,4.5985,4.6689,4.7455,4.8146,4.8707,4.8894,4.9001,4.9001,4.9001,4.9001,4.9001,4.9001,4.9001,4.9001,4.9001,4.9001,4.9001,4.9107,4.9453,4.9832,5.0363,5.0982,5.1701,5.2155,5.2608,5.3102,5.4906,5.5592,5.5776,5.7409,5.7997,5.7997,3.2636,3.2896,3.3081,3.3081,3.3081,3.3081,3.3081,3.3081,3.3081,3.3081,3.3081,3.3081,3.3081,3.3081,3.3081,3.3081,3.3081,3.3081,3.3081,3.3081,3.3081,3.3081,3.3081,3.3081,3.3081,3.3081,3.3081,3.3081,3.3081,3.3081,3.3081,3.3471,3.3979,3.4397,3.5304,3.6111,3.6929,3.7948,3.889,3.965,4.0374,4.0946,4.1324,4.1983,4.2222,4.2312,4.297,4.3254,4.3329,4.3329,4.3329,4.3329,4.3329,4.3329,4.3329,4.3329,4.3329,4.3314,4.3225,4.321,4.3045,4.2387,4.2222,4.2028,4.128,4.1115,4.119,4.1355,4.1445,4.1504,4.1665,4.1815,4.1817,4.1714,4.2168,4.2515,4.2376,4.2794,4.3262,4.3836,4.4144,4.4479,4.4799,4.5231,4.5801,4.6582,4.7286,4.7968,4.8483,4.8815,4.9001,4.9001,4.9001,4.9001,4.9001,4.9001,4.9001,4.9001,4.9001,4.9001,4.9001,4.9107,4.935,4.959,5.0171,5.0694,5.114,5.1897,5.2389,5.2844,5.4818,5.5592,5.5776,5.7409,5.7997,5.7997,3.2896,3.2982,3.3081,3.3081,3.3081,3.3081,3.3081,3.3081,3.3081,3.3081,3.3081,3.3081,3.3081,3.3081,3.3081,3.3081,3.3081,3.3206,3.352,3.3533,3.3671,3.3985,3.3997,3.3997,3.3997,3.3997,3.3997,3.3997,3.3382,3.3154,3.3326,3.3738,3.4399,3.5301,3.6198,3.7215,3.8286,3.9126,3.9804,4.0403,4.1207,4.1707,4.1998,4.2656,4.2895,4.294,4.3225,4.3329,4.3329,4.3329,4.3329,4.3329,4.3329,4.3329,4.3329,4.3329,4.3329,4.3329,4.3329,4.3329,4.3269,4.297,4.2895,4.2836,4.2536,4.2476,4.2267,4.1701,4.155,4.1535,4.1596,4.1972,4.2152,4.2091,4.2632,4.2974,4.2895,4.315,4.3423,4.3754,4.4205,4.4511,4.4723,4.5173,4.5817,4.6512,4.7286,4.7968,4.8483,4.8815,4.9001,4.9001,4.9001,4.9001,4.9001,4.9001,4.9001,4.9001,4.9001,4.9001,4.9001,4.9063,4.9185,4.935,4.9825,5.0307,5.0946,5.1601,5.2408,5.3436,5.4893,5.608,5.7024,5.774,5.7997,5.7997]},{"header":{"parameterUnit":"m.s-1","parameterCategory":1,"la1":30.6,"la2":28.766,"lo1":-90.7593,"lo2":-88.6598,"dy":0.0162,"dx":0.0183,"nx":116,"ny":114,"refTime":"2024-04-01T00:00:00:Z","depth":0,"parameterNumber":3,"parameterNumberName":"V-component_of_WINDS"},"data":[0.0,0.0,0.0,0.0,0.0,0.0,0.0,0.0,0.0,0.0,0.0,0.0,0.0,0.0,0.0,0.0,0.0,0.0,0.0,0.0,0.0,0.0,0.0,0.0,0.0,0.0,0.0,0.0,0.0,0.0,0.0,0.0,0.0,0.0,0.0,0.0,0.0,0.0,0.0,0.0,0.0,0.0,0.0,0.0,0.0,0.0,0.0,0.0,0.0,0.0,0.0,0.0,0.0,0.0,0.0,0.0,0.0,0.0,0.0,0.0,0.0,0.0,0.0,0.0,0.0,0.0,0.0,0.0,0.0,0.0,0.0,0.0,0.0,0.0,0.0,0.0,0.0,0.0,0.0,0.0,0.0,0.0,0.0,0.0,0.0,0.0,0.0,0.0,0.0,0.0,0.0,0.0,0.0,0.0,0.0,0.0,0.0,0.0,0.0,0.0,0.0,0.0,0.0,0.0,0.0,0.0,0.0,0.0,0.0,0.0,0.0,0.0,0.0,0.0,0.0,0.0,0.0,0.0,0.0,0.0,0.0,0.0,0.0,0.0,0.0,0.0,0.0,0.0,0.0,0.0,0.0,0.0,0.0,0.0,0.0,0.0,0.0,0.0,0.0,0.0,0.0,0.0,0.0,0.0,0.0,0.0,0.0,0.0,0.0,0.0,0.0,0.0,0.0,0.0,0.0,0.0,0.0,0.0,0.0,0.0,0.0,0.0,0.0,0.0,0.0,0.0,0.0,0.0,0.0,0.0,0.0,0.0,0.0,0.0,0.0,0.0,0.0,0.0,0.0,0.0,0.0,0.0,0.0,0.0,0.0,0.0,0.0,0.0,0.0,0.0,0.0,0.0,0.0,0.0,0.0,0.0,0.0,0.0,0.0,0.0,0.0,0.0,0.0,0.0,0.0,0.0,0.0,0.0,0.0,0.0,0.0,0.0,0.0,0.0,0.0,0.0,0.0,0.0,0.0,0.0,0.0,0.0,0.0,0.0,0.0,0.0,0.0,0.0,0.0,0.0,0.0,0.0,0.0,0.0,0.0,0.0,0.0,0.0,0.0,0.0,0.0,0.0,0.0,0.0,0.0,0.0,0.0,0.0,0.0,0.0,0.0,0.0,0.0,0.0,0.0,0.0,0.0,0.0,0.0,0.0,0.0,0.0,0.0,0.0,0.0,0.0,0.0,0.0,0.0,0.0,0.0,0.0,0.0,0.0,0.0,0.0,0.0,0.0,0.0,0.0,0.0,0.0,0.0,0.0,0.0,0.0,0.0,0.0,0.0,0.0,0.0,0.0,0.0,0.0,0.0,0.0,0.0,0.0,0.0,0.0,0.0,0.0,0.0,0.0,0.0,0.0,0.0,0.0,0.0,0.0,0.0,0.0,0.0,0.0,0.0,0.0,0.0,0.0,0.0,0.0,0.0,0.0,0.0,0.0,0.0,0.0,0.0,0.0,0.0,0.0,0.0,0.0,0.0,0.0,0.0,0.0,0.0,0.0,0.0,0.0,0.0,0.0,0.0,0.0,0.0,0.0,0.0,0.0,0.0,0.0,0.0,0.0,0.0,0.0,0.0,0.0,0.0,0.0,0.0,0.0,0.0,0.0,0.0,0.0,0.0,0.0,0.0,0.0,0.0,0.0,0.0,0.0,0.0,0.0,0.0,0.0,0.0,0.0,0.0,0.0,0.0,0.0,0.0,0.0,0.0,0.0,0.0,0.0,0.0,0.0,0.0,0.0,0.0,0.0,0.0,0.0,0.0,0.0,0.0,0.0,0.0,0.0,0.0,0.0,0.0,0.0,0.0,0.0,0.0,0.0,0.0,0.0,0.0,0.0,0.0,0.0,0.0,0.0,0.0,0.0,0.0,0.0,0.0,0.0,0.0,0.0,0.0,0.0,0.0,0.0,0.0,0.0,0.0,0.0,0.0,0.0,0.0,0.0,0.0,0.0,0.0,0.0,0.0,0.0,0.0,0.0,0.0,0.0,0.0,0.0,0.0,0.0,0.0,0.0,0.0,0.0,0.0,0.0,0.0,0.0,0.0,0.0,0.0,0.0,0.0,0.0,0.0,0.0,0.0,0.0,0.0,0.0,0.0,0.0,0.0,0.0,0.0,0.0,0.0,0.0,0.0,0.0,0.0,0.0,0.0,0.0,0.0,0.0,0.0,0.0,0.0,0.0,0.0,0.0,0.0,0.0,0.0,0.0,0.0,0.0,0.0,0.0,0.0,0.0,0.0,0.0,0.0,0.0,0.0,0.0,0.0,0.0,0.0,0.0,0.0,0.0,0.0,0.0,0.0,0.0,0.0,0.0,0.0,0.0,0.0,0.0,0.0,0.0,0.0,0.0,0.0,0.0,0.0,0.0,0.0,0.0,0.0,0.0,0.0,0.0,0.0,0.0,0.0,0.0,0.0,0.0,0.0,0.0,0.0,0.0,0.0,0.0,0.0,0.0,0.0,0.0,0.0,0.0,0.0,0.0,0.0,0.0,0.0,0.0,0.0,0.0,0.0,0.0,0.0,0.0,0.0,0.0,0.0,0.0,0.0,0.0,0.0,0.0,0.0,0.0,0.0,0.0,0.0,0.0,0.0,0.0,0.0,0.0,0.0,0.0,0.0,0.0,0.0,0.0,0.0,0.0,0.0,0.0,0.0,0.0,0.0,0.0,0.0,0.0,0.0,0.0,0.0,0.0,0.0,0.0,0.0,0.0,0.0,0.0,0.0,0.0,0.0,0.0,0.0,0.0,0.0,0.0,0.0,0.0,0.0,0.0,0.0,0.0,0.0,0.0,0.0,0.0,0.0,0.0,0.0,0.0,0.0,0.0,0.0,0.0,0.0,0.0,0.0,0.0,0.0,0.0,0.0,0.0,0.0,0.0,0.0,0.0,0.0,0.0,0.0,0.0,0.0,0.0,0.0,0.0,0.0,0.0,0.0,0.0,0.0,0.0,0.0,0.0,0.0,0.0,0.0,0.0,0.0,0.0,0.0,0.0,0.0,0.0,0.0,0.0,0.0,0.0,0.0,0.0,0.0,0.0,0.0,0.0,0.0,0.0,0.0,0.0,0.0,0.0,0.0,0.0,0.0,0.0,0.0,0.0,0.0,0.0,0.0,0.0,0.0,0.0,0.0,0.0,0.0,0.0,0.0,0.0,0.0,0.0,0.0,0.0,0.0,0.0,0.0,0.0,0.0,0.0,0.0,0.0,0.0,0.0,0.0,0.0,0.0,0.0,0.0,0.0,0.0,0.0,0.0,0.0,0.0,0.0,0.0,0.0,0.0,0.0,0.0,0.0,0.0,0.0,0.0,0.0,0.0,0.0,0.0,0.0,0.0,0.0,0.0,0.0,0.0,0.0,0.0,0.0,0.0,0.0,0.0,0.0,0.0,0.0,0.0,0.0,0.0,0.0,0.0,0.0,0.0,0.0,0.0,0.0,0.0,0.0,0.0,0.0,0.0,0.0,0.0,0.0,0.0,0.0,0.0,0.0,0.0,0.0,0.0,0.0,0.0,0.0,0.0,0.0,0.0,0.0,0.0,0.0,0.0,0.0,0.0,0.0,0.0,0.0,0.0,0.0,0.0,0.0,0.0,0.0,0.0,0.0,0.0,0.0,0.0,0.0,0.0,0.0,0.0,0.0,0.0,0.0,0.0,0.0,0.0,0.0,0.0,0.0,0.0,0.0,0.0,0.0,0.0,0.0,0.0,0.0,0.0,0.0,0.0,0.0,0.0,0.0,0.0,0.0,0.0,0.0,0.0,0.0,0.0,0.0,0.0,0.0,0.0,0.0,0.0,0.0,0.0,0.0,0.0,0.0,0.0,0.0,0.0,0.0,0.0,0.0,0.0,0.0,0.0,0.0,0.0,0.0,0.0,0.0,0.0,0.0,0.0,0.0,0.0,0.0,0.0,0.0,0.0,0.0,0.0,0.0,0.0,0.0,0.0,0.0,0.0,0.0,0.0,0.0,0.0,0.0,0.0,0.0,0.0,0.0,0.0,0.0,0.0,0.0,0.0,0.0,0.0,0.0,0.0,0.0,0.0,0.0,0.0,0.0,0.0,0.0,0.0,0.0,0.0,0.0,0.0,0.0,0.0,0.0,0.0,0.0,0.0,0.0,0.0,0.0,0.0,0.0,0.0,0.0,0.0,0.0,0.0,0.0,0.0,0.0,0.0,0.0,0.0,0.0,0.0,0.0,0.0,0.0,0.0,0.0,0.0,0.0,0.0,0.0,0.0,0.0,0.0,0.0,0.0,0.0,0.0,0.0,0.0,0.0,0.0,0.0,0.0,0.0,0.0,0.0,0.0,0.0,0.0,0.0,0.0,0.0,0.0,0.0,0.0,0.0,0.0,0.0,0.0,0.0,0.0,0.0,0.0,0.0,0.0,0.0,0.0,0.0,0.0,0.0,0.0,0.0,0.0,0.0,0.0,0.0,0.0,0.0,0.0,0.0,0.0,0.0,0.0,0.0,0.0,0.0,0.0,0.0,0.0,0.0,0.0,0.0,0.0,0.0,0.0,0.0,0.0,0.0,0.0,0.0,0.0,0.0,0.0,0.0,0.0,0.0,0.0,0.0,0.0,0.0,0.0,0.0,0.0,0.0,0.0,0.0,0.0,0.0,0.0,0.0,0.0,0.0,0.0,0.0,0.0,0.0,0.0,0.0,0.0,0.0,0.0,0.0,0.0,0.0,0.0,0.0,0.0,0.0,0.0,0.0,0.0,0.0,0.0,0.0,0.0,0.0,0.0,0.0,0.0,0.0,0.0,0.0,0.0,0.0,0.0,0.0,0.0,0.0,0.0,0.0,0.0,0.0,0.0,0.0,0.0,0.0,0.0,0.0,0.0,0.0,0.0,0.0,0.0,0.0,0.0,0.0,0.0,0.0,0.0,0.0,0.0,0.0,0.0,0.0,0.0,0.0,0.0,0.0,0.0,0.0,0.0,0.0,0.0,0.0,0.0,0.0,0.0,0.0,0.0,0.0,0.0,0.0,0.0,0.0,0.0,0.0,0.0,0.0,0.0,0.0,0.0,0.0,0.0,0.0,0.0,0.0,0.0,0.0,0.0,0.0,0.0,0.0,0.0,0.0,0.0,0.0,0.0,0.0,0.0,0.0,0.0,0.0,0.0,0.0,0.0,0.0,0.0,0.0,0.0,0.0,0.0,0.0,0.0,0.0,0.0,0.0,0.0,0.0,0.0,0.0,0.0,0.0,0.0,0.0,0.0,0.0,0.0,0.0,0.0,0.0,0.0,0.0,0.0,0.0,0.0,0.0,0.0,0.0,0.0,0.0,0.0,0.0,0.0,0.0,0.0,0.0,0.0,0.0,0.0,0.0,0.0,0.0,0.0,0.0,0.0,0.0,0.0,0.0,0.0,0.0,0.0,0.0,0.0,0.0,0.0,0.0,0.0,0.0,0.0,0.0,0.0,0.0,0.0,0.0,0.0,0.0,0.0,0.0,0.0,0.0,0.0,0.0,0.0,0.0,0.0,0.0,0.0,0.0,0.0,0.0,0.0,0.0,0.0,0.0,0.0,0.0,0.0,0.0,0.0,0.0,0.0,0.0,0.0,0.0,0.0,0.0,0.0,0.0,0.0,0.0,0.0,0.0,0.0,0.0,0.0,0.0,0.0,0.0,0.0,0.0,0.0,0.0,0.0,0.0,0.0,0.0,0.0,0.0,0.0,0.0,0.0,0.0,0.0,0.0,0.0,0.0,0.0,0.0,0.0,0.0,0.0,0.0,0.0,0.0,0.0,0.0,0.0,0.0,0.0,0.0,0.0,0.0,0.0,0.0,0.0,0.0,0.0,0.0,0.0,0.0,0.0,0.0,0.0,0.0,0.0,0.0,0.0,0.0,0.0,0.0,0.0,0.0,0.0,0.0,0.0,0.0,0.0,0.0,0.0,0.0,0.0,0.0,0.0,0.0,0.0,0.0,0.0,0.0,0.0,0.0,0.0,0.0,0.0,0.0,0.0,0.0,0.0,0.0,0.0,0.0,0.0,0.0,0.0,0.0,0.0,0.0,0.0,0.0,0.0,0.0,0.0,0.0,0.0,0.0,0.0,0.0,0.0,0.0,0.0,0.0,0.0,0.0,0.0,0.0,-1.7066,0.0,0.0,0.0,0.0,0.0,0.0,0.0,0.0,0.0,0.0,0.0,0.0,0.0,0.0,0.0,0.0,0.0,0.0,0.0,0.0,0.0,0.0,0.0,0.0,-0.2773,-0.2952,-0.3578,-0.4028,-0.4654,-0.5899,0.0,0.0,0.0,0.0,0.0,-1.0636,-1.1585,-1.2363,-1.2875,-1.3222,-1.373,-1.4243,-1.5068,-1.6306,-1.8059,0.0,0.0,0.0,0.0,0.0,0.0,0.0,0.0,0.0,0.0,0.0,0.0,0.0,0.0,0.0,0.0,0.0,0.0,0.0,0.0,0.0,0.0,0.0,0.0,0.0,0.0,0.0,0.0,0.0,0.0,0.0,0.0,0.0,0.0,0.0,0.0,0.0,0.0,0.0,0.0,0.0,0.0,0.0,0.0,0.0,0.0,0.0,0.0,0.0,0.0,0.0,0.0,0.0,0.0,0.0,0.0,0.0,0.0,0.0,0.0,0.0,0.0,0.0,0.0,0.0,0.0,0.0,0.0,0.0,0.0,0.0,-1.7714,0.0,0.0,0.0,0.0,0.0,0.0,0.0,0.0,0.0,0.0,0.0,0.0,0.0,0.0,0.0,0.0,0.0,0.0,0.0,0.0,0.0,-0.2599,-0.1343,-0.1074,-0.1343,-0.197,-0.2418,-0.3133,-0.4472,-0.4921,-0.5722,-0.7132,-0.7837,-0.8803,-1.0028,-1.089,-1.1666,-1.2192,-1.2448,-1.3124,-1.4307,-1.5213,-1.6281,-1.7513,-1.8487,0.0,0.0,0.0,0.0,0.0,0.0,0.0,0.0,0.0,0.0,0.0,0.0,0.0,0.0,0.0,0.0,0.0,0.0,0.0,0.0,0.0,0.0,0.0,0.0,0.0,0.0,0.0,0.0,0.0,0.0,0.0,0.0,0.0,0.0,0.0,0.0,0.0,0.0,0.0,0.0,0.0,0.0,0.0,0.0,0.0,0.0,0.0,0.0,0.0,0.0,0.0,0.0,0.0,0.0,0.0,0.0,0.0,0.0,0.0,0.0,0.0,0.0,0.0,-1.647,-1.6639,-1.6551,-1.6903,-1.7255,-1.7636,-1.8112,-1.8454,-1.8819,0.0,0.0,0.0,0.0,0.0,0.0,0.0,0.0,0.0,0.0,0.0,0.0,0.0,0.0,0.0,0.0,0.0,0.0,0.0,0.0,-0.0448,-0.0179,0.0,0.0,-0.0268,-0.0984,-0.1789,-0.2769,-0.3487,-0.4469,-0.5897,-0.6602,-0.7658,-0.9065,-0.9753,-1.0448,-1.1154,-1.1757,-1.2693,-1.3789,-1.4887,-1.6288,-1.7997,-1.9045,-2.0235,-2.1655,0.0,0.0,0.0,0.0,0.0,0.0,0.0,0.0,0.0,0.0,0.0,0.0,0.0,0.0,0.0,0.0,0.0,0.0,0.0,0.0,0.0,0.0,0.0,0.0,0.0,0.0,0.0,0.0,0.0,0.0,0.0,0.0,0.0,0.0,0.0,0.0,0.0,0.0,0.0,0.0,0.0,-1.0641,-1.1008,0.0,0.0,0.0,0.0,0.0,0.0,0.0,0.0,0.0,0.0,0.0,0.0,0.0,-1.5569,-1.5761,-1.6027,-1.6197,-1.6271,-1.636,-1.6544,-1.6911,-1.7159,-1.7589,-1.8284,-1.898,0.0,-1.851,-1.9195,0.0,0.0,0.0,0.0,0.0,0.0,0.0,0.0,0.0,0.0,0.0,0.0,0.0,0.0,0.0,0.0,0.0,0.0,0.0,0.0,0.0,0.2953,0.2949,0.2498,0.1872,0.098,-0.0267,-0.1146,-0.2366,-0.4031,-0.4846,-0.6011,-0.7377,-0.7979,-0.8681,-0.9575,-1.0274,-1.1391,-1.2923,-1.4371,-1.6183,-1.8372,-1.9571,-2.0827,-2.2004,-2.282,0.0,0.0,0.0,0.0,0.0,0.0,0.0,0.0,0.0,0.0,0.0,0.0,0.0,0.0,0.0,0.0,0.0,0.0,0.0,0.0,0.0,0.0,0.0,0.0,0.0,0.0,0.0,0.0,0.0,0.0,0.0,0.0,0.0,0.0,0.0,0.0,0.0,0.0,0.0,-0.9503,-0.9266,-0.9258,-0.9347,-0.949,0.0,0.0,0.0,0.0,0.0,0.0,0.0,0.0,0.0,-1.3492,-1.4356,-1.4874,-1.514,-1.5755,-1.6097,-1.6174,-1.6422,-1.6676,-1.7014,-1.7343,-1.7929,-1.8594,-1.9088,-1.9252,-1.9132,-2.006,-2.0512,-2.0782,0.0,0.0,0.0,0.0,-2.1324,-2.1216,0.0,0.0,0.0,0.0,0.0,0.0,0.0,0.0,0.0,0.0,0.0,0.0,0.4919,0.5453,0.5531,0.5075,0.4625,0.3815,0.2471,0.1479,0.0086,-0.1797,-0.2863,-0.392,-0.5253,-0.5933,-0.6803,-0.7692,-0.8562,-0.9928,-1.1786,-1.3457,-1.5708,-1.8364,-1.9782,-2.1156,-2.2574,-2.3537,-2.4696,0.0,0.0,0.0,0.0,0.0,0.0,0.0,0.0,0.0,0.0,0.0,0.0,0.0,0.0,0.0,0.0,0.0,0.0,0.0,0.0,0.0,0.0,0.0,0.0,0.0,0.0,0.0,0.0,0.0,0.0,0.0,0.0,0.0,0.0,0.0,0.0,0.0,0.0,-0.7955,-0.7745,-0.7653,-0.7745,-0.7696,0.0,0.0,0.0,0.0,0.0,0.0,-0.9913,-1.1047,-1.1832,-1.2095,-1.3288,-1.4055,-1.4475,-1.5409,-1.5997,-1.617,-1.6566,-1.6968,-1.7286,-1.77,-1.8264,-1.8895,-1.9301,-1.9548,-1.985,-2.0614,-2.1043,-2.1216,-2.1461,-2.1621,-2.1719,-2.1462,-2.1447,-2.146,0.0,0.0,0.0,0.0,0.0,0.0,0.0,0.0,0.0,0.0,0.0,0.5343,0.5968,0.658,0.7017,0.6929,0.6747,0.6072,0.5004,0.405,0.2648,0.0586,-0.0502,-0.1587,-0.2754,-0.3843,-0.4851,-0.5613,-0.6781,-0.8341,-1.0282,-1.2141,-1.4661,-1.7648,-1.926,-2.1375,-2.3745,-2.4564,-2.5767,-2.7149,0.0,0.0,0.0,0.0,0.0,0.0,0.0,0.0,0.0,0.0,0.0,0.0,0.0,0.0,0.0,0.0,0.0,0.0,0.0,0.0,0.0,0.0,0.0,0.0,0.0,0.0,0.0,0.0,0.0,0.0,0.0,0.0,0.0,0.0,0.0,0.0,0.0,0.0,0.0,-0.6192,-0.6017,0.0,0.0,0.0,0.0,-0.7779,-0.6933,-0.6916,-0.8173,-0.9213,-0.9908,-1.0443,-1.1746,-1.2869,-1.3704,-1.4713,-1.556,-1.6394,-1.6894,-1.7383,-1.7959,-1.8282,-1.8674,-1.9301,-1.9706,-2.002,-2.0274,-2.0312,-2.0332,-2.041,-2.0557,-2.0889,-2.1269,-2.1189,-2.1361,-2.146,0.0,0.0,0.0,0.0,0.0,0.17,0.3486,0.3931,0.4556,0.5897,0.6675,0.7541,0.8416,0.9113,0.9726,1.0072,0.9519,0.8815,0.7808,0.6609,0.5175,0.359,0.2493,0.1206,-0.0163,-0.1144,-0.214,-0.3342,-0.4509,-0.6321,-0.8684,-1.0856,-1.3526,-1.6623,-1.8527,-2.0907,-2.3484,-2.4838,-2.6308,-2.7736,-2.8222,-2.8803,0.0,0.0,0.0,0.0,0.0,0.0,0.0,0.0,0.0,0.0,0.0,0.0,0.0,0.0,0.0,0.0,0.0,0.0,0.0,0.0,0.0,0.0,0.0,0.0,0.0,0.0,0.0,0.0,0.0,0.0,0.0,0.0,0.0,0.0,0.0,0.0,0.0,-0.2226,-0.1869,0.0,-0.1421,-0.1418,-0.1596,-0.2041,-0.23,-0.2828,-0.3717,-0.5393,-0.6721,-0.7519,-0.962,-1.1278,-1.2304,-1.4021,-1.5296,-1.6221,-1.6804,-1.7383,-1.804,-1.8282,-1.8834,-1.9478,-1.9784,-2.0098,-2.0489,-2.0489,-2.0489,-2.0489,-2.0566,-2.0664,-2.0801,-2.0801,-2.0898,-2.0956,0.0,0.0,0.0,0.0,0.1789,0.3218,0.5008,0.5622,0.6413,0.7559,0.8686,0.9726,1.0849,1.1547,1.2066,1.2413,1.1925,1.1239,1.0321,0.9157,0.7828,0.6352,0.5015,0.3761,0.2468,0.1755,0.0884,-0.0245,-0.1794,-0.3901,-0.6391,-0.8927,-1.1784,-1.4986,-1.7258,-1.9828,-2.2587,-2.421,-2.608,-2.8051,-2.861,-2.9198,-2.9808,0.0,0.0,0.0,0.0,0.0,0.0,0.0,0.0,0.0,0.0,0.0,0.0,0.0,0.0,0.0,0.0,0.0,0.0,0.0,0.0,0.0,0.0,0.0,0.0,0.0,0.0,0.0,0.0,0.0,0.0,0.0,0.0,0.0,0.0,0.0,0.0444,0.1598,0.2304,0.3186,0.4343,0.4485,0.4376,0.4208,0.295,0.1812,0.1037,-0.1295,-0.3195,-0.4325,-0.6902,-0.8963,-1.0333,-1.252,-1.4124,-1.5294,-1.6116,-1.6932,-1.7584,-1.7891,-1.844,-1.9226,-1.9448,-1.9832,-2.0342,-2.0342,-2.0439,-2.0566,-2.0566,-2.0566,-2.0566,-2.0566,-2.0566,-2.0566,0.0,0.0,0.0,0.1166,0.3041,0.4556,0.5359,0.6861,0.8265,0.9474,1.0859,1.2066,1.293,1.3698,1.4041,1.4041,1.3761,1.3218,1.2447,1.1606,1.0489,0.8888,0.7198,0.5973,0.5129,0.4745,0.4126,0.3426,0.1165,-0.1086,-0.3407,-0.6239,-0.9442,-1.2798,-1.5422,-1.8204,-2.1011,-2.2738,-2.5153,-2.7933,-2.8876,-2.947,-2.9718,0.0,0.0,0.0,0.0,0.0,0.0,0.0,0.0,0.0,0.0,0.0,0.0,0.0,0.0,0.0,0.0,0.0,0.0,0.0,0.0,0.0,0.0,0.0,0.0,0.0,0.0,0.0,0.0,0.0,0.0,0.0,0.0,0.0,0.1068,0.213,0.3631,0.5134,0.6177,0.7767,1.0405,1.0464,1.0417,1.0437,0.8491,0.6869,0.5797,0.297,0.066,-0.0827,-0.3471,-0.5785,-0.776,-1.0113,-1.1982,-1.3519,-1.4802,-1.5835,-1.6615,-1.6977,-1.7578,-1.8397,-1.8618,-1.9132,-1.9893,-1.9893,-2.0146,-2.0527,-2.0547,-2.0566,-2.0566,-2.0566,-2.0566,-2.0566,0.0,0.0,0.0269,0.1523,0.3309,0.5001,0.6416,0.8002,0.9579,1.0966,1.2419,1.3607,1.4455,1.5372,1.5869,1.5718,1.534,1.4799,1.408,1.325,1.2164,1.0891,0.9697,0.8869,0.8339,0.7499,0.6659,0.6056,0.3797,0.1316,-0.1316,-0.4308,-0.7374,-1.0548,-1.3513,-1.6413,-1.9033,-2.1084,-2.3161,-2.5119,-2.7187,-2.8271,-2.8697,0.0,0.0,0.0,0.0,0.0,0.0,0.0,0.0,0.0,0.0,0.0,0.0,0.0,0.0,0.0,0.0,0.0,0.0,0.0,0.0,0.0,0.0,0.0,0.0,0.0,0.0,0.0,0.0,0.0,0.0,0.0,0.0,0.4874,0.4148,0.6216,0.7971,0.8357,0.9146,1.0136,1.1322,1.1813,1.1926,1.1543,1.101,1.0141,0.911,0.7204,0.5325,0.3538,0.074,-0.1893,-0.4292,-0.7086,-0.9385,-1.1352,-1.2653,-1.4016,-1.535,-1.588,-1.6716,-1.7784,-1.8082,-1.8527,-1.9001,-1.9001,-1.9077,-1.9314,-2.0245,-2.0566,-2.0566,-2.0566,-2.0566,-2.0566,0.0,-0.0628,0.0717,0.2418,0.4113,0.5711,0.721,0.9139,1.0966,1.2266,1.3789,1.5054,1.5884,1.6706,1.7204,1.7204,1.6846,1.6405,1.594,1.482,1.3765,1.3027,1.2084,1.1286,1.084,1.0002,0.91,0.8277,0.6339,0.402,0.1392,-0.1693,-0.4754,-0.7957,-1.1242,-1.414,-1.659,-1.8944,-2.0754,-2.2159,-2.4389,-2.6007,-2.7077,-2.7605,-2.782,-2.764,-2.7274,-2.6883,-2.6352,-2.5122,0.0,0.0,0.0,0.0,0.0,0.0,0.0,0.0,0.0,0.0,0.0,0.0,0.0,0.0,0.0,0.0,0.0,0.0,0.0,0.0,0.0,0.0,0.0,0.0,0.7105,0.8,0.8606,0.9687,1.0553,1.1148,1.2123,1.2961,1.3649,1.4219,1.4441,1.4207,1.4044,1.35,1.2536,1.1047,0.9334,0.7238,0.4537,0.1757,-0.0882,-0.3846,-0.6331,-0.8492,-1.0188,-1.176,-1.312,-1.3885,-1.495,0.0,-1.668,-1.7224,-1.7917,-1.8054,-1.8156,0.0,0.0,0.0,0.0,0.0,-2.0333,-2.0333,-0.0807,0.009,0.1435,0.3497,0.5097,0.6508,0.7742,1.0096,1.21,1.3281,1.4803,1.6064,1.6968,1.7708,1.8175,1.8284,1.8082,1.7832,1.7584,1.6258,1.5376,1.5147,1.4235,1.3368,1.2851,1.2265,1.1366,1.0168,0.8722,0.6729,0.426,0.1158,-0.2001,-0.5299,-0.8856,-1.1707,-1.4063,-1.6587,-1.8265,-1.9388,-2.1093,-2.3087,-2.5141,-2.5613,-2.5739,-2.5526,-2.5599,-2.5232,-2.4696,-2.3849,0.0,0.0,0.0,0.0,0.0,0.0,0.0,0.0,0.0,0.0,0.0,0.0,0.0,0.0,0.0,0.0,0.0,0.0,0.0,0.0,0.0,0.0,0.0,0.0,1.0701,1.1423,1.3473,1.2752,1.2446,1.3754,1.4874,1.5896,1.6776,1.7288,1.7577,1.7619,1.7351,1.6784,1.5791,0.0,0.0,0.0,0.0,0.5363,0.254,-0.0385,-0.2851,-0.5013,-0.7255,-0.901,-1.0256,-1.1236,-1.251,-1.3932,-1.4577,-1.5416,-1.6323,-1.6766,-1.7042,-1.737,-1.8202,-1.8844,-1.9231,-1.9512,-1.9672,-1.9709,-0.0179,0.1256,0.2781,0.4032,0.5359,0.6854,0.8436,1.0356,1.2186,1.347,1.5061,1.6304,1.696,1.8103,1.8717,1.8395,1.862,1.8489,1.7944,1.725,1.6811,1.6733,1.5816,1.5117,1.4689,1.3962,1.3077,1.2111,1.0473,0.8562,0.6173,0.3086,-0.0,-0.3242,-0.6893,-0.984,-1.2303,-1.4782,-1.6513,-1.7639,-1.8607,-2.0698,-2.328,-2.3891,-2.4032,-2.3966,-2.3391,-2.288,-2.2453,-2.201,-2.1334,-2.0652,-2.0256,0.0,0.0,0.0,0.0,0.0,0.0,0.0,0.0,0.0,0.0,0.0,0.0,0.0,0.0,0.0,0.0,0.0,0.0,0.0,0.0,1.0806,1.2143,1.3543,1.5224,1.5981,1.6378,1.6229,1.6928,1.7772,1.8853,1.9505,1.9911,2.0009,1.9998,1.9619,1.866,1.7465,0.0,1.3945,1.1535,0.9001,0.6359,0.3764,0.1307,-0.1077,0.0,0.0,-0.7048,-0.8116,-0.9713,-1.1678,-1.2271,-1.3121,-1.4088,-1.4312,-1.4728,-1.5371,-1.709,-1.8072,-1.8378,-1.8161,-1.8303,-1.8652,0.1256,0.2242,0.3408,0.4295,0.5797,0.7471,0.9048,1.0966,1.2619,1.3893,1.5311,1.6632,1.7529,1.8585,1.9076,1.8982,1.8969,1.8762,0.0,1.7716,1.7432,1.7432,1.6533,1.5912,1.563,1.4848,1.4049,1.3237,1.1687,0.9868,0.7799,0.487,0.1857,-0.1084,-0.4696,-0.7673,-1.0101,-1.2694,-1.4538,-1.5773,-1.6817,-1.8212,-1.9871,-2.0983,-2.1316,-2.1213,-2.1048,-2.0783,-2.04,-1.9922,-1.9403,-1.8836,-1.8443,-1.7657,-1.6686,0.0,0.0,0.0,0.0,0.0,0.0,0.0,0.0,0.0,0.0,0.0,0.0,0.0,0.0,0.3451,0.5826,0.0,1.1419,1.2896,1.4426,1.6035,1.7552,1.8701,1.9058,1.8301,1.8875,1.9782,2.0871,2.1561,2.1993,2.2165,2.214,2.1646,2.0617,1.9456,1.7909,1.5983,1.3912,1.1567,0.9105,0.7147,0.4923,0.2462,0.0924,-0.1077,-0.3375,-0.5149,-0.6836,-0.8506,-0.9654,-1.0644,-1.1476,-1.2238,-1.299,-1.3688,-1.4452,-1.5667,-1.6998,-1.6975,-1.7165,-1.7431,0.2603,0.3138,0.3849,0.4648,0.6325,0.8089,0.9492,1.1402,1.3045,1.4223,1.5477,1.6714,1.7934,1.8656,1.9187,1.9392,1.901,1.8666,0.0,1.792,1.7638,1.7569,1.6682,1.6132,1.5991,1.5221,1.4497,1.3833,1.2439,1.087,0.9125,0.6276,0.3571,0.0854,-0.2556,-0.5487,-0.7942,-1.0582,-1.2451,-1.386,-1.5059,-1.5773,-1.6167,-1.7516,-1.8218,-1.8566,-1.8786,-1.8697,-1.8427,-1.7944,-1.7445,-1.6989,-1.6472,-1.5658,-1.4802,-1.4178,-1.3301,0.0,0.0,0.0,0.0,0.0,0.0,0.0,0.0,0.0,-0.1402,0.0856,0.3339,0.5803,0.8307,1.0621,1.2905,1.5267,1.6862,1.8425,2.0018,2.0986,2.1249,2.0595,2.0997,2.1758,2.2867,2.3428,2.3852,2.4129,2.3807,2.3242,2.2212,2.0991,1.9543,1.7668,1.5808,1.3799,1.1592,1.0135,0.8161,0.5848,0.4476,0.2546,0.0308,-0.1852,-0.3629,-0.501,-0.6863,-0.8174,-0.9015,-1.0157,-1.1063,-1.1736,-1.152,-1.2762,-1.4743,-1.5431,-1.5742,-1.5839,0.0,0.3939,0.4739,0.5181,0.6684,0.8356,0.9941,1.1499,1.2869,1.3971,1.5061,1.6139,1.7041,1.7934,1.8521,1.875,1.8557,0.0,1.7803,1.7579,1.7295,1.7001,1.6394,1.5912,1.5568,1.4927,1.4346,1.3833,1.2592,1.1248,0.9739,0.7214,0.4817,0.2411,-0.0932,-0.3722,-0.611,-0.8788,-1.0616,-1.1816,-1.2705,-1.3142,-1.3368,-1.3542,-1.5108,-1.7254,-1.6982,-1.6659,-1.636,-1.6349,-1.5864,-1.517,-1.5104,-1.4491,-1.3583,-1.2473,0.0,-1.0884,-0.9509,-0.8137,-0.6898,-0.6359,-0.5329,-0.4148,0.0,0.0,0.0389,0.2647,0.6224,0.918,1.0232,1.2476,1.4915,1.7135,1.8812,2.0456,2.1993,2.2772,2.35,2.4231,2.3651,2.3592,2.4543,2.498,2.5287,2.5646,2.5245,2.4597,2.361,2.2323,2.0939,1.952,1.7755,1.6105,1.4593,1.2722,1.0947,0.9215,0.7631,0.579,0.3712,0.217,0.0388,-0.1624,-0.4255,-0.5889,-0.69,-0.7588,-0.8197,-0.8803,-0.9417,-1.0034,-1.0732,-1.2439,-1.3308,-1.3769,0.0,0.4476,0.5366,0.6077,0.7309,0.8715,1.0202,1.1585,1.2869,1.4139,1.4977,1.5974,1.7115,1.7897,1.8351,1.8485,1.823,0.0,1.7417,1.7088,1.6696,1.6254,1.5604,1.5108,1.4974,1.441,1.3912,1.3477,1.2372,1.1174,0.9814,0.7443,0.5286,0.3193,0.0078,-0.2491,-0.4663,-0.7126,-0.8969,-1.0265,-1.1156,-1.1749,-1.205,-1.2198,-1.2903,-1.4045,-1.4434,-1.445,0.0,0.0,-1.3793,-1.3223,-1.3064,-1.2424,-1.149,-1.0766,-0.9969,0.0,-0.733,-0.5996,0.0,0.0,-0.3041,-0.1794,-0.0936,0.0702,0.2728,0.5229,0.7693,0.9965,1.1771,1.4134,1.6528,0.0,2.049,2.2029,2.3335,2.4226,2.498,2.5769,2.5645,2.5591,2.5823,2.6,2.6176,2.6258,2.5865,2.5133,2.3975,2.2882,2.1655,2.0322,1.8793,1.7357,1.5896,1.4395,1.2882,1.1421,0.9777,0.8183,0.6649,0.5041,0.2795,-0.0,-0.2254,-0.3809,-0.49,-0.5674,-0.6371,-0.6912,-0.7218,-0.7592,-0.8192,-1.0622,-1.1764,-1.2123,0.0,0.4921,0.5905,0.6789,0.7845,0.8982,1.0202,1.1499,1.279,1.3977,1.4727,1.5643,1.6878,1.7615,1.797,1.7865,1.7823,0.0,0.0,1.6629,1.6156,1.5496,1.476,1.4351,1.4186,1.3753,1.3331,1.2973,1.2003,1.0956,0.9744,0.7524,0.56,0.3822,0.1015,-0.1327,-0.3274,-0.552,-0.7222,-0.8533,-0.9508,-1.0104,-1.0409,-1.0628,-1.0703,-1.0777,-1.2265,-1.2638,0.0,0.0,-1.1896,-1.1304,-1.1019,-1.0276,-0.9372,-0.8983,-0.791,-0.6608,-0.5223,0.0,0.0,-0.2106,-0.078,0.0546,0.1171,0.2807,0.4836,0.7188,0.8908,1.0656,1.3071,1.5556,0.0,2.0009,2.1756,2.3195,2.4408,2.5189,2.592,2.6578,2.687,2.6974,2.6826,2.6826,2.6788,2.663,2.615,2.537,2.4208,2.3255,2.2163,2.0921,1.9694,1.8499,1.7207,1.5799,1.4466,1.3273,1.1706,1.0271,0.8974,0.6827,0.4278,0.1406,-0.0156,-0.156,-0.273,-0.3667,-0.4448,-0.4993,-0.5068,-0.5295,-0.5902,-0.8344,-0.9728,-1.038,0.0,0.0,0.6346,0.7312,0.8105,0.8899,0.9772,1.1327,1.2619,1.3313,1.4146,1.5075,1.6004,1.6894,1.7307,1.6863,1.7206,0.0,1.6302,1.6049,1.5499,1.4546,1.4171,1.3732,1.3273,1.3046,1.2746,1.2305,1.1484,1.0582,0.9593,0.7456,0.5848,0.453,0.1799,-0.0235,-0.1797,-0.3904,-0.5386,-0.6395,-0.7234,-0.7698,-0.7931,-0.8156,-0.8084,-0.8232,-1.0852,0.0,0.0,0.0,-1.034,-0.9593,-0.9205,-0.8371,0.0,-0.6996,-0.5443,0.0,0.0,0.0,-0.0312,0.0078,0.1483,0.2888,0.3517,0.4988,0.6458,0.7774,0.9938,1.2138,1.4086,1.6606,1.9017,2.0917,2.2372,2.3728,2.4991,2.5619,2.6165,2.6899,2.7093,2.7269,0.0,2.7335,2.713,2.7003,2.6286,2.5495,2.4523,2.3564,2.2665,2.1714,2.0604,1.969,1.8941,1.7162,1.5865,1.5097,1.3425,1.1906,1.0524,0.7379,0.4991,0.3281,0.2271,0.1096,-0.0235,-0.1332,-0.2117,-0.2665,-0.2891,-0.3122,-0.3591,-0.4991,-0.6612,-0.8309,0.0,0.0,0.0,0.0,0.0,0.8899,0.9772,1.1154,1.2534,1.3476,1.4482,0.0,0.0,0.0,0.0,0.0,0.0,0.0,1.6071,1.5724,1.5169,1.4451,1.3895,1.3439,1.3058,1.29,1.2498,1.1929,1.1335,1.0507,0.9372,0.7693,0.6157,0.4608,0.2422,0.0548,-0.1017,-0.2737,-0.4142,-0.5229,-0.5925,-0.6468,-0.678,-0.6777,-0.678,-0.6853,0.0,0.0,0.0,0.0,-0.8143,-0.7532,-0.7218,0.0,0.0,-0.4516,-0.2961,-0.1483,0.0,0.0,0.1873,0.2264,0.3511,0.4761,0.5306,0.6461,0.7766,0.8836,1.076,1.2802,1.4939,1.7123,1.9191,2.1037,2.2457,2.361,2.4567,2.5439,2.6111,2.6592,2.6922,0.0,0.0,0.0,0.0,2.703,2.6554,2.5883,2.4847,2.4149,2.3304,2.2402,2.1597,2.0676,1.9765,1.7927,1.6413,1.5153,1.311,1.1446,1.0073,0.7923,0.615,0.4606,0.3287,0.2036,0.1019,0.0,-0.0627,-0.1097,-0.1646,-0.1958,-0.227,-0.2891,-0.4057,-0.5532,0.0,0.0,0.0,0.0,0.0,0.0,0.0,0.0,0.0,0.0,0.0,0.0,0.0,0.0,0.0,0.0,0.0,0.0,0.0,0.0,1.4874,1.4244,1.3826,1.3365,1.3067,1.2806,1.2355,1.1778,1.1175,1.034,0.9269,0.7787,0.6396,0.4967,0.2965,0.1364,0.0,-0.1606,-0.289,-0.385,-0.4571,-0.505,-0.5365,-0.5527,-0.5527,0.0,0.0,0.0,0.0,-0.6395,0.0,0.0,0.0,-0.4203,-0.3117,-0.195,-0.0624,0.0547,0.0,0.2421,0.3671,0.4059,0.5229,0.6395,0.6777,0.7927,0.9145,1.0051,1.1877,1.3822,1.5738,1.7746,1.9596,2.1239,2.2482,2.3505,2.4221,2.5048,2.577,2.6258,2.665,0.0,0.0,0.0,0.0,2.6934,2.655,2.5837,2.4858,2.415,2.3381,2.257,2.211,2.1429,2.0514,1.8035,1.5919,1.4183,1.2721,1.1453,1.024,0.8699,0.7157,0.5693,0.4375,0.3287,0.2427,0.1567,0.094,0.0392,-0.0157,-0.0549,-0.0941,-0.1567,-0.2349,-0.3441,0.0,0.0,0.0,0.0,0.0,0.0,0.0,0.0,0.0,0.0,0.0,0.0,0.0,0.0,0.0,0.0,0.0,0.0,0.0,0.0,0.0,1.4069,1.3743,1.3527,1.324,1.2804,1.2344,1.192,1.0979,1.0126,0.9276,0.7768,0.6605,0.561,0.3435,0.2099,0.1344,-0.042,-0.1597,-0.227,-0.3109,-0.3693,-0.3942,-0.4365,0.0,0.0,0.0,0.0,0.0,0.0,0.0,0.0,0.0,0.0,-0.0078,0.0547,0.1484,0.2425,0.3052,0.4144,0.5237,0.5622,0.663,0.771,0.8084,0.9226,1.0519,1.1335,1.3135,1.5051,0.0,0.0,2.0182,2.1365,2.2372,2.3233,2.3943,2.4536,2.5174,0.0,0.0,0.0,0.0,0.0,0.0,2.6823,0.0,2.5495,2.4385,2.3467,2.2681,2.2086,2.2066,2.1721,2.0956,1.7492,1.4554,1.2311,1.2325,1.1851,1.1039,0.9478,0.8084,0.6703,0.5544,0.4768,0.4068,0.3294,0.251,0.1803,0.1492,0.1021,0.0314,-0.0786,-0.1413,-0.2116,0.0,0.0,0.0,0.0,0.0,0.0,0.0,0.0,0.0,0.0,0.0,0.0,0.0,0.0,0.0,0.0,0.0,0.0,0.0,0.0,0.0,0.0,0.0,0.0,0.0,0.0,0.0,0.0,0.0,1.053,0.9485,0.8315,0.7019,0.561,0.4274,0.2937,0.1681,0.0504,-0.0588,-0.1597,0.0,-0.2857,-0.3449,0.0,0.0,0.0,0.0,0.0,0.0,0.0,0.0,0.0,0.0,0.0,0.1484,0.2421,0.3357,0.4217,0.4993,0.5928,0.671,0.7165,0.7931,0.8775,0.9306,1.0212,1.1186,1.2298,1.3875,1.5342,0.0,0.0,0.0,2.106,2.1758,0.0,2.2987,2.3794,0.0,0.0,0.0,2.6231,2.6493,2.675,0.0,0.0,2.6668,2.523,2.2189,2.1295,2.059,1.9912,1.9908,1.9292,1.8008,1.5429,1.3469,1.2311,1.2311,1.1887,1.1061,1.038,0.9155,0.754,0.6623,0.5777,0.4929,0.4307,0.3682,0.3214,0.251,0.1883,0.1412,0.0864,0.0157,-0.0628,0.0,0.0,0.0,0.0,0.0,0.0,0.0,0.0,0.0,0.0,0.0,0.0,0.0,0.0,0.0,0.0,0.0,0.0,0.0,0.0,0.0,0.0,0.0,0.0,0.0,0.0,0.0,0.0,0.0,0.0,0.0,0.8375,0.7229,0.5946,0.4746,0.3456,0.2249,0.1211,0.0,0.0,0.0,0.0,0.0,0.0,0.0,0.0,0.0,0.0,0.0,0.0,0.0,0.1429,0.2198,0.2737,0.3285,0.3986,0.0,0.5464,0.616,0.6942,0.7642,0.8016,0.8699,0.9382,1.0067,1.072,1.1594,1.2625,1.3935,0.0,0.0,0.0,0.0,0.0,0.0,0.0,2.2407,2.3175,2.3923,0.0,2.4929,0.0,2.5308,2.5493,2.5365,0.0,2.4805,2.3601,2.0836,2.0028,1.9348,1.8649,1.8586,1.7901,1.6437,1.4506,1.3135,1.2311,1.2305,1.2042,1.1596,1.1004,1.0014,0.8708,0.0,0.663,0.5944,0.5237,0.4693,0.4229,0.3682,0.3136,0.2665,0.2041,0.1334,0.0629,0.0,0.0,0.0,0.0,0.0,0.0,0.0,0.0,0.0,0.0,1.4004,0.0,0.0,0.0,0.0,0.0,0.0,0.0,0.0,0.0,0.0,0.0,0.0,0.0,0.0,0.0,0.0,0.0,0.0,0.0,0.0,0.0,0.0,0.0,0.0,0.0,0.0,0.0,0.0,0.0,0.0,0.0,0.0,0.0,0.0,0.0,0.0,0.0,0.0,0.0,0.3818,0.3408,0.3887,0.4487,0.5031,0.5401,0.5938,0.6549,0.7015,0.771,0.8331,0.8556,0.9241,0.9922,1.0438,1.1143,1.1844,1.2635,0.0,0.0,1.6501,0.0,1.9565,2.1112,0.0,2.2311,2.231,2.278,2.3344,2.393,2.3949,2.3995,2.3943,2.387,2.3381,2.2188,2.1975,2.1353,2.0037,1.9293,1.8675,1.8044,1.791,1.7153,1.5635,1.4225,1.3091,1.2311,1.2298,1.2277,1.2243,1.1465,1.0715,0.997,0.0,0.0,0.688,0.6093,0.5547,0.516,0.4854,0.4387,0.3841,0.3057,0.2357,0.1816,0.0,0.0,0.0,0.0,0.0,0.0,0.0,0.0,0.0,0.0,1.3743,1.4088,0.0,0.0,0.0,0.0,0.0,0.0,0.0,0.0,0.0,0.0,0.0,0.0,0.0,0.0,0.0,0.0,0.0,0.0,0.0,0.0,0.0,0.0,0.0,0.0,0.0,0.0,0.0,0.0,0.0,0.0,0.0,0.0,0.0,0.0,0.0,0.0,0.0,0.0,0.5007,0.4816,0.5353,0.5876,0.6251,0.6754,0.7173,0.7702,0.8466,0.8856,0.9246,0.9765,1.0218,1.0657,1.0944,1.1588,0.0,0.0,0.0,1.4861,1.5813,1.7708,0.0,2.1706,0.0,0.0,0.0,0.0,2.3144,0.0,0.0,0.0,0.0,0.0,0.0,0.0,0.0,2.0106,1.9306,1.8594,1.8103,1.8008,1.742,1.6385,1.4846,1.3917,1.3114,1.2311,1.2285,1.2318,1.2271,1.149,1.0986,1.0813,0.9155,0.0,0.733,0.6876,0.6412,0.6025,0.5559,0.5165,0.4771,0.4226,0.3568,0.2743,0.0,0.0,0.0,0.0,0.0,0.0,0.0,1.1154,1.2015,1.2448,1.3222,1.3743,1.3913,1.3997,1.4088,0.0,0.0,0.0,0.0,0.0,0.0,0.0,0.0,0.0,0.0,0.0,0.0,0.0,0.0,0.0,0.0,0.0,0.0,0.0,0.0,0.0,0.0,0.0,0.0,0.0,0.0,0.0,0.0,0.0,0.0,0.0,0.0,0.0,0.0,0.0,0.5837,0.6266,0.673,0.7093,0.7414,0.7882,0.8009,0.8143,0.8685,0.9221,0.9685,0.9981,1.0346,1.0708,1.1007,0.0,0.0,0.0,0.0,1.5713,1.7203,0.0,0.0,0.0,0.0,0.0,0.0,0.0,0.0,0.0,0.0,0.0,0.0,0.0,0.0,0.0,0.0,1.9454,1.9093,1.8372,1.7978,1.7997,1.725,1.6368,1.5213,1.4106,1.3063,1.2311,1.2285,1.2318,1.2257,1.1874,1.1521,1.1033,0.9857,0.0,0.7472,0.6857,0.6479,0.6251,0.6025,0.5836,0.5656,0.5181,0.4613,0.3967,0.0,0.0,0.0,0.0,0.0,0.0,0.9074,1.0197,1.1154,1.1666,1.2619,1.3307,1.3568,1.3913,1.4088,0.0,0.0,0.0,0.0,0.0,0.0,0.0,0.0,0.0,0.0,0.0,0.0,0.0,0.0,0.0,0.0,0.0,0.0,0.0,0.0,0.0,0.0,0.0,0.0,0.0,0.0,0.0,0.0,0.0,0.0,0.0,0.0,0.0,0.0,0.0,0.6656,0.7487,0.8098,0.8401,0.8573,0.875,0.8654,0.8556,0.887,0.9458,1.0029,1.011,1.0392,1.0673,1.1063,1.1199,0.0,0.0,0.0,0.0,0.0,0.0,0.0,0.0,0.0,0.0,0.0,0.0,0.0,0.0,0.0,0.0,0.0,0.0,0.0,0.0,0.0,0.0,1.8844,1.8337,1.7988,1.8007,1.7288,1.6492,1.5556,1.4145,1.3091,1.2311,1.2285,1.2311,1.2325,1.2277,1.1832,1.1079,1.0246,0.0,0.0,0.6927,0.649,0.6291,0.6302,0.6317,0.6283,0.6044,0.5717,0.5333,0.0,0.0,0.0,0.0,0.0,0.0,0.8109,0.9235,1.0207,1.0636,1.1929,1.2875,1.3137,1.3743,1.4088,0.0,0.0,0.0,0.0,0.0,0.0,0.0,0.0,0.0,0.0,0.0,0.0,0.0,0.0,0.0,0.0,0.0,0.0,0.0,0.0,0.0,0.0,0.0,0.0,0.0,0.0,0.0,0.0,0.0,0.0,0.0,0.0,0.0,0.0,0.0,0.0,0.8582,0.9479,0.9771,0.9663,0.8927,0.0,0.0,0.972,1.0127,1.0513,1.0902,1.1027,1.1077,1.1077,0.0,0.0,0.0,1.5126,1.6267,0.0,0.0,0.0,0.0,0.0,0.0,0.0,0.0,0.0,0.0,0.0,0.0,0.0,0.0,0.0,0.0,0.0,0.0,1.8133,1.8008,1.8018,1.7967,1.7246,1.6184,1.4728,1.3932,1.3135,1.2311,1.2285,1.2305,1.2305,1.2271,1.1887,1.1093,1.0229,0.0,0.0,0.7723,0.6962,0.6284,0.6288,0.6296,0.6341,0.6767,0.6958,0.6754,0.0,0.0,0.0,0.0,0.0,0.0,0.7782,0.8815,0.9689,1.012,1.1585,1.2705,1.3052,1.3743,1.4088,1.4088,0.0,0.0,0.0,0.0,0.0,0.0,0.0,0.0,0.0,0.0,0.0,0.0,0.0,0.0,0.0,0.0,0.0,0.0,0.0,0.0,0.0,0.0,0.0,0.0,0.0,0.0,0.0,0.0,0.0,0.0,0.0,0.0,0.0,0.0,0.0,0.0,1.1305,1.2026,0.0,0.0,1.0407,0.966,0.9844,1.073,1.1608,1.1757,1.1835,1.1964,1.2445,0.0,0.0,1.5023,1.5912,1.6766,1.7794,0.0,0.0,0.0,0.0,0.0,0.0,0.0,0.0,0.0,0.0,0.0,0.0,0.0,0.0,0.0,0.0,0.0,1.7998,1.7969,1.7783,1.732,1.6596,1.5726,1.4633,1.3848,1.3098,1.2331,1.2291,1.2305,1.2305,1.2331,1.1868,1.1069,1.0755,0.0,0.0,0.7861,0.7016,0.6339,0.6685,0.6788,0.6837,0.7013,0.7114,0.6984,0.0,0.0,0.0,0.0,0.0,0.7647,0.7446,0.838,0.9253,0.9685,1.1241,1.2448,1.2966,1.3652,1.4088,1.4088,1.4088,0.0,0.0,0.0,0.0,0.0,0.0,0.0,0.0,0.0,1.3652,1.2705,1.2272,0.0,0.0,0.0,0.0,0.0,0.0,0.0,0.0,0.0,0.0,0.0,0.0,0.0,0.0,0.0,0.0,0.0,0.0,0.0,0.0,0.0,0.0,0.0,0.0,0.0,0.0,0.0,1.2198,1.1141,1.1128,1.1714,1.2273,1.2306,1.2276,1.254,0.0,0.0,1.4219,1.5547,1.6386,1.7116,1.7881,1.8623,0.0,0.0,0.0,0.0,0.0,0.0,0.0,0.0,0.0,0.0,0.0,0.0,0.0,0.0,0.0,0.0,0.0,1.7764,1.7469,1.6894,1.5982,1.5046,1.4281,1.3484,1.2893,1.2271,1.2291,1.2305,1.2305,1.2325,1.1981,1.1421,0.0,0.0,0.0,0.8444,0.7585,0.6556,0.6923,0.7119,0.708,0.708,0.7065,0.6976,0.0,0.0,0.0,0.0,0.0,0.0,0.7098,0.7933,0.8811,0.9423,1.0977,1.2186,1.2619,1.3568,1.4088,1.4088,1.4088,0.0,0.0,0.0,0.0,0.0,0.0,0.0,0.0,0.0,1.3652,1.2705,1.2272,1.1058,0.9231,0.0,0.0,0.0,0.0,0.0,0.0,0.0,0.0,0.0,0.0,0.0,0.0,0.0,0.0,0.0,0.0,0.0,0.0,0.0,0.0,0.0,0.0,0.0,0.0,0.0,1.4081,1.4022,1.4104,1.3166,1.2334,1.2299,1.2272,1.249,0.0,0.0,1.4854,1.5649,1.641,1.7101,1.7852,1.8583,1.933,1.9983,2.1257,0.0,0.0,0.0,0.0,0.0,0.0,0.0,0.0,0.0,0.0,0.0,0.0,0.0,0.0,1.7293,1.6908,1.6872,1.5426,1.4283,1.3498,1.2684,1.2325,1.2271,1.2291,1.2305,1.2305,1.2325,1.2335,0.0,0.0,0.0,0.0,0.9917,0.8866,0.7123,0.7073,0.7094,0.7139,0.7139,0.7058,0.7068,0.0,0.0,0.0,0.0,0.0,0.0,0.7329,0.8008,0.8807,0.924,1.0885,1.2186,1.2619,1.3568,1.4088,1.4088,1.4088,0.0,0.0,0.0,0.0,0.0,0.0,0.0,0.0,0.0,1.3652,1.2705,1.2272,1.1058,0.9231,0.899,0.8116,0.0,0.0,0.0,0.0,0.0,0.0,0.0,0.0,0.0,0.0,0.0,0.0,0.0,0.0,0.0,0.0,0.0,0.0,0.0,0.0,0.0,0.0,1.4095,1.4119,0.0,1.4077,1.3831,1.3567,1.3533,1.2946,1.2536,1.3315,0.0,1.5655,1.6378,1.7147,1.7689,1.7925,1.8616,1.9499,2.064,2.2782,0.0,0.0,0.0,0.0,0.0,0.0,0.0,0.0,0.0,0.0,0.0,0.0,0.0,0.0,1.8972,1.7842,1.6226,1.4613,1.3464,1.2669,1.2466,1.2267,1.2305,1.2312,1.2312,1.2312,1.2318,0.0,0.0,0.0,0.0,0.0,1.1167,0.9836,0.8147,0.8099,0.7701,0.7119,0.7136,0.7143,0.7058,0.0,0.0,0.0,0.0,0.0,0.0,0.7675,0.836,0.9155,0.9878,1.1246,1.2357,1.279,1.3568,1.4088,1.4088,1.4088,0.0,0.0,0.0,0.0,0.0,0.0,0.0,1.4088,1.4088,1.3652,1.2705,1.2272,1.1149,0.9419,0.9174,0.8204,0.6877,0.7064,0.0,0.0,0.0,0.0,0.0,0.0,0.0,0.5346,0.0,0.0,0.0,0.0,0.0,0.0,0.0,0.0,0.0,0.0,0.0,0.0,0.0,1.4062,1.4119,0.0,1.4062,1.422,1.4474,1.4029,0.0,0.0,0.0,0.0,1.6785,1.7504,1.8165,1.888,1.9616,2.0631,2.207,2.3999,0.0,0.0,0.0,0.0,0.0,0.0,0.0,0.0,0.0,0.0,0.0,0.0,0.0,0.0,1.9763,1.847,1.6685,1.5034,1.3811,1.2988,1.2962,1.3002,1.2949,1.2949,1.2949,1.2949,1.2949,0.0,0.0,0.0,0.0,0.0,1.2097,1.0958,0.9552,0.9244,0.854,0.7647,0.7676,0.7415,0.7139,0.0,0.0,0.0,0.0,0.0,0.0,0.0,0.8997,1.0013,1.1071,1.1871,1.2534,1.3052,1.3659,1.4088,1.4088,1.4088,0.0,0.0,0.0,0.0,0.0,0.0,0.0,1.4088,1.4088,1.3652,1.2705,1.2277,1.1338,0.997,0.9358,0.8384,0.7139,0.7064,0.7068,0.0,0.0,0.0,0.0,0.0,0.5802,0.0,0.0,0.0,0.0,0.0,0.0,0.0,0.0,0.0,0.0,0.0,0.0,0.0,0.0,0.0,0.0,0.0,1.4132,1.4309,1.522,1.544,1.5697,0.0,0.0,0.0,0.0,1.7761,1.8708,2.0359,2.1267,2.2364,2.3879,2.472,0.0,0.0,0.0,0.0,0.0,0.0,0.0,0.0,0.0,0.0,0.0,0.0,0.0,0.0,1.9752,1.8931,1.8036,1.6308,1.5015,1.4073,1.4136,1.4092,1.4092,1.4092,1.4092,1.4092,1.4092,0.0,0.0,0.0,0.0,0.0,1.282,1.2227,1.1327,1.04,0.9524,0.8636,0.8589,0.7963,0.7139,0.0,0.0,0.0,0.0,0.0,0.0,0.0,0.0,0.0,0.0,1.166,1.2419,1.2766,1.3561,1.4088,0.0,0.0,0.0,0.0,0.0,0.0,0.0,0.0,0.0,1.4088,1.4088,1.3743,1.3058,1.2741,1.1802,1.0512,0.9998,0.8844,0.7139,0.7143,0.7143,0.0,0.0,0.0,0.0,0.6786,0.6782,0.0,0.0,0.0,0.0,0.8013,0.889,0.0,0.0,0.0,0.0,0.0,0.0,0.0,0.0,1.4573,1.5118,1.5075,0.0,1.4345,1.518,1.5912,1.6645,0.0,0.0,0.0,0.0,0.0,2.0561,2.1018,2.1744,2.2487,2.3147,0.0,0.0,0.0,0.0,0.0,0.0,0.0,0.0,0.0,0.0,0.0,0.0,0.0,0.0,0.0,1.9752,1.8931,1.8036,1.6296,1.4945,1.4138,1.4124,1.4074,1.4074,1.4074,1.4074,1.4074,1.4074,0.0,0.0,0.0,0.0,1.3756,1.3743,1.3212,1.2295,1.1365,1.0028,0.8595,0.8556,0.794,0.7129,0.0,0.0,0.0,0.0,0.0,0.0,0.0,0.0,0.0,0.0,1.1605,1.2378,1.293,1.3639,1.4088,0.0,0.0,0.0,0.0,0.0,0.0,0.0,0.0,1.4142,1.4091,1.4091,1.3905,1.3611,1.3197,1.2357,1.0936,1.0327,0.8924,0.7139,0.7139,0.7139,0.7139,0.0,0.0,0.0,0.7139,0.0,0.0,0.0,0.0,0.0,0.8265,0.9497,0.0,1.1666,1.2534,1.3404,0.0,0.0,0.0,0.0,1.4754,1.5756,1.7384,1.6547,1.5426,1.5913,1.6968,1.8083,1.9,0.0,0.0,0.0,0.0,0.0,2.1707,0.0,0.0,0.0,0.0,0.0,0.0,0.0,0.0,0.0,0.0,0.0,0.0,0.0,0.0,0.0,0.0,0.0,0.0,1.9809,1.8905,1.807,1.6288,1.4989,1.4079,1.4139,1.4088,1.4088,1.4088,1.4088,1.4088,1.4088,1.4088,0.0,0.0,0.0,1.4108,1.4077,1.354,1.2625,1.2164,1.0824,0.9196,0.8719,0.7925,0.7119,0.0,0.0,0.0,0.0,0.0,0.0,0.0,0.0,0.0,0.0,0.0,0.0,0.0,0.0,0.0,0.0,0.0,0.0,0.0,0.0,0.0,0.0,1.4088,1.4123,1.4122,1.4222,1.4197,1.4141,1.3707,1.2869,1.1478,1.0291,0.882,0.7139,0.7139,0.7139,0.7139,0.7139,0.0,0.0,0.7139,0.0,0.0,0.0,0.0,0.0,0.0,0.0,0.0,1.2564,1.3442,1.4135,1.4088,0.0,0.0,0.0,0.0,0.0,1.9661,1.8938,1.7253,1.7115,1.8215,1.9604,2.0334,0.0,0.0,0.0,0.0,0.0,0.0,0.0,0.0,0.0,0.0,0.0,0.0,0.0,0.0,0.0,0.0,0.0,0.0,0.0,0.0,0.0,0.0,0.0,0.0,1.958,1.8682,1.7826,1.6237,1.5018,1.4079,1.4139,1.4088,1.4088,1.4088,1.4088,1.4088,1.4088,1.4088,0.0,0.0,0.0,1.4088,1.4128,1.3587,1.2674,1.2685,1.171,1.0086,0.9152,0.8181,0.7291,0.0,0.0,0.0,0.0,0.0,0.0,0.0,0.0,0.0,0.0,0.0,0.0,0.0,0.0,0.0,0.0,0.0,0.0,0.0,0.0,0.0,1.4088,1.4088,1.4123,1.4122,1.4616,1.4588,1.4096,1.416,1.3609,1.2466,0.9961,0.824,0.7139,0.7139,0.7139,0.7139,0.7139,0.7139,0.7139,0.7139,0.0,0.0,0.0,0.0,0.0,0.0,0.0,0.0,1.356,1.3965,1.4088,1.4112,0.0,0.0,0.0,0.0,0.0,1.9659,1.999,1.9854,1.9092,1.9332,1.9846,0.0,0.0,0.0,0.0,0.0,0.0,0.0,0.0,0.0,0.0,0.0,0.0,0.0,0.0,0.0,0.0,0.0,0.0,0.0,0.0,0.0,0.0,0.0,0.0,0.0,1.8674,1.7777,1.6935,1.5944,1.5018,1.4079,1.4139,1.4088,1.4088,1.4088,1.4088,1.4088,1.4088,1.4088,0.0,0.0,1.4088,1.4088,1.4115,1.3555,1.2717,1.2717,1.2032,1.0977,1.0135,0.9174,0.8204,0.0,0.0,0.0,0.0,0.0,0.0,0.0,0.0,0.0,0.0,0.0,0.0,0.0,0.0,0.0,0.0,0.0,0.0,0.0,0.0,1.4088,1.4088,1.4088,1.4104,1.4059,1.4363,1.4687,1.5047,1.5119,1.4562,1.3519,1.0187,0.807,0.7132,0.7136,0.7139,0.7139,0.7139,0.7139,0.7139,0.0,0.0,0.0,0.0,0.0,0.0,0.0,0.0,0.0,0.0,1.4754,1.5562,1.6042,0.0,0.0,0.0,0.0,0.0,2.0118,2.0505,2.0712,2.041,2.0272,2.0389,0.0,0.0,0.0,0.0,0.0,0.0,0.0,0.0,0.0,0.0,0.0,0.0,0.0,0.0,0.0,0.0,0.0,0.0,0.0,0.0,0.0,0.0,0.0,0.0,0.0,0.0,1.7568,1.6698,1.5869,1.4942,1.4079,1.4139,1.4088,1.4088,1.4088,1.4088,1.4088,1.4088,1.4088,1.4088,0.0,1.4088,1.4088,1.4108,1.4215,1.4276,1.3777,1.278,1.152,0.9822,0.8643,0.7731,0.0,0.0,0.0,0.0,0.0,0.0,0.0,0.0,0.0,0.0,0.0,0.0,0.0,0.0,0.0,0.0,0.0,0.0,0.0,1.4088,1.4088,1.4088,1.4088,1.413,1.4142,1.4059,1.4702,1.5765,1.5819,1.5006,1.3489,1.0396,0.8364,0.7474,0.7214,0.7129,0.7129,0.7129,0.7129,0.7126,0.0,0.0,0.0,0.0,0.0,0.0,0.0,0.0,0.0,0.0,0.0,0.0,0.0,0.0,0.0,1.9138,1.9592,1.9972,2.0478,2.0742,2.1023,2.1369,0.0,0.0,0.0,0.0,0.0,0.0,0.0,0.0,0.0,0.0,0.0,0.0,0.0,0.0,0.0,0.0,0.0,0.0,0.0,0.0,0.0,0.0,0.0,0.0,0.0,0.0,0.0,0.0,1.744,1.6632,1.5809,1.4956,1.4079,1.4139,1.4088,1.4088,1.4088,1.4088,1.4088,1.4088,1.422,1.4477,1.4379,1.4321,1.4295,1.4309,1.4843,1.5556,1.4743,1.3279,1.1359,0.9423,0.812,0.7279,0.0,0.0,0.0,0.0,0.0,0.0,0.0,0.0,0.0,0.0,0.0,0.0,0.0,0.0,0.0,0.0,0.0,0.0,0.0,1.4088,1.4088,1.4088,1.4088,1.413,1.406,1.4067,1.4703,1.584,1.5777,1.4366,1.1473,1.0387,0.9414,0.8436,0.7537,0.7092,0.7092,0.7092,0.7092,0.7183,0.8078,0.0,0.0,0.0,0.0,0.0,0.0,0.0,0.0,0.0,0.0,0.0,0.0,0.0,1.8914,1.9476,1.965,1.9734,2.043,2.0722,2.1108,2.1873,0.0,0.0,0.0,0.0,0.0,0.0,0.0,0.0,0.0,0.0,0.0,0.0,0.0,0.0,0.0,0.0,0.0,0.0,0.0,0.0,0.0,0.0,0.0,0.0,0.0,0.0,0.0,0.0,0.0,1.6152,1.5621,1.4956,1.4079,1.4139,1.4088,1.4088,1.4088,1.4088,1.4088,1.4088,1.4716,1.5676,1.5179,1.4946,1.4903,1.4903,1.5006,1.504,1.5087,1.3217,1.0334,0.9241,0.8411,0.7955,0.0,0.0,0.0,0.0,0.0,0.0,0.0,0.0,0.0,0.0,0.0,0.0,0.0,0.0,0.0,0.0,0.0,0.0,0.0,1.4088,1.4088,1.4088,1.4088,1.4135,1.4064,1.413,1.4272,1.4757,1.4721,1.385,1.2175,1.1245,1.0361,0.9488,0.9048,0.8877,0.8886,0.8886,0.9524,1.0624,1.0983,1.1402,0.0,0.0,0.0,0.0,0.0,0.0,0.0,0.0,1.655,1.7195,1.8203,1.8717,1.9136,1.985,2.0136,2.0333,2.0964,2.1415,2.1787,2.2478,0.0,0.0,0.0,0.0,0.0,0.0,0.0,0.0,0.0,0.0,0.0,0.0,0.0,0.0,0.0,0.0,0.0,0.0,0.0,0.0,0.0,0.0,0.0,0.0,0.0,0.0,0.0,0.0,0.0,1.6152,1.5328,1.4853,1.4638,1.462,1.4649,1.4629,1.4262,1.428,1.4654,1.4654,1.4911,1.5301,1.5403,1.5473,1.5473,1.5259,1.5271,1.546,1.4615,1.3237,1.1411,1.0363,0.9304,0.8531,0.0,0.0,0.0,0.0,0.0,0.0,0.0,0.0,0.0,0.0,0.0,0.0,0.0,0.0,0.0,0.0,0.0,0.0,1.4088,1.4088,1.4088,1.4088,1.4088,1.4088,1.4088,1.4091,1.4089,1.4089,1.4128,1.379,1.3157,1.2169,1.1397,1.089,1.1186,1.13,1.131,1.0942,1.1587,1.2707,1.288,1.2924,0.0,0.0,0.0,0.0,0.0,0.0,0.0,0.0,1.6916,1.7548,1.861,1.9136,1.9548,2.0255,2.0722,2.1108,2.1721,2.2176,2.2628,0.0,0.0,0.0,0.0,0.0,0.0,0.0,0.0,0.0,0.0,0.0,0.0,0.0,0.0,0.0,0.0,0.0,0.0,0.0,0.0,0.0,0.0,0.0,0.0,0.0,0.0,0.0,0.0,0.0,0.0,0.0,1.5558,1.5077,1.506,1.5034,1.5062,1.506,1.4556,1.4569,1.4967,1.5055,1.5123,1.5298,1.5513,1.5763,1.5755,1.5538,1.5463,1.5578,1.4512,1.342,1.2452,1.1385,1.0395,0.9505,0.0,0.0,0.0,0.0,0.0,0.0,0.0,0.0,1.4088,1.4088,1.4088,0.0,0.0,0.0,0.0,0.0,0.0,0.0,1.4088,1.4088,1.4088,1.4088,1.4088,1.4088,1.4088,1.4088,1.4088,1.4088,1.4108,1.4128,1.4064,1.3155,1.2711,1.2741,1.3709,1.4111,1.4018,1.3145,1.2679,1.2765,1.3218,1.3389,1.3455,0.0,0.0,0.0,0.0,0.0,0.0,0.0,1.696,1.7861,1.8754,1.9636,2.0342,2.0789,2.1339,2.1959,2.2553,2.3001,0.0,0.0,0.0,0.0,0.0,0.0,0.0,0.0,0.0,0.0,0.0,0.0,0.0,0.0,0.0,0.0,0.0,0.0,0.0,0.0,0.0,0.0,0.0,0.0,0.0,0.0,0.0,0.0,0.0,0.0,0.0,0.0,1.647,1.5761,1.5129,1.5156,1.517,1.5176,1.5066,1.497,1.497,1.5163,1.5429,1.5814,1.5503,1.5565,1.5832,1.5832,1.5635,1.5445,1.4586,1.4004,1.3318,1.2068,1.1487,1.1096,0.0,0.0,0.0,0.0,0.0,0.0,0.0,0.0,1.4088,1.4088,1.4088,0.0,0.0,0.0,0.0,0.0,0.0,0.0,1.4088,1.4088,1.4088,1.4088,1.4088,1.4088,1.4088,1.4088,1.4088,1.4088,1.4095,1.4108,1.4128,1.3854,1.3698,1.373,1.394,1.4137,1.4064,1.3775,1.3566,1.3363,1.3455,1.3613,1.3665,0.0,0.0,0.0,0.0,0.0,0.0,0.0,0.0,0.0,1.9161,1.9951,2.0644,2.1339,2.1873,2.2402,2.3298,2.379,0.0,0.0,0.0,0.0,0.0,0.0,0.0,0.0,0.0,0.0,0.0,0.0,0.0,0.0,0.0,0.0,0.0,0.0,0.0,0.0,0.0,0.0,0.0,0.0,0.0,0.0,0.0,0.0,0.0,0.0,0.0,0.0,1.7152,1.6477,1.5798,1.5643,1.5661,1.5578,1.5578,1.5464,1.5264,1.5362,1.553,1.5806,1.5705,1.5752,1.5832,1.5832,1.5635,1.5445,1.507,1.4394,1.3709,1.313,1.2457,1.1683,0.0,0.0,0.0,0.0,0.0,0.0,0.0,0.0,1.4088,1.4088,1.4088,1.4088,0.0,0.0,0.0,0.0,0.0,0.0,0.0,1.4088,1.4088,1.4088,1.4088,1.4088,1.4088,1.4088,1.4088,1.4088,1.4088,1.4095,1.4108,1.4108,1.4122,1.4064,1.4064,1.4064,1.4077,1.4077,1.3972,1.377,1.377,1.3841,1.3906,0.0,0.0,0.0,0.0,0.0,0.0,0.0,0.0,0.0,1.9706,2.0411,2.1108,2.1949,2.2553,2.3213,2.4093,0.0,0.0,0.0,0.0,0.0,0.0,0.0,0.0,0.0,0.0,0.0,0.0,0.0,0.0,0.0,0.0,0.0,0.0,0.0,0.0,0.0,0.0,0.0,0.0,0.0,0.0,0.0,0.0,0.0,0.0,0.0,0.0,0.0,1.7827,1.7115,1.6302,1.6044,1.5946,1.5832,1.5832,1.5738,1.5571,1.5571,1.5665,1.5832,1.5832,1.5832,1.5832,1.5832,1.573,1.5635,1.5356,1.4879,1.4298,1.4004,1.3329,1.2565,0.0,0.0,1.4088,1.4088,0.0,0.0,0.0,0.0,1.4088,1.4088,1.4088,1.4088,0.0,0.0,0.0,0.0,0.0,0.0,0.0,1.4082,1.4082,1.4075,1.4075,1.4075,1.4075,1.4075,1.4075,1.4068,1.4082,1.4088,1.4088,1.4088,1.4088,1.4088,1.4088,1.4088,1.4088,1.4088,1.4088,1.4088,1.4088,1.4166,1.4166,1.4405,0.0,0.0,0.0,0.0,0.0,0.0,0.0,0.0,2.0323,2.1031,2.1655,2.2478,2.3298,2.4105,0.0,0.0,0.0,0.0,0.0,0.0,0.0,0.0,0.0,0.0,0.0,0.0,0.0,0.0,0.0,0.0,0.0,0.0,0.0,0.0,0.0,0.0,0.0,0.0,0.0,0.0,0.0,0.0,0.0,0.0,0.0,0.0,0.0,1.9271,1.8542,1.7707,1.6683,1.6407,1.6123,0.0,1.5832,1.5832,1.5832,1.5832,1.5832,1.5832,1.5832,1.5832,1.5832,1.5832,1.5832,1.5737,1.5635,1.5356,1.5083,1.4592,1.4016,1.3443,0.0,0.0,1.4088,1.4088,0.0,0.0,0.0,0.0,0.0,1.4088,0.0,0.0,0.0,0.0,0.0,0.0,0.0,0.0,0.0,1.4119,1.4112,1.4099,1.4092,1.4085,1.4072,1.4072,1.4135,1.4102,1.4126,1.4088,1.4088,1.4088,1.4088,1.4088,1.4088,1.4088,1.4088,1.4088,1.4088,1.4088,1.4243,1.4314,1.4405,1.4824,1.5159,0.0,0.0,0.0,0.0,0.0,0.0,0.0,2.0411,2.1108,2.1883,2.2703,2.357,2.4432,0.0,0.0,0.0,0.0,0.0,0.0,0.0,0.0,0.0,0.0,0.0,0.0,0.0,0.0,0.0,0.0,0.0,0.0,0.0,0.0,0.0,0.0,0.0,0.0,0.0,0.0,0.0,0.0,0.0,0.0,0.0,0.0,0.0,1.9812,1.9271,1.8265,1.6885,1.6683,1.6305,0.0,1.5832,1.5832,1.5832,1.5832,1.5832,1.5832,1.5832,1.5832,1.5832,1.5832,1.5832,1.5832,1.5737,1.5458,1.5083,1.4981,1.431,1.3443,0.0,0.0,0.0,0.0,0.0,0.0,0.0,0.0,0.0,0.0,0.0,0.0,0.0,0.0,0.0,0.0,0.0,0.0,0.0,0.0,1.4699,1.4692,1.4678,1.4754,1.474,1.5575,1.5952,1.6012,1.5521,1.5376,1.5329,1.5041,1.4936,1.4936,1.4748,1.4741,1.4741,1.4741,1.4741,1.4741,1.4817,1.4977,1.5061,1.5575,1.5982,1.6386,1.7212,0.0,0.0,0.0,0.0,0.0,0.0,0.0,2.2402,2.3276,2.4143,2.5016,0.0,0.0,0.0,0.0,0.0,0.0,0.0,0.0,0.0,0.0,0.0,0.0,0.0,0.0,0.0,0.0,0.0,0.0,0.0,0.0,0.0,0.0,0.0,0.0,0.0,0.0,0.0,0.0,0.0,0.0,0.0,2.2185,2.1454,2.0093,1.9546,1.8542,1.7153,1.677,1.6298,1.5832,1.5832,1.5832,1.5832,1.5832,1.5832,1.5832,1.5832,1.5832,1.5832,1.5832,1.5832,1.5832,1.5832,1.5547,1.5261,1.5261,1.4768,1.4004,0.0,0.0,0.0,0.0,0.0,0.0,0.0,0.0,0.0,0.0,0.0,0.0,0.0,0.0,0.0,0.0,0.0,0.0,0.0,0.0,0.0,1.5621,1.5598,1.5869,1.6252,1.7689,1.8357,1.8232,1.7524,1.7171,1.7145,1.6322,1.5952,1.5952,1.5658,1.556,1.556,1.556,1.556,1.556,1.5643,1.5726,1.5891,1.6468,1.6878,1.7359,1.8175,1.8745,1.924,1.9784,0.0,0.0,0.0,0.0,2.2916,2.3925,2.4731,2.5465,0.0,0.0,0.0,0.0,0.0,0.0,0.0,0.0,0.0,0.0,0.0,0.0,0.0,0.0,0.0,0.0,0.0,0.0,0.0,0.0,0.0,0.0,0.0,0.0,0.0,0.0,0.0,0.0,0.0,0.0,2.2441,2.2185,2.1562,2.0382,1.9554,1.8627,1.7326,1.6864,1.6298,1.5832,1.5832,1.5832,1.5832,1.5832,1.5832,1.5832,1.5832,1.5832,1.5832,1.5832,1.5832,1.5832,1.5832,1.5668,1.5619,1.5619,1.5312,1.4763,0.0,0.0,0.0,0.0,0.0,0.0,0.0,0.0,0.0,0.0,1.5047,1.5228,0.0,0.0,0.0,0.0,0.0,0.0,1.6347,0.0,0.0,1.6522,1.6514,1.7563,1.9894,2.0111,1.9848,1.9137,1.903,1.8941,0.0,0.0,1.6064,1.6064,1.6057,1.5974,1.5974,1.5974,1.5974,1.6049,1.637,1.6535,1.6617,1.7432,1.7925,1.8256,0.0,0.0,1.9863,2.0108,2.0508,0.0,0.0,0.0,2.3139,2.4131,2.4945,0.0,0.0,0.0,0.0,0.0,0.0,0.0,0.0,0.0,0.0,0.0,0.0,0.0,0.0,0.0,0.0,0.0,0.0,0.0,0.0,0.0,0.0,0.0,0.0,0.0,0.0,0.0,0.0,0.0,0.0,0.0,2.2441,2.2185,2.1562,2.0382,1.9554,1.8627,1.7326,1.6864,1.6298,1.5832,1.5832,1.5832,1.5832,1.5832,1.5832,1.5832,1.5832,1.5832,1.5832,1.5832,1.5832,1.5832,1.5832,1.5794,1.581,1.581,1.5703,1.5444,0.0,0.0,0.0,0.0,0.0,0.0,0.0,0.0,0.0,0.0,0.0,1.6177,0.0,0.0,0.0,1.7539,1.7506,1.7644,1.8146,1.8193,1.8175,1.8175,1.8656,1.9441,2.0547,2.0282,1.993,1.9482,1.9366,0.0,0.0,1.8336,1.7755,0.0,0.0,1.7521,1.7521,1.7521,1.7521,1.7602,1.7755,1.7925,1.8006,1.8567,1.8816,0.0,0.0,0.0,0.0,0.0,2.0809,2.1359,2.1807,0.0,0.0,0.0,0.0,0.0,0.0,0.0,0.0,0.0,0.0,0.0,0.0,0.0,0.0,0.0,0.0,0.0,0.0,0.0,0.0,0.0,0.0,0.0,0.0,0.0,0.0,0.0,0.0,0.0,0.0,0.0,0.0,0.0,0.0,2.296,2.2618,2.2274,2.1642,2.0736,1.9737,1.8627,1.7505,1.6958,1.6298,1.5832,1.5832,1.5832,1.5832,1.5832,1.5832,1.5832,1.5832,1.5832,1.5832,1.5832,1.5925,1.6079,1.6079,1.6155,1.6315,1.6315,1.6299,1.6145,0.0,0.0,0.0,0.0,0.0,0.0,0.0,0.0,0.0,0.0,0.0,0.0,0.0,0.0,0.0,0.0,1.8594,1.8735,1.9557,1.9631,1.9598,1.9598,2.0277,2.0661,2.0721,2.0261,2.0017,2.0087,0.0,0.0,1.9775,1.9854,1.9687,0.0,1.8984,1.8816,0.0,0.0,0.0,1.8895,1.8904,1.8993,1.9161,0.0,0.0,0.0,0.0,0.0,0.0,0.0,0.0,0.0,0.0,0.0,0.0,0.0,0.0,0.0,0.0,0.0,0.0,0.0,0.0,0.0,0.0,0.0,0.0,0.0,0.0,0.0,0.0,0.0,0.0,0.0,0.0,0.0,0.0,0.0,0.0,0.0,0.0,0.0,0.0,0.0,0.0,0.0,0.0,2.2969,2.2794,2.2362,2.1731,2.0997,1.982,1.8719,1.7692,1.6857,1.6204,1.5832,1.5832,1.5832,1.5832,1.5832,1.5872,1.5939,1.5865,1.5872,1.5939,1.5939,1.6119,1.638,1.638,1.656,1.682,1.682,1.6905,1.6853,0.0,0.0,0.0,0.0,0.0,0.0,0.0,0.0,0.0,0.0,0.0,0.0,1.8674,1.8754,1.8664,1.8106,1.8797,1.9621,2.0466,2.0508,2.0497,2.0497,2.0585,0.0,2.0995,2.0985,2.1023,0.0,0.0,0.0,2.1128,2.1272,2.1272,2.1051,1.9775,1.9301,1.9301,0.0,0.0,0.0,1.9478,1.9566,0.0,0.0,0.0,0.0,0.0,0.0,0.0,0.0,0.0,0.0,0.0,0.0,0.0,0.0,0.0,0.0,0.0,0.0,0.0,0.0,0.0,0.0,0.0,0.0,0.0,0.0,0.0,0.0,0.0,0.0,0.0,0.0,0.0,0.0,0.0,0.0,0.0,0.0,0.0,0.0,0.0,0.0,0.0,0.0,0.0,2.2969,2.2794,2.2362,2.1731,2.0997,1.982,1.8719,1.7692,1.648,1.5832,1.5832,1.5832,1.5832,1.5832,1.5832,1.5985,1.6239,1.5952,1.5985,1.6253,1.6253,1.642,1.6687,1.6687,1.6867,1.7128,1.7128,1.7308,1.7562,0.0,0.0,0.0,0.0,0.0,0.0,0.0,0.0,0.0,0.0,0.0,0.0,0.0,1.965,1.9554,1.9345,1.9434,1.9693,2.0032,2.0068,2.0372,2.0933,2.0721,2.0735,2.1265,2.1322,0.0,0.0,0.0,2.1655,2.1807,2.1883,2.1959,2.1949,2.1108,2.0644,2.0489,2.0489,0.0,0.0,2.043,2.0352,2.0255,0.0,0.0,0.0,0.0,0.0,0.0,0.0,0.0,0.0,0.0,0.0,0.0,0.0,0.0,0.0,0.0,0.0,0.0,0.0,0.0,0.0,0.0,0.0,0.0,0.0,0.0,0.0,0.0,0.0,0.0,0.0,0.0,0.0,0.0,0.0,0.0,0.0,0.0,0.0,0.0,0.0,0.0,0.0,0.0,0.0,2.2969,2.253,2.1998,2.1463,2.0085,1.8619,1.7044,1.6204,1.5832,1.5832,1.5832,1.5925,1.6112,1.6112,1.6273,1.6547,1.644,1.6453,1.6553,1.6553,1.672,1.6987,1.6987,1.7168,1.7428,1.7428,1.7495,1.7582,0.0,0.0,0.0,0.0,0.0,2.0157,2.0313,2.0382,2.0537,2.0779,0.0,0.0,0.0,0.0,2.0307,2.0072,1.9889,1.9868,1.993,2.0073,2.0422,2.101,2.0862,2.0971,2.146,2.1669,0.0,0.0,0.0,0.0,0.0,2.2767,2.268,2.254,2.2232,2.1784,0.0,0.0,0.0,2.0772,0.0,2.0897,2.0821,0.0,0.0,0.0,0.0,0.0,0.0,0.0,0.0,0.0,0.0,0.0,0.0,0.0,0.0,0.0,0.0,0.0,0.0,0.0,0.0,0.0,0.0,0.0,0.0,0.0,0.0,0.0,0.0,0.0,0.0,0.0,0.0,0.0,0.0,0.0,0.0,0.0,0.0,0.0,0.0,0.0,0.0,0.0,0.0,0.0,2.3135,2.2608,2.1989,2.1087,1.9803,1.8342,1.6777,1.6211,1.5974,1.5979,1.5979,1.6132,1.642,1.642,1.658,1.6854,1.6854,1.6854,1.6854,1.6854,1.7027,1.7295,1.7295,1.7415,1.7582,1.7582,1.7582,1.7582,0.0,0.0,2.1512,2.1502,2.1655,2.1807,2.1807,2.2025,2.2176,2.2155,0.0,0.0,0.0,0.0,0.0,2.0307,2.0264,2.0264,2.0196,2.0631,2.0825,2.0623,2.1031,2.1418,2.1668,0.0,0.0,0.0,0.0,0.0,0.0,0.0,2.3735,2.2865,2.3233,2.2644,2.1408,0.0,2.0573,2.0462,0.0,2.1114,2.1166,0.0,0.0,0.0,2.2035,2.2101,0.0,0.0,0.0,0.0,0.0,0.0,0.0,0.0,0.0,0.0,0.0,0.0,0.0,0.0,0.0,0.0,0.0,0.0,0.0,0.0,0.0,0.0,0.0,0.0,0.0,0.0,0.0,0.0,0.0,0.0,0.0,0.0,0.0,0.0,0.0,0.0,0.0,0.0,0.0,2.3174,2.3174,2.2637,2.1633,2.0002,1.8996,1.7994,1.7088,1.6529,1.63,1.6286,1.6286,1.644,1.672,1.672,1.6881,1.7161,1.7161,1.7161,1.7161,1.7161,1.7328,1.7582,1.7582,1.7582,1.7582,1.7582,1.7582,1.7582,0.0,2.1883,2.1959,2.2101,2.2187,2.2327,2.2628,2.283,2.2996,0.0,0.0,0.0,0.0,0.0,2.1777,2.147,2.1446,2.1266,2.0879,2.0949,2.1052,2.1127,2.1202,2.1501,2.1934,0.0,0.0,0.0,0.0,0.0,0.0,0.0,0.0,0.0,2.3313,2.2784,2.234,2.1796,0.0,0.0,2.1725,2.169,0.0,0.0,0.0,0.0,0.0,2.3139,0.0,0.0,2.3925,2.4288,0.0,0.0,0.0,0.0,0.0,0.0,2.6533,0.0,0.0,0.0,0.0,0.0,2.9521,2.9509,0.0,0.0,0.0,0.0,0.0,0.0,0.0,0.0,0.0,0.0,0.0,0.0,0.0,0.0,0.0,0.0,0.0,0.0,0.0,0.0,2.4062,2.4062,2.4062,2.3138,2.2062,2.0954,1.9917,1.8895,1.7867,1.7329,1.7,1.6898,1.6686,1.674,1.7027,1.7027,1.7188,1.7462,1.7462,1.7462,1.7462,1.7462,1.7508,1.7582,1.7582,1.7582,1.7582,1.7582,1.7582,1.7582,2.2478,2.2756,2.3117,2.3191,2.3475,2.3756,2.3986,2.4068,2.4179,0.0,0.0,0.0,0.0,0.0,0.0,2.2482,2.2421,2.2237,2.1877,2.1877,2.1808,2.1654,2.182,2.2085,2.2262,0.0,0.0,0.0,0.0,0.0,0.0,0.0,0.0,0.0,2.3555,2.3152,0.0,0.0,0.0,0.0,2.2093,0.0,0.0,2.285,2.3307,0.0,0.0,0.0,2.4576,2.4659,2.4791,0.0,0.0,0.0,0.0,0.0,0.0,0.0,0.0,0.0,0.0,0.0,0.0,0.0,2.9184,2.9184,2.8949,0.0,0.0,0.0,0.0,0.0,0.0,0.0,0.0,0.0,0.0,0.0,0.0,0.0,0.0,0.0,0.0,0.0,0.0,2.4414,2.4414,2.4322,2.4239,2.3537,2.276,2.1831,2.0874,1.9821,1.8773,1.7992,1.7568,1.7312,1.6995,1.7048,1.7328,1.7328,1.7422,1.7582,1.7582,1.7582,1.7582,1.7582,1.7582,1.7582,1.7582,1.7582,1.7582,1.7582,1.7582,1.7582,0.0,2.3998,2.4624,2.4624,2.5121,2.5575,2.5575,2.5382,2.5278,0.0,2.4747,0.0,0.0,0.0,0.0,0.0,2.3374,2.3267,2.304,2.304,2.2786,2.2286,2.2708,2.2859,2.2755,2.318,0.0,0.0,0.0,0.0,0.0,0.0,0.0,0.0,2.3879,2.3627,0.0,0.0,0.0,2.1913,2.2408,2.2876,0.0,0.0,2.4331,0.0,2.5004,2.5087,2.5158,2.5312,2.5382,0.0,0.0,0.0,0.0,0.0,2.6119,0.0,0.0,0.0,0.0,0.0,0.0,0.0,2.8791,2.8633,2.8395,0.0,0.0,0.0,0.0,0.0,0.0,0.0,0.0,0.0,0.0,0.0,0.0,0.0,0.0,0.0,0.0,2.456,2.456,2.456,2.456,2.4477,2.4301,2.3963,2.3467,2.2808,2.1744,2.0774,1.9599,1.8563,1.7945,1.7723,1.7407,1.7335,1.7582,1.7582,1.7582,1.7582,1.7582,1.7582,1.7582,1.7582,1.7582,1.7582,1.7582,1.7582,1.7582,1.7582,1.7582,1.7582,2.5405,2.5615,2.5824,2.6146,2.592,2.5766,2.6098,2.5872,2.5657,2.5519,2.5517,0.0,0.0,0.0,0.0,0.0,2.4637,2.4465,2.4047,2.3943,2.3708,2.3327,2.3165,2.2997,2.2887,2.3291,2.3573,0.0,0.0,0.0,0.0,0.0,0.0,0.0,2.3952,2.3816,0.0,0.0,0.0,2.3628,2.3592,0.0,2.3875,2.437,2.49,2.5453,2.5465,2.5688,2.598,0.0,2.591,2.5758,0.0,0.0,0.0,0.0,0.0,0.0,0.0,0.0,0.0,0.0,0.0,0.0,2.8131,2.7903,2.751,0.0,0.0,0.0,0.0,0.0,0.0,0.0,0.0,0.0,0.0,0.0,0.0,0.0,0.0,0.0,0.0,2.5478,2.5478,2.5478,2.5478,2.5382,2.5382,2.4842,2.4269,2.3697,2.2831,2.1752,2.0464,1.9743,1.9,1.8234,1.7705,1.7528,1.7582,1.7582,1.7582,1.7582,1.7582,1.7582,1.7582,1.7582,1.7582,1.7582,1.7582,1.7582,1.7582,1.7582,1.7582,1.7582,2.5668,2.601,2.6271,2.6453,2.6651,2.6827,2.7026,2.6873,2.6685,2.6665,2.6546,0.0,0.0,0.0,0.0,0.0,0.0,0.0,0.0,0.0,2.4724,2.4323,2.3989,2.3708,2.3484,2.3717,2.3796,2.3821,0.0,0.0,0.0,0.0,0.0,0.0,0.0,0.0,0.0,0.0,2.4738,2.462,2.4136,0.0,2.4252,2.4698,2.519,2.5654,2.5926,2.6176,2.6339,2.6131,2.591,0.0,0.0,2.5324,2.5312,0.0,2.5382,2.5453,0.0,0.0,0.0,2.6824,0.0,0.0,0.0,2.701,2.6599,0.0,0.0,0.0,0.0,0.0,0.0,0.0,0.0,0.0,0.0,0.0,0.0,0.0,0.0,0.0,0.0,2.5742,2.5742,2.5742,2.5742,2.5742,2.5742,2.5421,2.5006,2.4416,2.3635,2.2641,2.1436,2.0405,1.9457,1.8624,1.8115,1.7694,1.7582,1.7582,1.7582,1.7582,1.7582,1.7582,1.7582,1.7582,1.7582,1.7582,1.7582,1.7582,1.7582,1.7582,1.7582,1.7582,2.5937,2.6445,2.6835,2.6881,2.7435,2.7883,2.794,2.7758,2.7744,2.7874,0.0,0.0,0.0,0.0,0.0,0.0,0.0,0.0,0.0,0.0,2.5783,2.5287,2.4851,2.4523,2.4305,2.4189,2.4131,2.3995,0.0,0.0,0.0,0.0,0.0,0.0,0.0,0.0,0.0,0.0,0.0,2.5272,0.0,2.4472,2.4574,2.4937,2.5304,2.574,2.6319,2.6533,2.6465,2.605,0.0,2.5535,2.5253,2.5028,0.0,0.0,0.0,0.0,0.0,0.0,0.0,0.0,0.0,2.7103,0.0,0.0,0.0,0.0,0.0,0.0,0.0,0.0,0.0,0.0,0.0,0.0,0.0,0.0,0.0,0.0,0.0,0.0,0.0,2.5742,2.5742,2.5742,2.5742,2.5742,2.5742,2.5742,2.544,2.503,2.4233,2.3329,2.2224,2.1003,1.9864,1.8938,1.8325,1.7905,1.7687,1.7582,1.7582,1.7582,1.7582,1.7582,1.7582,1.7582,1.7582,1.7582,1.7582,1.7582,1.7582,1.7582,1.7582,1.7582,2.8165,2.8396,2.8508,2.8773,2.8414,2.8246,2.8457,2.8126,2.797,0.0,0.0,0.0,0.0,0.0,0.0,0.0,0.0,0.0,2.7399,0.0,0.0,2.6176,2.5481,2.5061,2.4892,2.458,2.4465,2.4408,2.4408,0.0,0.0,0.0,0.0,0.0,2.5328,0.0,0.0,0.0,2.5948,0.0,2.5605,2.5344,0.0,2.5314,2.564,2.5899,2.6332,2.6533,2.6465,0.0,2.591,2.5535,0.0,2.4969,0.0,0.0,0.0,0.0,0.0,0.0,0.0,0.0,2.5788,0.0,0.0,0.0,0.0,0.0,0.0,0.0,0.0,0.0,0.0,0.0,0.0,0.0,0.0,0.0,0.0,0.0,0.0,0.0,0.0,0.0,2.5742,2.5742,2.5742,2.5742,2.5742,2.5742,2.5538,2.5235,2.4735,2.3926,2.2828,2.17,2.0688,1.9576,1.8736,1.822,1.7911,1.7694,1.7582,1.7582,1.7582,1.7582,1.7582,1.7582,1.7582,1.7582,1.7582,1.7582,1.7582,1.7582,1.7582,1.7582,2.8151,2.8256,2.8411,2.8499,2.8591,2.8621,2.8768,2.8825,0.0,0.0,0.0,0.0,0.0,0.0,0.0,0.0,0.0,2.8857,0.0,0.0,0.0,0.0,2.6481,0.0,2.5865,2.5742,2.5577,2.5314,2.5314,0.0,0.0,0.0,0.0,0.0,2.5988,0.0,2.6312,0.0,0.0,0.0,0.0,0.0,0.0,2.5884,2.6052,2.6396,2.6445,2.6533,2.6465,0.0,2.5828,0.0,0.0,0.0,0.0,0.0,0.0,0.0,0.0,0.0,0.0,0.0,0.0,0.0,0.0,0.0,2.4003,0.0,0.0,0.0,0.0,0.0,0.0,0.0,0.0,0.0,0.0,0.0,0.0,0.0,0.0,0.0,0.0,0.0,0.0,0.0,0.0,2.5742,2.5742,2.5742,2.5538,2.5342,2.4932,2.4332,2.3329,2.2409,2.1404,2.0181,1.9368,1.8646,1.8016,1.7694,1.7582,1.7582,1.7582,1.7582,1.7582,1.7582,1.7582,1.7582,1.7582,1.7582,1.7582,1.7582,1.7582,1.7582,2.8576,0.0,0.0,2.8654,2.9012,2.9273,2.9303,2.9617,0.0,0.0,0.0,0.0,2.9924,2.9984,0.0,0.0,0.0,2.9782,0.0,0.0,2.8255,0.0,0.0,0.0,0.0,2.6669,2.6457,2.6096,2.6096,0.0,0.0,0.0,0.0,0.0,0.0,2.6736,2.6841,0.0,0.0,2.7305,2.6997,2.704,2.7253,2.6497,2.6466,2.6782,2.6589,2.6521,2.6465,2.6119,2.5828,0.0,2.5324,0.0,0.0,0.0,0.0,0.0,2.3677,0.0,0.0,0.0,0.0,0.0,0.0,0.0,0.0,0.0,0.0,0.0,0.0,0.0,0.0,0.0,0.0,0.0,0.0,0.0,0.0,0.0,0.0,0.0,0.0,0.0,0.0,2.5742,2.5742,2.5742,2.5742,2.5742,2.5635,2.544,2.5137,2.4637,2.3935,2.3129,2.2013,2.0696,1.9783,1.8959,1.8122,1.7793,1.7582,1.7582,1.7582,1.7582,1.7582,1.7582,1.7582,1.7582,1.7582,1.7582,1.7582,1.7582,1.7582,1.7582,3.0444,3.0081,0.0,0.0,0.0,3.0231,3.0426,0.0,0.0,0.0,0.0,0.0,0.0,0.0,0.0,0.0,0.0,3.0087,2.9793,0.0,2.8701,0.0,0.0,2.7378,0.0,0.0,2.6811,2.6669,2.6669,0.0,0.0,0.0,0.0,0.0,0.0,2.7181,2.7181,2.7181,2.7587,2.8163,2.7935,2.8124,2.8396,0.0,2.6935,2.6973,2.6782,0.0,0.0,2.627,2.6062,0.0,0.0,0.0,0.0,0.0,0.0,0.0,0.0,0.0,0.0,2.3897,0.0,0.0,0.0,0.0,2.3135,0.0,0.0,0.0,0.0,0.0,0.0,0.0,0.0,0.0,0.0,0.0,0.0,0.0,0.0,0.0,0.0,0.0,0.0,2.5742,2.5742,2.5742,2.5742,2.5742,2.5742,2.5645,2.544,2.5039,2.443,2.3728,2.2627,2.1224,2.0189,1.9257,1.8422,1.7793,1.7582,1.7582,1.7582,1.7582,1.7582,1.7582,1.7582,1.7582,1.7582,1.7582,1.7582,1.7582,1.7582,1.7582,3.1206,0.0,0.0,0.0,0.0,0.0,0.0,3.1061,0.0,0.0,0.0,0.0,0.0,0.0,3.0855,0.0,0.0,3.0609,3.03,2.9957,0.0,0.0,0.0,2.8319,0.0,0.0,0.0,2.7181,2.7181,0.0,0.0,0.0,0.0,0.0,0.0,2.7473,0.0,0.0,0.0,0.0,0.0,2.9232,2.9007,0.0,0.0,2.7255,2.685,2.6589,0.0,2.627,2.6131,2.6062,2.584,2.5535,2.5241,2.5111,2.4467,0.0,0.0,0.0,2.4136,2.3977,0.0,0.0,0.0,0.0,0.0,0.0,0.0,0.0,0.0,0.0,0.0,0.0,0.0,0.0,0.0,0.0,0.0,0.0,0.0,0.0,0.0,0.0,0.0,2.5742,2.5742,2.5742,0.0,2.5742,2.5742,2.5742,2.5635,2.5342,2.4735,2.4134,2.3029,2.1522,2.0498,1.9465,1.8422,1.7793,1.7582,1.7582,1.7582,1.7582,1.7582,1.7582,1.7582,1.7582,1.7582,1.7582,1.7582,1.7582,1.7582,1.7582,3.1967,0.0,0.0,0.0,0.0,0.0,0.0,0.0,0.0,0.0,3.1291,0.0,3.1117,0.0,3.1134,0.0,3.1072,3.0895,3.0609,3.0342,0.0,2.9396,2.9182,0.0,0.0,0.0,0.0,0.0,2.7488,2.7437,0.0,0.0,0.0,0.0,0.0,0.0,0.0,0.0,2.8861,0.0,0.0,3.0265,0.0,0.0,2.8029,2.7723,0.0,2.6794,2.6521,2.6396,2.6339,2.627,2.6188,2.598,2.5758,2.5465,2.4886,2.4322,2.4261,2.4245,0.0,2.4216,2.4272,0.0,2.4013,0.0,0.0,0.0,0.0,0.0,0.0,0.0,0.0,0.0,0.0,0.0,0.0,2.5742,0.0,0.0,0.0,0.0,0.0,0.0,2.5742,2.5742,2.5742,2.5742,0.0,0.0,2.5742,2.5742,2.5742,2.544,2.4932,2.4332,2.3329,2.1818,2.079,1.9657,1.852,1.8003,1.7694,1.7582,1.7582,1.7582,1.7582,1.7582,1.7582,1.7582,1.7582,1.7582,1.7582,1.7582,1.7649,1.7736,3.2669,3.2781,0.0,0.0,3.2144,0.0,0.0,0.0,3.2144,0.0,3.1856,3.1709,3.1372,3.1295,3.1274,3.123,3.1112,0.0,3.0733,3.0493,0.0,0.0,2.9273,2.8858,2.8235,0.0,0.0,0.0,2.7625,2.7625,2.7625,0.0,0.0,0.0,2.7655,0.0,2.8607,2.8667,2.9415,3.0612,3.1083,3.1117,3.0702,2.9931,2.9107,2.8235,2.7523,2.7066,2.6658,2.6521,2.6533,2.6533,2.6533,2.6396,2.6131,2.5758,2.5158,2.4647,2.4334,2.4461,2.4657,2.4454,0.0,0.0,0.0,0.0,2.3135,0.0,0.0,0.0,0.0,0.0,0.0,0.0,0.0,0.0,0.0,0.0,0.0,0.0,0.0,0.0,0.0,2.5742,2.5742,2.5742,2.5742,0.0,0.0,0.0,2.5742,2.5742,2.5742,2.544,2.4932,2.443,2.3429,2.2131,2.1097,1.9968,1.8826,1.8325,1.7905,1.7582,1.7582,1.7582,1.7582,1.7582,1.7582,1.7582,1.7582,1.7595,1.7602,1.7602,1.7782,1.8023,3.305,3.3178,3.3208,0.0,3.288,3.2752,0.0,0.0,0.0,0.0,3.2108,3.1929,3.1709,3.1538,3.1406,3.1274,3.1213,0.0,0.0,0.0,0.0,3.006,2.9766,2.9303,2.8605,2.8381,0.0,2.774,2.7625,2.7625,2.7625,0.0,0.0,0.0,0.0,0.0,2.8667,2.9609,3.0507,3.1228,3.1407,3.1307,0.0,0.0,2.9512,2.8766,2.7656,2.7066,2.6658,2.6521,2.6533,2.6533,2.6533,2.6465,2.6327,2.598,2.5535,2.5099,2.4706,2.4773,2.4814,2.4533,2.4416,2.4423,0.0,0.0,0.0,0.0,0.0,0.0,0.0,0.0,0.0,0.0,0.0,0.0,0.0,0.0,0.0,0.0,0.0,0.0,2.5742,2.5742,2.5742,2.5742,2.5742,2.5742,0.0,0.0,0.0,2.5742,2.5742,2.5538,2.5235,2.4637,2.3827,2.2728,2.1599,2.0475,1.9465,1.8833,1.8318,1.7911,1.7911,1.7799,1.7582,1.7582,1.7582,1.7582,1.7582,1.7722,1.7929,1.7929,1.7976,1.807,3.3397,0.0,0.0,3.3577,0.0,0.0,3.3099,0.0,0.0,3.2621,3.2454,0.0,3.193,3.1746,3.1521,3.1334,3.1252,0.0,0.0,0.0,0.0,3.0231,2.9913,2.9393,2.8732,2.8429,0.0,2.779,0.0,0.0,2.7625,0.0,0.0,0.0,0.0,2.8906,0.0,3.0522,3.118,3.1482,3.1482,0.0,0.0,3.0312,2.956,2.8688,2.7723,2.7134,2.6794,2.6602,2.6533,2.6533,2.6533,2.6533,2.6396,2.605,2.5606,2.5218,2.5036,2.5009,2.4937,2.4785,2.4564,2.4413,2.41,2.3493,2.3135,0.0,0.0,0.0,0.0,0.0,0.0,0.0,0.0,0.0,0.0,0.0,0.0,0.0,0.0,0.0,2.5742,2.5742,2.5742,2.5742,2.5742,2.5742,0.0,0.0,0.0,2.5742,2.5742,2.5538,2.5333,2.4833,2.4233,2.3229,2.2409,2.1395,2.0181,1.9665,1.8938,1.8122,1.8016,1.7806,1.7582,1.7582,1.7582,1.7595,1.7736,1.7896,1.8076,1.8337,1.843,1.845,0.0,0.0,0.0,0.0,0.0,0.0,0.0,3.3327,0.0,3.3086,0.0,3.2553,3.2144,3.193,3.1709,3.1372,0.0,3.1151,3.1015,3.0952,3.0692,3.0274,2.9913,2.9409,2.8779,2.8414,0.0,0.0,0.0,0.0,0.0,0.0,0.0,0.0,0.0,0.0,0.0,3.1285,3.1482,0.0,3.1467,3.1176,3.0762,3.0251,2.9435,2.8417,2.7723,2.7268,2.6943,2.6602,2.6533,2.6533,2.6533,2.6533,2.6396,2.605,2.5654,2.5445,2.5242,2.5173,2.5082,2.5033,2.4744,2.4423,2.4196,2.359,2.3135,2.3135,2.3135,2.3398,0.0,0.0,0.0,0.0,0.0,0.0,0.0,0.0,0.0,0.0,0.0,0.0,0.0,2.5742,2.5742,2.5742,2.5742,2.5742,0.0,0.0,0.0,2.5742,2.5742,0.0,2.5333,0.0,2.4529,2.3827,2.3329,2.2417,2.1089,2.0593,1.9665,1.8527,1.822,1.7905,1.7582,1.7582,1.7609,1.7669,1.7943,1.8096,1.8223,1.8731,1.8951,1.8985,0.0,0.0,0.0,0.0,0.0,3.378,3.3726,3.3559,3.3433,3.3404,3.3147,3.283,3.2586,3.2162,3.1785,3.1579,3.1329,0.0,0.0,0.0,0.0,3.0609,3.0274,2.9826,2.9213,2.8716,2.8301,0.0,0.0,0.0,0.0,0.0,0.0,0.0,0.0,0.0,3.1302,3.1422,0.0,3.1482,3.1409,3.1117,3.0702,2.9993,2.917,2.8417,2.759,2.7066,2.6726,2.6533,2.6533,2.6533,2.6533,2.6533,2.6396,2.605,2.6076,2.6058,2.5421,2.5512,2.5676,2.4712,2.4504,2.4337,2.3754,2.3319,2.3135,2.3135,2.3135,2.3398,2.4258,0.0,0.0,0.0,0.0,0.0,0.0,0.0,0.0,0.0,0.0,0.0,0.0,0.0,0.0,0.0,0.0,0.0,0.0,0.0,0.0,0.0,2.5742,0.0,0.0,0.0,2.5039,2.4637,2.4134,2.3329,2.2215,2.1615,2.0601,1.9168,1.884,1.8311,1.7582,1.7582,1.7736,1.7969,1.8023,1.8343,1.8784,1.8885,1.9078,1.9292,0.0,0.0,0.0,0.0,0.0,0.0,0.0,3.4845,0.0,3.3658,3.3345,3.3055,3.2687,3.2231,3.1858,3.1559,3.1346,3.119,3.119,3.1409,3.1465,3.1275,3.1298,0.0,3.0386,2.9875,2.9396,2.9052,0.0,0.0,0.0,0.0,0.0,0.0,0.0,3.1225,0.0,0.0,0.0,3.1482,3.1351,3.0984,3.0447,2.9808,2.898,2.8039,2.7523,2.6998,2.6589,2.6521,2.6533,2.6533,2.6533,2.6533,2.6446,2.6383,2.6357,2.6299,2.6025,2.606,2.5925,2.5045,2.4682,2.4327,2.3667,2.3319,2.3135,2.3135,2.3135,2.3398,2.4258,2.5137,0.0,0.0,0.0,0.0,0.0,0.0,0.0,0.0,0.0,0.0,0.0,0.0,0.0,0.0,0.0,0.0,0.0,0.0,0.0,0.0,0.0,0.0,0.0,0.0,0.0,2.5137,2.4833,2.4134,2.2929,2.2325,2.1208,1.9472,1.9042,1.8304,1.7595,1.7756,1.8003,1.829,1.8444,1.8677,1.8945,1.9098,1.9245,1.9366,0.0,3.4853,0.0,0.0,3.5721,0.0,3.6083,3.5951,3.5454,3.4251,3.3912,3.3638,3.3151,3.2722,3.2342,3.2017,3.1783,3.1664,3.1664,3.2107,3.2303,3.2083,3.2342,3.212,3.1453,3.0927,3.0433,0.0,0.0,0.0,0.0,0.0,0.0,0.0,0.0,0.0,0.0,0.0,3.1958,3.19,3.1708,3.1216,3.0654,3.0003,2.9108,2.8078,2.7699,2.722,2.6816,2.6816,2.6728,2.6653,2.6766,2.6816,2.6822,2.6902,2.6882,2.6845,2.6769,2.6599,2.6197,2.5357,2.485,2.4327,2.358,2.3232,2.3135,2.3135,2.3281,2.3613,2.4297,2.5137,0.0,0.0,0.0,0.0,0.0,0.0,0.0,0.0,0.0,0.0,0.0,0.0,0.0,0.0,0.0,0.0,0.0,0.0,0.0,0.0,0.0,2.5742,2.5742,0.0,2.5635,0.0,2.544,2.4735,2.3429,2.2929,2.1607,1.9783,1.9219,1.8555,1.7796,1.8036,1.8317,1.8604,1.8831,1.8958,1.9045,1.9279,1.9366,1.9366,0.0,0.0,0.0,0.0,0.0,0.0,3.6012,3.5841,3.5724,3.5678,3.5371,3.5021,3.4799,3.4333,3.3913,3.3676,3.3352,3.3203,3.3203,3.3271,3.3178,3.2998,3.2752,3.2318,3.1582,3.1042,3.0536,0.0,0.0,0.0,0.0,0.0,0.0,0.0,0.0,0.0,0.0,3.3051,3.3305,3.3244,3.275,3.2358,3.1883,3.0673,2.9873,2.9276,2.8536,2.8176,2.7946,2.7946,2.762,2.7293,2.7795,2.7946,2.7886,2.7777,2.8064,2.8172,2.7281,2.7252,2.6964,2.5348,2.468,2.4241,2.3309,2.3135,2.3135,2.3135,2.376,2.4326,2.4394,2.5137,2.5742,0.0,0.0,0.0,0.0,0.0,0.0,0.0,0.0,0.0,0.0,0.0,0.0,0.0,0.0,0.0,0.0,0.0,0.0,2.5742,0.0,2.5742,2.5742,2.5742,2.5645,2.5635,2.5635,2.5137,2.4035,2.3429,2.2114,2.0101,1.9783,1.9118,1.841,1.8437,1.8617,1.8885,1.8911,1.9092,1.9332,1.9359,1.9366,1.9366,0.0,0.0,0.0,0.0,0.0,0.0,0.0,3.6771,3.6524,3.6506,3.5705,3.4978,3.4618,3.4279,3.3985,3.3738,3.3448,3.3262,3.3262,3.357,3.3707,3.3544,3.3604,3.3388,3.2761,3.2165,3.1651,0.0,0.0,0.0,0.0,0.0,0.0,0.0,0.0,3.3095,3.3125,3.338,3.3423,3.3285,3.2864,3.2277,3.1627,3.065,2.984,2.9093,2.8558,2.8268,2.816,2.8486,2.8235,2.7821,2.8034,2.8109,2.8099,2.8251,2.8425,2.8445,2.792,2.7601,2.7103,2.5527,2.4765,2.4241,2.3309,2.3135,2.3135,2.3135,2.3818,2.4414,2.4414,2.5137,2.5742,0.0,0.0,0.0,0.0,0.0,0.0,0.0,0.0,0.0,0.0,0.0,0.0,0.0,0.0,0.0,0.0,0.0,0.0,2.5742,0.0,2.5742,2.5742,2.5742,2.5742,2.5742,2.5742,2.5235,2.4341,2.3862,2.2345,2.0171,1.9441,1.9023,1.8751,1.8751,1.8925,1.9192,1.9192,1.9265,1.9366,1.9366,1.9366,1.9366,3.6953,0.0,3.7575,0.0,3.7739,3.788,3.7721,3.7319,3.6935,3.6799,3.5948,3.5227,3.4936,3.4697,3.4494,3.4253,3.4023,3.3849,3.3849,3.4084,3.4154,3.395,3.4088,0.0,3.333,3.2819,3.2435,3.2213,3.194,0.0,0.0,0.0,0.0,0.0,3.3484,3.3784,3.3799,3.3993,3.3958,3.3739,3.3372,3.2709,3.1842,3.0978,3.0148,2.9409,2.8982,2.8686,2.8662,2.9051,2.8925,2.8599,2.8599,2.8599,2.8674,2.89,2.8936,2.887,2.839,2.7926,2.7174,2.5611,2.485,2.4241,2.3309,2.3135,2.3174,2.3301,2.3906,2.4453,2.458,2.5225,2.5742,2.5742,0.0,0.0,0.0,0.0,0.0,0.0,0.0,2.5742,2.5742,0.0,0.0,0.0,0.0,0.0,0.0,0.0,0.0,0.0,0.0,0.0,0.0,2.5742,2.5742,2.5742,2.5869,2.5516,2.4625,2.3785,2.2388,2.0596,1.9597,1.9108,1.9166,1.9052,1.9178,1.9366,1.9366,1.9366,1.9366,1.9366,1.9366,1.9366,3.8473,3.8382,3.8238,3.8101,3.7862,3.7631,3.7431,3.7034,3.6753,3.6544,3.6318,3.6216,3.6284,3.6114,3.5915,3.58,3.5594,3.5412,3.5274,3.5024,3.4691,0.0,0.0,3.3559,3.2841,3.2547,3.2497,3.2704,0.0,0.0,3.3469,0.0,3.3469,3.3514,3.4173,3.4472,3.4502,3.519,3.5344,3.5133,3.4587,3.3962,3.3171,3.1928,3.1158,3.0609,2.9998,2.9767,2.9779,2.9779,2.9779,2.9779,2.9779,2.9779,2.9779,2.9779,2.9779,2.9624,2.8749,2.8155,2.7395,2.56,2.485,2.4241,2.3309,2.3135,2.3262,2.3691,2.4121,2.4551,2.498,2.543,2.5742,2.5742,0.0,0.0,0.0,0.0,0.0,0.0,2.5742,2.5742,2.5742,0.0,0.0,0.0,0.0,0.0,0.0,0.0,0.0,2.5742,2.5742,0.0,2.5742,2.5742,2.5742,2.5742,2.6172,2.5958,2.5034,2.3258,2.214,2.1486,2.0363,1.9749,1.9809,1.9475,1.9366,1.9366,1.9366,1.9366,1.9366,1.9366,1.9366,1.9366,3.8354,3.8104,3.7898,3.7827,3.7431,3.7052,3.6895,3.6492,3.6174,3.6019,3.5905,3.58,3.5827,3.5844,3.5817,0.0,3.5475,3.5245,0.0,3.4594,3.4201,3.3745,3.3351,3.3184,3.3228,3.2936,3.2983,3.3397,0.0,0.0,0.0,3.3948,3.4158,3.4188,3.4876,3.5175,3.519,3.5415,3.5294,3.4935,3.4438,3.3673,3.2761,3.1736,3.0947,3.0444,2.9934,2.9792,2.9792,2.9792,2.9792,2.9792,2.9792,2.9792,2.9792,2.9792,2.9792,2.9636,2.8749,2.8155,2.7395,2.56,2.485,2.4241,2.3309,2.3369,2.3623,2.376,2.4365,2.4902,2.5039,2.5439,2.5742,2.5742,2.5742,0.0,0.0,0.0,0.0,0.0,0.0,2.5742,0.0,2.5742,0.0,0.0,0.0,0.0,0.0,0.0,0.0,0.0,2.5742,0.0,2.6172,2.6182,2.6318,2.6611,2.6748,2.6442,2.566,2.4393,2.3242,2.2143,2.1134,2.0401,1.9815,1.9475,1.9366,1.9366,1.9366,1.9366,1.9366,1.9366,1.9366,1.9366,3.8956,3.8617,3.832,3.8188,3.7795,3.7401,3.7274,3.6972,3.6723,3.6633,3.6514,3.6422,3.6375,3.6422,0.0,3.5599,3.5321,3.5058,3.4756,3.4494,3.4078,3.3619,3.3513,3.345,3.3478,0.0,0.0,3.4029,3.4175,3.4247,3.4262,3.4666,3.4861,3.4876,3.531,3.5504,3.5504,3.5504,3.5294,3.4883,3.4564,3.3889,3.2932,3.2177,3.1524,3.1009,3.0552,3.0394,3.0394,3.0394,3.0394,3.0394,3.0394,3.0394,3.0319,2.9917,2.9792,2.9636,2.8749,2.8155,2.7395,2.56,2.485,2.4282,2.3516,2.3594,2.3887,2.4199,2.4697,2.5117,2.5283,2.5547,2.5742,2.5742,2.5742,2.5742,2.5742,0.0,0.0,0.0,0.0,0.0,0.0,2.5742,0.0,0.0,0.0,0.0,0.0,0.0,0.0,2.5977,2.5977,0.0,2.6621,2.6621,2.6758,2.7012,2.7065,2.6836,2.6384,2.5514,2.4319,2.3087,2.1843,2.0945,2.0155,1.9591,1.9366,1.9366,1.9366,1.9366,1.9366,1.9366,1.9366,1.9366,3.9994,3.962,3.9269,0.0,3.8676,0.0,3.8368,3.8167,3.801,3.801,3.7919,3.7858,3.7696,3.75,3.6882,3.5669,0.0,0.0,0.0,3.4655,3.4438,3.387,3.4133,3.4134,3.3774,3.3789,3.4044,3.4547,3.519,3.5504,3.5504,3.5504,3.5534,3.5579,3.5579,3.5594,3.5639,3.5639,3.5413,3.5045,3.503,3.4497,3.3545,3.3178,3.2619,3.1992,3.1562,3.1386,3.1386,3.1386,3.1386,3.1386,3.1386,3.1386,3.1198,3.0193,2.9905,2.9736,2.8858,2.8274,2.7499,2.5698,2.4859,2.4359,2.391,2.3857,2.4102,2.4902,2.5088,2.5244,2.5664,2.5742,2.5742,2.5742,2.5742,2.5742,2.5742,0.0,0.0,0.0,0.0,0.0,0.0,2.5742,2.5742,0.0,0.0,0.0,0.0,0.0,2.5967,2.6377,2.6416,2.6631,2.7051,2.706,2.707,2.7109,2.7178,2.7362,2.7323,2.6227,2.5229,2.4206,2.2402,2.1281,2.0601,1.9707,1.9366,1.9366,1.9366,1.9366,1.9366,1.9366,1.9366,1.9366,0.0,0.0,3.8868,3.8764,3.8408,3.8086,3.8103,3.7997,3.7936,3.7936,3.7905,3.7858,3.7696,3.7352,3.6903,3.6388,3.6151,3.5877,3.5423,3.4984,3.4587,3.4125,3.3923,3.4015,3.428,3.4295,3.464,3.5265,3.5429,3.5504,3.5504,3.5504,3.5774,3.6252,3.6252,3.6522,3.6956,3.6956,3.6684,3.616,3.5712,3.4812,3.3715,3.3027,3.2367,3.1737,3.148,3.1386,3.1386,3.1386,3.1386,3.1386,3.1386,3.1386,3.1336,3.1085,3.1009,3.0848,2.9961,2.9368,2.8588,2.6769,2.5355,2.4404,2.4248,2.4531,2.4824,2.5029,2.5342,2.5605,2.5713,2.5742,2.5742,2.5742,2.5742,2.5742,2.5742,2.5742,0.0,0.0,2.5742,2.5742,2.5742,2.5742,2.5742,0.0,0.0,0.0,0.0,2.623,2.6279,2.6387,2.6699,2.707,2.751,2.751,2.7676,2.7988,2.798,2.7756,2.7431,2.6663,2.5551,2.388,2.2531,2.1402,2.0385,1.9707,1.9366,1.9366,1.9366,1.9366,1.9366,1.9366,1.9366,1.9366,4.028,3.9867,3.9502,3.9427,3.9191,3.895,3.895,3.8918,3.8903,3.8805,3.8805,3.8706,3.8337,3.7942,3.7502,3.7028,3.6377,3.5828,3.5427,3.5174,3.4891,3.4546,3.4575,3.4736,3.4936,3.4951,3.513,3.5504,3.5504,3.5669,3.5953,3.5953,3.6297,3.6911,3.6911,3.709,3.7404,3.7282,3.702,3.6572,3.6025,3.5231,3.4184,3.3607,3.2993,3.2415,3.2248,3.2164,3.2164,3.2164,3.2164,3.2164,3.2164,3.2164,3.2164,3.2164,3.18,3.1223,3.0337,2.9737,2.8861,2.684,2.5321,2.4473,2.4668,2.4893,2.5127,2.5332,2.5566,2.5742,2.5742,2.5742,2.5742,2.5742,2.5742,2.5742,2.5742,2.5742,0.0,2.5742,2.5742,2.5742,2.5742,2.5742,2.5742,2.5742,0.0,0.0,2.6367,2.6572,2.6768,2.6963,2.7197,2.7519,2.7949,2.7949,2.8066,2.8291,2.8291,2.8077,2.7638,2.6763,2.5652,2.4214,2.2523,2.1288,2.0378,1.9707,1.9366,1.9366,1.9366,1.9366,1.9366,1.9366,1.9366,1.9386,4.0977,4.071,4.0436,4.0305,4.0188,4.007,4.007,4.007,4.0037,3.9901,3.9901,3.9625,3.9077,3.875,3.823,3.7417,3.6269,3.5461,3.5174,3.5336,3.5309,3.5046,3.5465,3.5589,3.5504,3.5504,3.5549,3.5654,3.5654,3.5983,3.6626,3.6626,3.6956,3.7554,3.7554,3.7614,3.7719,3.7511,3.7175,3.6793,3.6283,3.5562,3.466,3.4214,3.3823,3.3313,3.3154,3.3081,3.3081,3.3081,3.3081,3.3081,3.3081,3.3081,3.3081,3.3081,3.239,3.1485,3.0651,2.9877,2.8745,2.6615,2.5349,2.4707,2.5088,2.5166,2.5273,2.5664,2.5742,2.5742,2.5742,2.5742,2.5742,2.5742,2.5742,2.5742,2.5742,0.0,2.5742,2.5742,2.5742,2.5742,2.5732,2.5732,2.5732,2.583,2.5898,2.6114,2.6555,2.6885,2.7314,2.7744,2.7764,2.793,2.8291,2.8291,2.8291,2.8291,2.8291,2.8184,2.7745,2.6636,2.5542,2.4556,2.2523,2.1281,2.0608,1.9707,1.9366,1.9366,1.9366,1.9366,1.9366,1.9366,1.9399,1.9466,4.0745,4.0534,4.0337,4.0288,4.0188,4.007,4.007,4.007,4.0037,3.9901,3.9781,3.9573,3.9023,3.8511,3.7927,3.7298,3.6552,3.6061,3.6014,3.5793,3.5601,3.5601,3.5544,3.5504,3.5504,3.5504,3.5774,3.6327,3.6327,3.6656,3.727,3.727,3.7614,3.8242,3.8242,3.8556,3.911,3.888,3.8355,3.7598,3.6999,3.5933,3.4667,3.4288,3.3666,3.3154,3.3081,3.3081,3.3081,3.3081,3.3081,3.3081,3.3081,3.3081,3.3081,3.3081,3.2955,3.2634,3.192,3.031,2.8495,2.7296,2.636,2.5816,2.5615,2.5635,2.5654,2.5723,2.5742,2.5742,2.5742,2.5742,2.5742,2.5742,2.5742,2.5742,2.5742,0.0,2.5742,2.5742,2.5742,2.583,2.6004,2.6004,2.61,2.64,2.6545,2.6844,2.7179,2.7427,2.7764,2.8184,2.8193,2.8223,2.8291,2.8291,2.8291,2.8291,2.8291,2.797,2.7431,2.6527,2.5313,2.3991,2.2297,2.1174,2.027,1.9707,1.9366,1.9366,1.9366,1.9366,1.9366,1.9366,1.9519,1.974,4.0502,4.0355,4.0188,4.0188,4.0138,4.007,4.007,4.0037,3.9935,3.9694,3.9468,3.9077,3.8455,3.7927,3.7358,3.6693,3.6196,3.5894,3.5861,3.5668,3.5604,3.5604,3.5554,3.5669,3.6028,3.6028,3.6342,3.6985,3.6985,3.7315,3.7943,3.7943,3.8302,3.8945,3.8945,3.9125,3.9337,3.8958,3.8427,3.781,3.6702,3.5669,3.4634,3.3979,3.3484,3.3081,3.3081,3.3081,3.3081,3.3081,3.3081,3.3081,3.3081,3.3081,3.3081,3.3081,3.2797,3.2351,3.1825,3.0272,2.8713,2.7893,2.6955,2.6207,2.6014,2.583,2.5742,2.5742,2.5742,2.5742,2.5742,2.5742,2.5742,2.5742,2.5742,0.0,0.0,2.5742,2.5742,2.5742,2.582,2.6014,2.6304,2.6476,2.678,2.7227,2.7225,2.7432,2.7921,2.7954,2.8062,2.8281,2.8291,2.8291,2.8291,2.8291,2.8291,2.8291,2.8291,2.797,2.7314,2.6536,2.5423,2.3991,2.2539,2.1296,2.0493,1.9815,1.9475,1.9366,1.9366,1.9459,1.9599,1.9599,1.9786,2.0054,4.073,4.0697,4.0595,4.0595,4.0544,4.0544,4.0441,4.0354,4.0196,3.9893,3.9534,3.9072,3.8366,3.7847,3.7297,3.6733,3.6349,3.6105,3.5953,3.5953,3.5818,3.5519,3.5654,3.6043,3.6686,3.6701,3.7,3.7644,3.7644,3.7973,3.8631,3.8631,3.8916,3.9424,3.9424,3.9337,3.9265,3.8752,3.8202,3.7567,3.6215,3.5277,3.4481,3.3725,3.3326,3.3081,3.3081,3.3081,3.3081,3.3081,3.3081,3.3081,3.3081,3.3081,3.3081,3.3081,3.2624,3.2089,3.1472,3.0464,2.9268,2.8362,2.7431,2.6688,2.6294,2.6014,2.583,2.5732,2.5742,2.5742,2.5742,2.5742,2.5742,2.5742,0.0,0.0,0.0,2.5742,2.5732,2.583,2.6014,2.6294,2.6688,2.7051,2.7523,2.8292,2.8115,2.8123,2.8644,2.8371,2.8265,2.8281,2.8291,2.8291,2.8291,2.8291,2.8291,2.8291,2.8291,2.797,2.753,2.6636,2.5533,2.4437,2.2877,2.1638,2.0716,2.004,1.9591,1.9372,1.9446,1.9606,1.9806,1.9873,2.0087,2.0368,4.1999,4.2117,4.2081,4.1991,4.1937,4.1829,4.1538,4.1483,4.1316,4.0861,4.0495,4.0123,3.9638,3.8967,3.8469,3.806,3.7758,3.7489,3.727,3.727,3.6746,3.5549,3.6088,3.6701,3.733,3.7345,3.7659,3.8317,3.8317,3.8676,3.9349,3.9349,3.9364,3.9424,3.9424,3.9265,3.9104,3.8664,3.7886,3.6936,3.6056,3.5114,3.4076,3.3569,3.3326,3.3081,3.3081,3.3081,3.3081,3.3081,3.3081,3.3081,3.3081,3.3081,3.3081,3.3081,3.2896,3.2537,3.1813,3.1015,3.0204,2.9002,2.8092,2.7347,2.6592,2.6294,2.6004,2.5732,2.5742,2.5742,2.5742,2.5742,2.5742,2.5742,0.0,0.0,2.5742,2.5742,2.583,2.6004,2.6304,2.6784,2.7441,2.7987,2.8556,2.935,2.9289,2.9163,2.928,2.888,2.8591,2.8291,2.8291,2.8291,2.8291,2.8291,2.8291,2.8291,2.8291,2.8184,2.7853,2.6853,2.5981,2.5,2.3199,2.1964,2.106,2.0155,1.9591,1.9392,1.9659,1.978,1.9833,2.01,2.0388,2.0648,4.2146,4.2196,4.2088,4.1816,4.1722,4.1594,4.1335,4.105,4.0759,4.048,3.9982,3.9487,3.9124,3.8542,3.8095,3.7895,3.7692,3.7488,3.7404,3.7404,3.7195,3.6701,3.6926,3.736,3.8003,3.8018,3.8347,3.9035,3.9035,3.917,3.9424,3.9424,3.9424,3.9424,3.9424,3.9265,3.9031,3.8427,3.7644,3.678,3.5588,3.4716,3.3992,3.3411,3.3154,3.3081,3.3081,3.3081,3.3081,3.3081,3.3081,3.3081,3.3081,3.3081,3.3081,3.3081,3.3068,3.281,3.2438,3.1649,3.0847,2.984,2.8828,2.7893,2.7146,2.6476,2.6004,2.5732,2.5742,2.5742,2.5742,2.5742,2.5742,2.5742,0.0,2.5742,2.5742,2.582,2.6004,2.6294,2.687,2.7441,2.8175,2.9091,2.9864,3.0555,3.045,3.0231,3.0004,2.9051,2.8408,2.8291,2.8291,2.8291,2.8291,2.8291,2.8291,2.8291,2.8291,2.8184,2.7853,2.7305,2.6545,2.5459,2.4206,2.2741,2.1395,2.0601,1.9931,1.9399,1.9686,1.9907,2.0107,2.0401,2.0695,2.0942,4.2635,4.2557,4.2372,4.203,4.1873,4.1639,4.1309,4.1007,4.07,4.0404,3.9943,3.9505,3.9175,3.8788,3.8462,3.834,3.8117,3.8033,3.8033,3.8033,3.7943,3.7719,3.7719,3.8033,3.8691,3.8706,3.8945,3.9424,3.9424,3.9424,3.9424,3.9424,3.9424,3.9424,3.9424,3.9192,3.8885,3.8188,3.7414,3.6452,3.5196,3.4397,3.3823,3.3326,3.3081,3.3081,3.3081,3.3081,3.3081,3.3081,3.3081,3.3081,3.3081,3.3081,3.3081,3.3081,3.3081,3.3081,3.2896,3.2276,3.1572,3.0758,2.9749,2.8724,2.7882,2.7136,2.6572,2.6207,2.611,2.6014,2.583,2.583,2.583,2.5732,2.5732,2.583,2.583,2.61,2.6486,2.6784,2.7536,2.8333,2.9223,3.0105,3.0872,3.1627,3.1207,3.0701,3.0047,2.892,2.8291,2.8291,2.8291,2.8291,2.8291,2.8291,2.8291,2.8291,2.8291,2.8184,2.796,2.7647,2.6881,2.5898,2.4659,2.3199,2.1729,2.0945,2.0162,1.9406,1.9786,2.0054,2.0281,2.0668,2.0942,2.1109,4.3623,4.3502,4.3185,4.2834,4.271,4.2333,4.172,4.1588,4.139,4.0851,4.0631,4.0409,4.0216,3.9879,3.9681,3.9681,3.9481,3.9424,3.9424,3.9424,3.911,3.8422,3.8407,3.8721,3.9409,3.9424,3.9424,3.9424,3.9424,3.9424,3.9424,3.9424,3.9424,3.9424,3.9424,3.9046,3.8441,3.8052,3.7014,3.5669,3.495,3.4134,3.3398,3.3154,3.3081,3.3081,3.3081,3.3081,3.3081,3.3081,3.3081,3.3081,3.3081,3.3081,3.3081,3.3081,3.3081,3.3081,3.3081,3.2896,3.245,3.1572,3.0758,2.9932,2.891,2.8362,2.7809,2.7051,2.686,2.6764,2.6187,2.61,2.6004,2.5732,2.5917,2.61,2.6091,2.6572,2.7051,2.7536,2.8269,2.9201,3.045,3.1078,3.168,3.2408,3.1692,3.06,2.9207,2.8611,2.8291,2.8291,2.8291,2.8291,2.8291,2.8291,2.8291,2.8291,2.8291,2.8291,2.8291,2.7647,2.7098,2.6545,2.4659,2.3199,2.1964,2.0838,1.9938,1.9426,2.0007,2.0234,2.0301,2.0895,2.1109,2.1109,4.3108,4.2958,4.2632,4.2093,4.1835,4.1507,4.1138,4.0768,4.0562,4.0424,4.0091,3.9879,3.9895,3.961,3.9481,3.9481,3.9409,3.9424,3.9424,3.9424,3.9334,3.9125,3.911,3.9215,3.9424,3.9424,3.9424,3.9424,3.9424,3.9424,3.9424,3.9424,3.9424,3.9424,3.9265,3.8958,3.8441,3.7567,3.6624,3.5588,3.4634,3.3894,3.3398,3.3154,3.3081,3.3081,3.3081,3.3081,3.3081,3.3081,3.3081,3.3081,3.3081,3.3081,3.3081,3.3081,3.3081,3.3081,3.3081,3.3068,3.281,3.2001,3.127,3.0464,2.9474,2.8828,2.8258,2.7505,2.722,2.704,2.6764,2.6486,2.639,2.6486,2.6572,2.6764,2.7125,2.76,2.8164,2.8631,2.9684,3.0605,3.1333,3.1995,3.2433,3.2431,3.1181,2.9912,2.8824,2.8504,2.8291,2.8291,2.8291,2.8291,2.8291,2.8291,2.8291,2.8291,2.8291,2.8291,2.8291,2.796,2.7196,2.62,2.4991,2.3424,2.1737,2.0945,2.0155,1.9426,2.0007,2.0234,2.0301,2.0895,2.1109,2.1109,4.2396,4.2077,4.1754,4.1241,4.0972,4.0768,4.0455,4.0161,3.9935,3.9879,3.9681,3.9553,3.9553,3.9481,3.9424,3.9424,3.9424,3.9424,3.9424,3.9424,3.9424,3.9424,3.9424,3.9424,3.9424,3.9424,3.9424,3.9424,3.9424,3.9424,3.9424,3.9337,3.9265,3.9265,3.8958,3.859,3.8066,3.7183,3.6215,3.5196,3.4397,3.3738,3.324,3.3154,3.3081,3.3106,3.3319,3.3407,3.3432,3.3658,3.3721,3.3721,3.3721,3.3721,3.3721,3.3721,3.3721,3.3684,3.3458,3.3407,3.3258,3.25,3.1901,3.1282,3.0476,3.0011,2.9555,2.8806,2.8434,2.806,2.76,2.7336,2.7251,2.7231,2.7421,2.7694,2.7966,2.8631,2.9357,2.9906,3.0951,3.1866,3.2568,3.2983,3.2839,3.2038,3.0604,2.9554,2.8727,2.8408,2.8291,2.8291,2.8291,2.8291,2.8291,2.8291,2.8291,2.8291,2.8291,2.8291,2.8291,2.7853,2.7079,2.6082,2.488,2.3311,2.1502,2.0831,2.004,1.9426,2.0007,2.0234,2.0301,2.0895,2.1109,2.1109,4.1588,4.1122,4.0646,4.0493,4.0285,4.0076,3.9681,3.9696,3.9625,3.9409,3.9424,3.9424,3.9424,3.9424,3.9424,3.9424,3.9424,3.9424,3.9424,3.9424,3.9424,3.9424,3.9424,3.9424,3.9424,3.9424,3.9424,3.9424,3.9424,3.9424,3.9424,3.9177,3.9104,3.9031,3.8664,3.8142,3.7534,3.6794,3.583,3.4634,3.423,3.3666,3.3081,3.3131,3.3156,3.3219,3.3771,3.3972,3.4048,3.455,3.4726,3.4726,3.4726,3.4726,3.4726,3.4726,3.4726,3.4613,3.411,3.3972,3.3746,3.3009,3.2624,3.235,3.1737,3.146,3.1116,3.0397,3.0011,2.9635,2.8713,2.8466,2.8384,2.7872,2.8466,2.8976,2.8965,2.9851,3.08,3.1437,3.2186,3.3063,3.4028,3.3792,3.2915,3.1246,3.0162,2.9353,2.8737,2.8408,2.8291,2.8291,2.8291,2.8291,2.8291,2.8291,2.8291,2.8291,2.8291,2.8291,2.8291,2.7647,2.6871,2.5972,2.4539,2.3087,2.1623,2.0723,1.9931,1.9542,2.0007,2.0234,2.0301,2.0895,2.1109,2.1109,4.1055,4.0646,4.0216,3.995,3.9824,3.9753,3.9481,3.9481,3.9409,3.9424,3.9424,3.9424,3.9424,3.9424,3.9424,3.9424,3.9424,3.9424,3.9424,3.9424,3.9424,3.9424,3.9424,3.9424,3.9424,3.9424,3.9424,3.9424,3.9424,3.9424,3.9424,3.9177,3.9017,3.8855,3.8263,3.7658,3.707,3.627,3.5372,3.4397,3.3979,3.3484,3.3131,3.3558,3.3721,3.3796,3.4349,3.455,3.4562,3.4675,3.4726,3.4726,3.4726,3.4726,3.4726,3.4726,3.4726,3.47,3.4575,3.455,3.4412,3.3771,3.3633,3.3245,3.2174,3.1901,3.1637,3.0937,3.0578,3.0193,2.9635,2.9382,2.9301,2.9566,3.0147,3.0674,3.125,3.2073,3.2659,3.2859,3.3534,3.3978,3.4018,3.3422,3.2387,3.0981,3.0068,2.9353,2.8737,2.8408,2.8291,2.8291,2.8291,2.8291,2.8291,2.8291,2.8291,2.8291,2.8291,2.8291,2.8291,2.7647,2.6871,2.5972,2.4761,2.332,2.1873,2.0952,2.027,1.9761,2.012,2.0234,2.0301,2.0895,2.1109,2.1109,4.037,4.0036,3.9753,3.9625,3.9553,3.9553,3.9424,3.9424,3.9424,3.9424,3.9424,3.9424,3.9424,3.9424,3.9424,3.9424,3.9424,3.9424,3.9424,3.9424,3.9424,3.9424,3.9424,3.9424,3.9424,3.9424,3.9424,3.9424,3.9424,3.9424,3.9424,3.9104,3.887,3.8649,3.7901,3.7275,3.6652,3.5871,3.5059,3.4256,3.4191,3.389,3.3533,3.4085,3.4299,3.4361,3.4914,3.5278,3.5504,3.5504,3.5504,3.5504,3.5504,3.5504,3.5504,3.5504,3.5504,3.5441,3.519,3.5115,3.4989,3.4424,3.4299,3.3984,3.2798,3.2525,3.2363,3.1825,3.1572,3.1294,3.0722,3.0854,3.0938,3.1132,3.1725,3.2424,3.2827,3.3448,3.39,3.3971,3.445,3.4719,3.439,3.3557,3.2499,3.1278,3.037,2.9448,2.8727,2.8408,2.8291,2.8291,2.8291,2.8291,2.8291,2.8291,2.8291,2.8291,2.8291,2.8291,2.8291,2.7862,2.7196,2.6191,2.5203,2.3768,2.2207,2.1288,2.0493,1.987,2.012,2.0234,2.0301,2.0895,2.1109,2.1109,3.9824,3.9553,3.9424,3.9424,3.9424,3.9424,3.9424,3.9424,3.9424,3.9424,3.9424,3.9424,3.9424,3.9424,3.9424,3.9424,3.9424,3.9424,3.9424,3.9424,3.9424,3.9424,3.9424,3.9424,3.9424,3.9424,3.9424,3.9424,3.9424,3.9424,3.9424,3.9017,3.8649,3.8441,3.761,3.6886,3.6163,3.5656,3.4971,3.4198,3.4594,3.4475,3.4098,3.465,3.4864,3.4939,3.5491,3.5981,3.6358,3.6358,3.6358,3.6358,3.6358,3.6358,3.6358,3.6358,3.6358,3.6257,3.5805,3.568,3.5554,3.5002,3.4864,3.46,3.3583,3.3357,3.327,3.2996,3.2834,3.257,3.2079,3.2454,3.2678,3.2496,3.3308,3.3937,3.4029,3.4403,3.4823,3.4895,3.5051,3.5034,3.4787,3.3819,3.2801,3.179,3.0671,2.9649,2.8834,2.8514,2.8291,2.8291,2.8291,2.8291,2.8291,2.8291,2.8291,2.8291,2.8291,2.8291,2.8291,2.8067,2.7413,2.6636,2.5661,2.4317,2.2749,2.1737,2.0723,1.9986,2.012,2.0234,2.0301,2.0895,2.1109,2.1109,3.9768,3.9553,3.9424,3.9424,3.9424,3.9424,3.9424,3.9424,3.9424,3.9424,3.9424,3.9424,3.9424,3.9424,3.9424,3.9424,3.9424,3.9424,3.9424,3.9424,3.9424,3.9424,3.9424,3.9424,3.9424,3.9424,3.9424,3.9424,3.9424,3.9424,3.9424,3.9017,3.8575,3.8202,3.7366,3.6587,3.5817,3.5854,3.5325,3.4619,3.5097,3.4971,3.4675,3.5228,3.5429,3.5504,3.6056,3.6295,3.6358,3.6358,3.6358,3.6358,3.6358,3.6358,3.6358,3.6358,3.6358,3.6345,3.627,3.6257,3.6119,3.5567,3.5429,3.5265,3.4638,3.45,3.441,3.4242,3.4164,3.4061,3.374,3.371,3.3863,3.4082,3.4607,3.5046,3.5244,3.575,3.5981,3.5498,3.5114,3.4751,3.4531,3.393,3.3124,3.2015,3.1002,2.9973,2.9132,2.8611,2.8291,2.8291,2.8291,2.8291,2.8291,2.8291,2.8291,2.8291,2.8291,2.8291,2.8291,2.8067,2.7638,2.7206,2.6118,2.5,2.3983,2.2297,2.1167,2.055,2.0359,2.0234,2.0301,2.0895,2.1109,2.1109,3.9553,3.9481,3.9424,3.9424,3.9424,3.9424,3.9424,3.9424,3.9424,3.9424,3.9424,3.9424,3.9424,3.9424,3.9424,3.9424,3.9424,3.9574,3.9948,3.9963,4.0127,4.0502,4.0516,4.0516,4.0516,4.0516,4.0516,4.0516,3.9783,3.9337,3.9192,3.8811,3.8541,3.8356,3.7484,3.6892,3.6491,3.6167,3.5683,3.5122,3.5506,3.5464,3.524,3.5793,3.5994,3.6031,3.627,3.6358,3.6358,3.6358,3.6358,3.6358,3.6358,3.6358,3.6358,3.6358,3.6358,3.6358,3.6358,3.6358,3.6307,3.6056,3.5994,3.5943,3.5692,3.5642,3.5466,3.4682,3.4557,3.4545,3.4441,3.4599,3.4902,3.5007,3.5456,3.59,3.5994,3.6207,3.6275,3.5908,3.532,3.4932,3.4628,3.404,3.3135,3.2117,3.1002,2.9973,2.9132,2.8611,2.8291,2.8291,2.8291,2.8291,2.8291,2.8291,2.8291,2.8291,2.8291,2.8291,2.8291,2.8184,2.797,2.7638,2.6772,2.5771,2.4437,2.2974,2.1842,2.0914,2.066,2.055,2.0755,2.1015,2.1109,2.1109]}]]